Date StartTime U_cm/s V_cm/s W_cm/s Ustd_cm/s Vstd_cm/s Wstd_cm/s Uvar_(cm/s)^2 Vvar_(cm/s)^2 Wvar_(cm/s)^2 KE_(m/s)^2 TurbulentKE_(m/s)^2 HorizWindSpeed_cm/s FrictionSpeec_cm/s DragCoef SpeedOfSound_m/s SonicTemperature_C Pressure_mb 
09/15/2013  00:00:00      -29.597      -22.640        0.790       36.529       24.162       14.461     1334.355      583.792      209.126        0.176        0.106       37.263       14.101        0.143      344.698       21.702      857.267
09/15/2013  00:01:00     -105.030      -48.953       -4.788       28.839       21.986       14.569      831.670      483.385      212.259        0.749        0.076      115.878       12.879        0.012      344.672       21.658      857.277
09/15/2013  00:02:00     -128.703      -24.801      -13.370       31.416       23.714       15.373      986.975      562.367      236.329        0.957        0.089      131.071       17.475        0.018      344.686       21.681      857.277
09/15/2013  00:03:00     -108.081      -25.800      -14.569       21.912       18.562       12.044      480.146      344.544      145.052        0.676        0.048      111.118        8.409        0.006      344.637       21.598      857.275
09/15/2013  00:04:00     -164.829      -47.683       -6.786       40.116       21.267       16.950     1609.277      452.284      287.304        1.592        0.117      171.587       15.511        0.008      344.579       21.500      857.282
09/15/2013  00:05:00     -105.236       -7.195       -1.790       45.345       26.193       21.445     2056.138      686.066      459.874        0.717        0.160      105.482       18.445        0.031      344.598       21.530      857.290
09/15/2013  00:06:00      -87.119       19.669       -4.266       20.978       32.525       19.389      440.065     1057.889      375.941        0.493        0.094       89.312       14.665        0.027      344.761       21.809      857.291
09/15/2013  00:07:00      -96.291      -20.226       -8.257       28.331       38.321       17.093      802.625     1468.536      292.181        0.616        0.128       98.393        8.165        0.007      344.714       21.730      857.299
09/15/2013  00:08:00     -140.063      -30.165       -0.966       33.706       28.204       14.806     1136.071      795.492      219.223        1.134        0.108      143.275       16.889        0.014      344.664       21.644      857.299
09/15/2013  00:09:00      -95.818      -44.020       -0.693       46.102       23.505       14.649     2125.399      552.508      214.599        0.701        0.145      105.446       15.863        0.023      344.683       21.678      857.311
09/15/2013  00:10:00      -76.352      -22.863        1.395       31.481       25.588       16.592      991.072      654.738      275.310        0.414        0.096       79.702       10.121        0.016      344.683       21.676      857.306
09/15/2013  00:11:00      -89.064      -32.688      -14.106       19.347       27.342       13.669      374.318      747.589      186.844        0.525        0.065       94.873       11.597        0.015      344.697       21.699      857.295
09/15/2013  00:12:00     -110.199      -10.697      -10.114       24.584       26.999       17.480      604.393      728.957      305.556        0.700        0.082      110.717        7.626        0.005      344.730       21.756      857.281
09/15/2013  00:13:00      -96.517      -55.029       -4.193       34.144       31.370       18.564     1165.796      984.082      344.623        0.743        0.125      111.102       15.966        0.021      344.678       21.668      857.282
09/15/2013  00:14:00     -108.280      -64.094       -2.964       30.182       27.136       20.991      910.955      736.384      440.643        0.896        0.104      125.827       18.065        0.021      344.604       21.540      857.273
09/15/2013  00:15:00     -100.927      -49.703        5.286       48.947       44.410       22.755     2395.777     1972.241      517.785        0.878        0.244      112.502       23.121        0.042      344.573       21.486      857.261
09/15/2013  00:16:00     -159.477        1.057       -9.253       52.108       39.032       26.352     2715.222     1523.492      694.429        1.523        0.247      159.480       23.918        0.022      344.593       21.521      857.249
09/15/2013  00:17:00     -130.630      -14.786       -3.033       47.665       35.432       27.199     2271.953     1255.420      739.773        1.078        0.213      131.465       26.381        0.040      344.551       21.450      857.240
09/15/2013  00:18:00     -119.886       -7.569       -7.251       36.625       32.435       21.052     1341.387     1052.054      443.169        0.866        0.142      120.124       18.052        0.023      344.647       21.615      857.229
09/15/2013  00:19:00      -95.202        8.466       -8.232       32.828       27.029       17.458     1077.667      730.591      304.770        0.566        0.106       95.578       15.612        0.027      344.614       21.558      857.215
09/15/2013  00:20:00     -101.306      -19.432      -10.372       29.444       28.852       17.036      866.937      832.413      290.223        0.637        0.099      103.153       14.391        0.019      344.601       21.536      857.212
09/15/2013  00:21:00     -163.347      -50.115        1.080       34.235       32.297       19.641     1172.061     1043.098      385.769        1.590        0.130      170.862       11.978        0.005      344.554       21.455      857.219
09/15/2013  00:22:00     -143.340       -9.800       -0.363       46.778       39.027       30.124     2188.193     1523.099      907.441        1.263        0.231      143.674       29.782        0.043      344.492       21.348      857.237
09/15/2013  00:23:00     -121.774      -20.013      -17.441       29.342       45.270       14.909      860.961     2049.332      222.272        0.933        0.157      123.407       12.509        0.010      344.573       21.488      857.244
09/15/2013  00:24:00     -118.770       27.813       -9.242       24.591       30.167       19.876      604.734      910.046      395.054        0.844        0.095      121.983       19.486        0.026      344.685       21.680      857.237
09/15/2013  00:25:00     -105.384       41.960      -18.022       39.133       44.813       21.084     1531.394     2008.189      444.535        0.859        0.199      113.430       12.888        0.013      344.815       21.901      857.210
09/15/2013  00:26:00     -125.827        7.748       -9.503       28.545       22.649       23.027      814.844      512.991      530.257        0.892        0.093      126.065       13.403        0.011      344.735       21.763      857.196
09/15/2013  00:27:00     -133.762      -11.542      -20.066       26.694       26.207       12.180      712.562      686.824      148.343        0.999        0.077      134.259       10.652        0.006      344.590       21.517      857.206
09/15/2013  00:28:00     -103.522      -23.536      -14.267       20.259       24.359       12.444      410.418      593.347      154.862        0.632        0.058      106.164        7.107        0.004      344.582       21.505      857.202
09/15/2013  00:29:00     -125.719      -46.802       -6.910       38.363       26.628       21.728     1471.748      709.040      472.107        1.035        0.133      134.148       20.238        0.023      344.534       21.420      857.198
09/15/2013  00:30:00      -94.844      -26.194       -5.610       33.453       39.794       19.237     1119.076     1583.577      370.059        0.639        0.154       98.394       17.642        0.032      344.519       21.396      857.192
09/15/2013  00:31:00      -68.617       35.769       -1.459       46.541       26.930       22.104     2166.064      725.217      488.586        0.468        0.169       77.380       15.746        0.041      344.425       21.235      857.190
09/15/2013  00:32:00      -51.467      -12.187        1.317       44.953       27.314       19.329     2020.743      746.056      373.611        0.297        0.157       52.890       22.961        0.188      344.449       21.275      857.192
09/15/2013  00:33:00      -47.073        5.213        5.866       23.989       24.979       12.573      575.463      623.954      158.091        0.182        0.068       47.361       11.857        0.063      344.440       21.259      857.188
09/15/2013  00:34:00     -125.158      -27.523      -11.855       23.268       19.700       13.375      541.399      388.109      178.878        0.884        0.055      128.148        9.141        0.005      344.510       21.378      857.195
09/15/2013  00:35:00      -51.515      -40.147       -5.989       31.599       21.067       12.669      998.465      443.811      160.492        0.295        0.080       65.311       12.852        0.039      344.480       21.328      857.193
09/15/2013  00:36:00      -53.898      -38.072       -4.501       22.953       17.931       11.021      526.837      321.528      121.466        0.267        0.048       65.988       11.456        0.030      344.489       21.341      857.201
09/15/2013  00:37:00      -14.255      -38.720        9.861       43.011       21.261       23.402     1849.966      452.049      547.650        0.232        0.142       41.261       24.201        0.344      344.501       21.367      857.213
09/15/2013  00:38:00      -25.953      -25.279        2.391       24.163       21.191       14.212      583.860      449.060      201.991        0.128        0.062       36.230       14.227        0.154      344.458       21.291      857.206
09/15/2013  00:39:00      -45.495      -32.004       -1.088       33.005       28.800       16.862     1089.352      829.437      284.343        0.265        0.110       55.624       15.124        0.074      344.421       21.226      857.209
09/15/2013  00:40:00      -55.157      -39.659        4.006       24.671       20.211       15.266      608.677      408.478      233.042        0.294        0.063       67.935       10.714        0.025      344.361       21.124      857.208
09/15/2013  00:41:00      -86.758      -53.872       -2.457       27.273       36.229       15.930      743.843     1312.555      253.778        0.637        0.116      102.123        8.797        0.007      344.364       21.130      857.216
09/15/2013  00:42:00      -89.143      -53.555       -6.249       37.938       32.282       20.720     1439.293     1042.110      429.303        0.688        0.146      103.993       19.740        0.036      344.275       20.978      857.214
09/15/2013  00:43:00     -127.953      -45.318       -7.090       17.211       23.176       15.138      296.203      537.121      229.165        0.977        0.053      135.742       10.647        0.006      344.278       20.984      857.191
09/15/2013  00:44:00      -78.564      -18.259       -1.715       39.661       23.897       17.276     1573.018      571.074      298.470        0.448        0.122       80.658       10.567        0.017      344.201       20.849      857.186
09/15/2013  00:45:00      -92.092      -24.314        1.064       31.948       30.267       15.326     1020.702      916.069      234.889        0.562        0.109       95.248       14.040        0.022      344.198       20.847      857.173
09/15/2013  00:46:00     -106.285      -28.141       -8.433       32.613       27.769       19.699     1063.578      771.119      388.033        0.719        0.111      109.947       13.147        0.014      344.166       20.791      857.170
09/15/2013  00:47:00     -132.044      -13.210      -10.052       34.183       25.313       19.517     1168.504      640.741      380.914        0.995        0.110      132.703       17.956        0.018      344.199       20.848      857.160
09/15/2013  00:48:00     -140.760        2.013      -11.241       26.581       24.077       16.041      706.547      579.684      257.301        1.074        0.077      140.774       12.388        0.008      344.151       20.766      857.164
09/15/2013  00:49:00     -134.853       15.640      -11.278       32.197       25.948       20.232     1036.662      673.303      409.335        1.034        0.106      135.757       21.875        0.026      344.142       20.750      857.173
09/15/2013  00:50:00     -144.716       35.292       -8.389       30.529       20.737       14.402      932.049      430.006      207.419        1.191        0.078      148.957       12.485        0.007      344.183       20.821      857.177
09/15/2013  00:51:00     -142.362       16.538      -13.545       24.971       30.831       14.267      623.547      950.555      203.543        1.125        0.089      143.319       10.539        0.005      344.154       20.770      857.185
09/15/2013  00:52:00      -68.619      -12.457       -3.961       21.465       23.289       16.566      460.726      542.390      274.427        0.308        0.064       69.740       12.871        0.034      344.080       20.644      857.188
09/15/2013  00:53:00      -51.998      -23.147        0.713       15.920       20.367       12.528      253.439      414.831      156.946        0.203        0.041       56.917        8.833        0.024      344.134       20.735      857.198
09/15/2013  00:54:00      -53.710      -13.382       -4.738       21.215       16.737        9.623      450.073      280.137       92.605        0.195        0.041       55.353        8.223        0.022      344.083       20.650      857.209
09/15/2013  00:55:00      -44.322      -17.842       -3.588       19.783       15.655       10.864      391.363      245.084      118.032        0.152        0.038       47.779        8.563        0.032      344.075       20.639      857.208
09/15/2013  00:56:00      -24.626       -1.384        4.189       17.951       10.796        9.128      322.227      116.560       83.326        0.057        0.026       24.665        6.302        0.065      344.115       20.702      857.205
09/15/2013  00:57:00      -21.330      -17.458       -0.589       23.081       11.920        9.832      532.715      142.090       96.678        0.077        0.039       27.563        4.976        0.033      344.066       20.622      857.207
09/15/2013  00:58:00      -78.794      -41.960       -5.175       15.892       11.597        9.373      252.549      134.494       87.860        0.424        0.024       89.270        4.655        0.003      344.049       20.593      857.216
09/15/2013  00:59:00      -86.541      -39.160       -6.881       12.143        9.479        7.900      147.455       89.855       62.408        0.468        0.015       94.989        2.464        0.001      344.052       20.598      857.213
09/15/2013  01:00:00      -80.266      -31.160       -8.093        9.525        9.241        7.369       90.720       85.394       54.303        0.385        0.012       86.102        4.909        0.003      344.055       20.604      857.207
09/15/2013  01:01:00      -90.288      -30.420       -4.996       15.236       11.812        6.880      232.134      139.526       47.330        0.476        0.021       95.275        5.554        0.003      344.059       20.608      857.201
09/15/2013  01:02:00      -87.550      -42.988       -2.562       17.088       15.117       13.092      291.987      228.537      171.399        0.511        0.035       97.534        9.815        0.010      344.008       20.524      857.202
09/15/2013  01:03:00      -42.388      -28.508        5.934       38.295       22.033       17.728     1466.472      485.439      314.290        0.245        0.113       51.083       12.669        0.062      343.946       20.415      857.209
09/15/2013  01:04:00      -61.407      -45.425       -3.627       40.627       28.408       15.594     1650.584      807.009      243.176        0.427        0.135       76.382       15.319        0.040      343.862       20.272      857.203
09/15/2013  01:05:00      -95.148      -45.316        0.610       25.277       18.260       14.378      638.918      333.442      206.731        0.614        0.059      105.388       11.882        0.013      343.855       20.261      857.202
09/15/2013  01:06:00     -100.011      -42.738        2.189       28.971       24.804       16.568      839.312      615.221      274.512        0.678        0.086      108.760       15.211        0.020      343.833       20.222      857.196
09/15/2013  01:07:00      -66.553      -54.776        4.149       35.598       21.766       18.622     1267.215      473.775      346.779        0.477        0.104       86.196       15.096        0.031      343.827       20.214      857.203
09/15/2013  01:08:00      -66.982      -68.885        2.453       39.773       31.227       19.252     1581.882      975.126      370.655        0.608        0.146       96.081       18.375        0.037      343.830       20.219      857.204
09/15/2013  01:09:00      -53.659      -52.191       -1.425       40.319       29.843       19.298     1625.587      890.610      372.398        0.425        0.144       74.854       19.108        0.065      343.784       20.140      857.202
09/15/2013  01:10:00      -73.777      -78.678        1.925       40.307       24.260       17.980     1624.654      588.571      323.277        0.709        0.127      107.858       16.014        0.022      343.821       20.203      857.199
09/15/2013  01:11:00      -53.991      -44.469        9.263       46.114       29.932       26.840     2126.532      895.922      720.402        0.436        0.187       69.946       27.976        0.160      343.781       20.135      857.195
09/15/2013  01:12:00      -74.407      -57.449        6.417       40.573       22.172       20.672     1646.201      491.587      427.314        0.572        0.128       94.004       21.204        0.051      343.768       20.112      857.200
09/15/2013  01:13:00      -99.467      -62.293       -4.343       31.364       28.968       22.347      983.712      839.127      499.399        0.806        0.116      117.364       19.384        0.027      343.790       20.151      857.195
09/15/2013  01:14:00      -61.391      -59.849        0.291       38.451       25.654       22.897     1478.495      658.104      524.262        0.501        0.133       85.736       23.866        0.077      343.767       20.111      857.181
09/15/2013  01:15:00      -22.616      -23.071        2.146       33.019       29.426       17.756     1090.260      865.860      315.279        0.166        0.114       32.307       13.216        0.167      343.771       20.117      857.162
09/15/2013  01:16:00      -86.425      -66.328       -7.112       25.329       21.648       18.111      641.562      468.620      327.992        0.668        0.072      108.943       13.619        0.016      343.906       20.348      857.160
09/15/2013  01:17:00      -82.011      -70.769       -9.056       31.087       24.634       16.035      966.431      606.810      257.135        0.682        0.092      108.324       11.326        0.011      343.957       20.436      857.158
09/15/2013  01:18:00     -103.116      -44.165       -1.119       27.007       23.358       18.110      729.401      545.617      327.958        0.709        0.080      112.176       13.262        0.014      344.002       20.512      857.156
09/15/2013  01:19:00      -37.909      -29.208        6.453       40.574       28.437       18.906     1646.256      808.684      357.441        0.257        0.141       47.856       18.007        0.142      343.885       20.313      857.150
09/15/2013  01:20:00      -63.215      -38.343        4.618       44.736       25.342       16.041     2001.278      642.237      257.301        0.419        0.145       73.934       17.677        0.057      343.993       20.496      857.160
09/15/2013  01:21:00      -40.167      -47.455        3.773       47.606       38.776       20.550     2266.363     1503.575      422.301        0.404        0.210       62.172       22.654        0.133      343.930       20.388      857.159
09/15/2013  01:22:00      -73.267      -56.044       -1.459       38.642       30.841       18.490     1493.178      951.159      341.866        0.565        0.139       92.244       12.482        0.018      344.071       20.629      857.166
09/15/2013  01:23:00      -50.703      -19.767        7.153       37.905       24.834       20.615     1436.809      616.704      424.999        0.275        0.124       54.419       20.198        0.138      343.932       20.393      857.164
09/15/2013  01:24:00      -89.290      -50.646        1.194       62.709       29.574       20.314     3932.408      874.628      412.673        0.788        0.261      102.653       21.389        0.043      343.900       20.337      857.168
09/15/2013  01:25:00      -65.941      -37.235        1.327       32.201       18.899       17.506     1036.908      357.167      306.466        0.372        0.085       75.728       13.585        0.032      343.894       20.326      857.173
09/15/2013  01:26:00      -33.064      -18.049        2.408       33.356       32.644       15.061     1112.612     1065.627      226.840        0.191        0.120       37.669       13.682        0.132      343.838       20.232      857.171
09/15/2013  01:27:00      -34.323      -41.651        6.747       37.204       33.806       23.211     1384.146     1142.817      538.745        0.301        0.153       53.971       22.887        0.180      343.894       20.327      857.176
09/15/2013  01:28:00      -61.267      -42.074        3.638       53.164       27.195       23.203     2826.449      739.555      538.383        0.482        0.205       74.322       27.316        0.135      343.897       20.330      857.169
09/15/2013  01:29:00      -47.074      -55.444        6.529       42.994       31.730       22.844     1848.453     1006.791      521.827        0.435        0.169       72.732       22.387        0.095      343.859       20.268      857.173
09/15/2013  01:30:00      -56.689      -62.463        3.749       40.449       34.593       22.679     1636.148     1196.644      514.335        0.524        0.167       84.352       25.317        0.090      343.797       20.163      857.180
09/15/2013  01:31:00      -59.800      -39.312       -1.069       31.943       19.919       17.972     1020.381      396.767      322.976        0.343        0.087       71.565       15.515        0.047      343.766       20.110      857.177
09/15/2013  01:32:00      -73.033      -29.275       -2.812       20.571       15.993       11.253      423.158      255.767      126.635        0.350        0.040       78.682        7.371        0.009      343.847       20.247      857.172
09/15/2013  01:33:00      -71.643      -47.235       -6.111       12.844       14.807       11.685      164.974      219.254      136.548        0.396        0.026       85.813        7.860        0.008      343.826       20.213      857.169
09/15/2013  01:34:00      -63.138      -33.934        3.181       26.427       18.001       12.641      698.403      324.051      159.784        0.316        0.059       71.679       13.126        0.034      343.790       20.151      857.163
09/15/2013  01:35:00      -80.612      -26.175      -10.187       14.404       13.585       10.762      207.473      184.563      115.819        0.390        0.025       84.755        8.598        0.010      343.826       20.212      857.158
09/15/2013  01:36:00      -71.823      -47.417       -5.028       31.171       11.808       12.395      971.640      139.435      153.640        0.435        0.063       86.063       14.341        0.028      343.740       20.063      857.148
09/15/2013  01:37:00      -70.787      -46.621       -5.516       35.029       20.659       12.286     1227.054      426.789      150.953        0.451        0.090       84.760       15.263        0.032      343.757       20.091      857.146
09/15/2013  01:38:00      -85.507      -45.761       -1.236       28.639       17.314       12.832      820.210      299.784      164.665        0.535        0.064       96.982        8.834        0.008      343.732       20.050      857.143
09/15/2013  01:39:00      -76.366      -44.570       -2.813       17.467       14.703        9.918      305.089      216.180       98.372        0.422        0.031       88.421        3.159        0.001      343.743       20.068      857.161
09/15/2013  01:40:00      -43.875      -32.907        3.324       26.936       23.224       14.636      725.553      539.342      214.199        0.225        0.074       54.844       13.735        0.063      343.709       20.010      857.165
09/15/2013  01:41:00      -20.114      -26.248        7.296       37.981       17.433       15.435     1442.566      303.917      238.227        0.157        0.099       33.069       18.613        0.317      343.664       19.935      857.167
09/15/2013  01:42:00      -49.867      -37.097       -0.291       31.108       18.050       17.802      967.684      325.786      316.895        0.274        0.081       62.152       11.699        0.035      343.635       19.883      857.168
09/15/2013  01:43:00      -40.860      -42.442        0.705       23.745       27.368       15.850      563.837      748.987      251.209        0.252        0.078       58.914       12.852        0.048      343.585       19.799      857.164
09/15/2013  01:44:00      -30.590      -24.599        5.551       33.603       24.890       17.939     1129.180      619.534      321.801        0.182        0.104       39.254       14.009        0.127      343.594       19.816      857.161
09/15/2013  01:45:00      -47.048      -33.755        5.842       30.343       23.547       19.121      920.699      554.477      365.609        0.261        0.092       57.904       16.114        0.077      343.592       19.812      857.162
09/15/2013  01:46:00      -41.736      -30.048       10.040       43.152       23.520       20.844     1862.102      553.169      434.475        0.280        0.142       51.427       24.363        0.224      343.506       19.665      857.165
09/15/2013  01:47:00      -95.299      -60.271       -1.560       19.715       20.000       11.773      388.672      400.001      138.597        0.682        0.046      112.759        6.378        0.003      343.548       19.737      857.160
09/15/2013  01:48:00     -103.567      -45.493       -4.651       18.256       18.632       12.757      333.283      347.138      162.751        0.683        0.042      113.118        6.107        0.003      343.556       19.750      857.157
09/15/2013  01:49:00      -67.683      -26.691        2.227       39.794       20.221       16.433     1583.586      408.883      270.046        0.378        0.113       72.756       12.311        0.029      343.516       19.683      857.160
09/15/2013  01:50:00      -74.427      -45.612       -3.013       35.470       30.121       21.454     1258.086      907.300      460.273        0.513        0.131       87.291       22.048        0.064      343.615       19.848      857.163
09/15/2013  01:51:00      -59.475      -36.722       -1.889       36.674       19.850       19.120     1344.951      394.014      365.584        0.350        0.105       69.899       16.890        0.058      343.539       19.722      857.180
09/15/2013  01:52:00      -64.642      -37.986        2.727       44.595       20.529       18.277     1988.735      421.446      334.041        0.419        0.137       74.977       18.445        0.061      343.501       19.658      857.194
09/15/2013  01:53:00      -97.841      -46.953       -7.075       20.278       19.651       14.371      411.217      386.166      206.527        0.642        0.050      108.525        7.132        0.004      343.549       19.739      857.206
09/15/2013  01:54:00      -78.015      -63.341       -5.098       33.058       19.396       11.224     1092.857      376.206      125.967        0.586        0.080      100.491        6.089        0.004      343.549       19.740      857.219
09/15/2013  01:55:00      -42.423      -48.424        3.169       49.269       39.051       24.199     2427.422     1524.952      585.579        0.435        0.227       64.378       27.933        0.188      343.466       19.596      857.233
09/15/2013  01:56:00     -104.750     -102.392        2.638       54.108       44.697       30.019     2927.694     1997.852      901.134        1.364        0.291      146.481       29.998        0.042      343.377       19.446      857.244
09/15/2013  01:57:00     -110.407      -82.680       -5.585       51.968       43.961       30.837     2700.687     1932.609      950.930        1.232        0.279      137.934       28.101        0.042      343.396       19.478      857.233
09/15/2013  01:58:00     -122.060      -67.303        2.776       50.236       31.600       21.290     2523.683      998.577      453.272        1.170        0.199      139.385       25.629        0.034      343.446       19.562      857.214
09/15/2013  01:59:00      -84.486      -43.188        1.968       25.001       27.715       15.430      625.030      768.122      238.082        0.532        0.082       94.885        9.017        0.009      343.444       19.560      857.202
09/15/2013  02:00:00      -42.972      -47.016        7.894       40.742       26.360       17.741     1659.940      694.874      314.732        0.339        0.133       63.695       20.946        0.108      343.449       19.570      857.214
09/15/2013  02:01:00      -30.349      -47.990        6.214       45.810       21.455       16.738     2098.511      460.326      280.176        0.305        0.142       56.781       20.035        0.124      343.488       19.635      857.220
09/15/2013  02:02:00      -19.662      -60.879       -4.527       28.434       27.707       15.560      808.492      767.694      242.104        0.297        0.091       63.975        8.918        0.019      343.479       19.620      857.225
09/15/2013  02:03:00      -67.778      -78.126       -7.350       43.498       34.984       21.271     1892.119     1223.912      452.463        0.716        0.178      103.429       15.167        0.022      343.514       19.680      857.234
09/15/2013  02:04:00      -64.195      -52.524        0.971       47.935       33.179       21.962     2297.730     1100.860      482.332        0.538        0.194       82.944       14.325        0.030      343.502       19.659      857.244
09/15/2013  02:05:00      -87.113      -85.607        5.307       61.248       47.684       29.673     3751.304     2273.757      880.491        1.092        0.345      122.136       30.519        0.062      343.534       19.713      857.260
09/15/2013  02:06:00     -130.329     -134.051       -5.827       71.472       46.138       39.752     5108.305     2128.703     1580.191        2.190        0.441      186.964       39.610        0.045      343.364       19.422      857.258
09/15/2013  02:07:00     -133.323      -94.202        0.043       39.910       47.183       27.945     1592.797     2226.251      780.941        1.562        0.230      163.246       25.732        0.025      343.413       19.507      857.253
09/15/2013  02:08:00      -96.524      -76.594       -1.328       56.400       52.424       24.672     3180.919     2748.296      608.687        1.086        0.327      123.221       27.567        0.050      343.303       19.319      857.255
09/15/2013  02:09:00     -112.390      -61.149        2.424       39.572       40.066       23.327     1565.921     1605.316      544.145        1.005        0.186      127.948       21.963        0.029      343.273       19.268      857.257
09/15/2013  02:10:00      -66.300      -51.267        4.260       49.124       24.670       21.330     2413.211      608.597      454.972        0.526        0.174       83.810       22.080        0.069      343.233       19.201      857.259
09/15/2013  02:11:00      -71.977      -77.753        3.383       59.415       48.664       28.430     3530.131     2368.214      808.274        0.897        0.335      105.954       40.179        0.144      343.239       19.210      857.272
09/15/2013  02:12:00      -98.274     -111.779       -0.162       41.909       37.278       22.977     1756.323     1389.622      527.928        1.291        0.184      148.837       23.619        0.025      343.217       19.174      857.284
09/15/2013  02:13:00     -120.634     -110.101       -2.666       37.897       45.612       29.107     1436.210     2080.435      847.216        1.552        0.218      163.324       25.990        0.025      343.285       19.288      857.302
09/15/2013  02:14:00     -112.511      -90.349      -10.466       52.154       43.059       29.648     2720.056     1854.071      878.978        1.319        0.273      144.297       30.215        0.044      343.276       19.274      857.311
09/15/2013  02:15:00     -101.725      -76.573        1.543       39.883       42.367       22.142     1590.629     1794.932      490.260        1.004        0.194      127.325       22.751        0.032      343.269       19.261      857.309
09/15/2013  02:16:00     -108.731      -75.157       -7.258       37.084       37.642       17.626     1375.204     1416.954      310.665        1.031        0.155      132.178       18.411        0.019      343.319       19.348      857.296
09/15/2013  02:17:00     -107.271      -61.253        0.608       40.907       25.043       18.969     1673.351      627.176      359.811        0.896        0.133      123.527       21.358        0.030      343.306       19.324      857.284
09/15/2013  02:18:00      -69.471      -43.485        4.221       24.645       22.649       16.614      607.378      512.956      276.022        0.407        0.070       81.959       15.802        0.037      343.211       19.164      857.284
09/15/2013  02:19:00      -72.881      -43.030       -1.671       24.876       17.771       14.194      618.812      315.818      201.474        0.415        0.057       84.636       13.800        0.027      343.206       19.154      857.280
09/15/2013  02:20:00      -62.399      -44.097        2.932       19.192       24.591       14.081      368.335      604.708      198.269        0.351        0.059       76.408        5.807        0.006      343.270       19.263      857.276
09/15/2013  02:21:00      -64.312       11.490       -0.347       18.819       13.481       11.326      354.147      181.733      128.272        0.247        0.033       65.330       12.024        0.034      343.163       19.082      857.270
09/15/2013  02:22:00      -72.115        1.250       -8.240       13.106       12.457        7.350      171.761      155.181       54.017        0.283        0.019       72.126        3.907        0.003      343.141       19.045      857.262
09/15/2013  02:23:00     -107.292       -4.415       -7.275       21.075       12.208       13.009      444.165      149.023      169.221        0.617        0.038      107.383       11.757        0.012      343.061       18.908      857.252
09/15/2013  02:24:00      -89.056      -22.195       -4.964       26.792       16.105       13.428      717.811      259.359      180.324        0.480        0.058       91.780       14.906        0.026      343.067       18.919      857.241
09/15/2013  02:25:00      -79.998      -42.289       -4.415       18.424       13.304       14.566      339.426      176.994      212.169        0.447        0.036       90.488        8.695        0.009      343.099       18.972      857.238
09/15/2013  02:26:00      -55.265      -36.074        2.735       28.317       18.783       16.942      801.846      352.806      287.025        0.290        0.072       65.996       11.872        0.032      343.003       18.810      857.234
09/15/2013  02:27:00     -102.422      -37.533       -5.333       11.444       10.966        6.408      130.976      120.251       41.057        0.611        0.015      109.083        7.279        0.004      343.073       18.929      857.221
09/15/2013  02:28:00      -89.117      -36.699       -3.538       10.812       10.463        7.476      116.905      109.477       55.892        0.479        0.014       96.378        2.282        0.001      343.058       18.901      857.207
09/15/2013  02:29:00      -81.614      -22.993       -2.727       13.904       15.224        9.019      193.312      231.772       81.335        0.385        0.025       84.791        6.707        0.006      343.069       18.921      857.194
09/15/2013  02:30:00     -109.180      -22.295       -6.232       15.790       15.719       10.642      249.319      247.084      113.243        0.653        0.030      111.433        7.891        0.005      343.055       18.896      857.187
09/15/2013  02:31:00     -108.990      -21.968       -5.331       18.586       15.973       12.104      345.427      255.124      146.496        0.657        0.037      111.182       11.154        0.010      343.058       18.902      857.165
09/15/2013  02:32:00     -106.707      -16.550       -3.140       26.355       18.666       12.776      694.582      348.428      163.236        0.644        0.060      107.983        9.547        0.008      343.045       18.880      857.147
09/15/2013  02:33:00     -120.330      -37.620      -10.282       12.129       13.078        8.676      147.115      171.047       75.266        0.820        0.020      126.073        3.735        0.001      342.990       18.787      857.144
09/15/2013  02:34:00      -88.044      -52.058       -4.412       19.294       15.581       14.280      372.249      242.775      203.905        0.565        0.041      102.283        6.814        0.004      343.010       18.821      857.141
09/15/2013  02:35:00      -40.156      -35.515       -0.322       26.954       23.802       12.201      726.532      566.553      148.876        0.216        0.072       53.608       14.330        0.071      343.017       18.833      857.124
09/15/2013  02:36:00      -42.704      -25.580        5.582       26.260       22.533       13.254      689.614      507.733      175.680        0.194        0.069       49.779       14.870        0.089      343.065       18.915      857.113
09/15/2013  02:37:00      -72.775      -45.669       -2.066       15.449       16.043       10.510      238.661      257.366      110.471        0.400        0.030       85.918        7.143        0.007      343.222       19.183      857.107
09/15/2013  02:38:00      -63.923      -35.549       -5.321       20.788       13.592       14.472      432.134      184.743      209.450        0.310        0.041       73.143       12.611        0.030      343.154       19.064      857.105
09/15/2013  02:39:00      -42.372      -28.936       -1.658       20.670       14.074       12.834      427.235      198.074      164.719        0.171        0.040       51.310       11.639        0.051      343.160       19.076      857.096
09/15/2013  02:40:00      -73.231      -37.812      -10.659       13.776        7.500        6.866      189.766       56.251       47.140        0.360        0.015       82.417        1.342        0.000      343.239       19.210      857.088
09/15/2013  02:41:00      -94.863      -49.958      -12.267       13.556       10.305        7.948      183.771      106.189       63.177        0.600        0.018      107.213        3.691        0.001      343.240       19.212      857.082
09/15/2013  02:42:00      -50.388      -36.032        3.465       38.746       26.890       19.683     1501.261      723.067      387.430        0.323        0.131       61.945       18.577        0.090      343.074       18.930      857.082
09/15/2013  02:43:00      -52.986      -49.169        2.852       33.249       23.447       16.256     1105.518      549.783      264.272        0.358        0.096       72.285       15.699        0.047      343.027       18.849      857.088
09/15/2013  02:44:00      -48.045      -25.360        3.355       30.680       23.217       16.388      941.293      539.042      268.569        0.236        0.087       54.328       15.357        0.080      342.980       18.770      857.085
09/15/2013  02:45:00      -62.316      -37.249       -3.138       26.793       19.061       12.297      717.853      363.309      151.211        0.326        0.062       72.600       11.003        0.023      342.945       18.711      857.092
09/15/2013  02:46:00      -25.581      -41.619        3.397       19.238       18.469       11.933      370.101      341.113      142.408        0.163        0.043       48.852       11.061        0.051      342.985       18.779      857.097
09/15/2013  02:47:00      -39.048      -80.922        2.957       44.085       25.527       22.391     1943.498      651.644      501.356        0.559        0.155       89.851       20.692        0.053      343.008       18.818      857.117
09/15/2013  02:48:00      -66.302      -62.122       16.248       61.362       43.641       37.017     3765.259     1904.511     1370.226        0.778        0.352       90.858       35.931        0.156      342.975       18.762      857.125
09/15/2013  02:49:00      -54.250      -75.349       -1.103       76.699       58.659       45.772     5882.720     3440.841     2095.086        1.002        0.571       92.847       39.760        0.183      342.946       18.711      857.125
09/15/2013  02:50:00     -121.131      -47.331       -2.644       66.355       48.911       33.141     4403.044     2392.296     1098.324        1.241        0.395      130.050       26.742        0.042      342.889       18.613      857.123
09/15/2013  02:51:00      -69.507      -35.860        0.621       55.218       35.426       31.748     3049.066     1255.010     1007.941        0.571        0.266       78.213       25.680        0.108      342.876       18.593      857.123
09/15/2013  02:52:00      -97.347      -58.946       -4.726       71.178       45.478       36.741     5066.319     2068.271     1349.904        1.073        0.424      113.803       34.982        0.094      342.900       18.633      857.126
09/15/2013  02:53:00     -128.869      -91.589       -2.835       59.988       61.756       34.439     3598.532     3813.785     1186.032        1.680        0.430      158.101       36.232        0.053      342.856       18.557      857.118
09/15/2013  02:54:00     -139.841     -120.085      -11.391       53.104       31.435       27.314     2820.031      988.176      746.077        1.933        0.228      184.326       22.975        0.016      342.878       18.594      857.116
09/15/2013  02:55:00     -110.714      -96.305       -3.560       62.660       54.231       34.666     3926.279     2941.043     1201.738        1.481        0.403      146.738       30.172        0.042      342.877       18.592      857.110
09/15/2013  02:56:00     -131.792     -124.419        2.401       65.006       56.616       33.448     4225.826     3205.399     1118.781        2.070        0.428      181.243       30.611        0.029      342.832       18.515      857.120
09/15/2013  02:57:00     -155.865     -123.690      -14.813       51.131       49.092       34.439     2614.340     2410.034     1186.034        2.301        0.311      198.980       29.875        0.023      342.778       18.423      857.115
09/15/2013  02:58:00     -138.161     -115.209       -3.115       46.871       52.093       24.949     2196.858     2713.668      622.465        1.895        0.277      179.893       19.326        0.012      342.789       18.441      857.110
09/15/2013  02:59:00     -123.854     -112.260       -0.817       49.812       51.602       30.697     2481.219     2662.739      942.300        1.701        0.304      167.159       32.781        0.038      342.790       18.445      857.104
09/15/2013  03:00:00     -109.950      -91.607       -0.859       45.817       43.194       22.489     2099.228     1865.722      505.748        1.248        0.224      143.111       25.265        0.031      342.763       18.401      857.097
09/15/2013  03:01:00      -88.587      -97.579       -9.385       28.307       23.403       17.456      801.259      547.696      304.701        0.956        0.083      131.793        8.262        0.004      342.863       18.571      857.101
09/15/2013  03:02:00      -55.022      -89.398      -11.860       30.485       34.477       19.651      929.336     1188.636      386.173        0.683        0.125      104.973       14.994        0.020      342.853       18.554      857.109
09/15/2013  03:03:00      -31.152      -61.232       -9.584       30.197       40.181       19.205      911.846     1614.520      368.838        0.385        0.145       68.700       15.164        0.049      342.869       18.582      857.112
09/15/2013  03:04:00      -48.638      -63.187       -1.294       73.561       36.465       31.726     5411.226     1329.681     1006.513        0.705        0.387       79.738       35.702        0.200      342.815       18.489      857.105
09/15/2013  03:05:00     -117.588      -82.038      -12.267       61.654       44.656       28.116     3801.201     1994.122      790.531        1.365        0.329      143.378       21.315        0.022      342.772       18.415      857.095
09/15/2013  03:06:00      -95.645      -78.679        3.015       42.564       40.265       26.401     1811.659     1621.301      697.027        0.974        0.206      123.848       28.130        0.052      342.780       18.428      857.103
09/15/2013  03:07:00      -83.685      -45.334        2.407       37.633       21.772       21.449     1416.211      474.010      460.074        0.571        0.118       95.175       18.695        0.039      342.794       18.454      857.096
09/15/2013  03:08:00      -81.553      -30.818       -8.234       27.467       19.368       13.569      754.415      375.129      184.125        0.449        0.066       87.182       10.265        0.014      342.788       18.445      857.096
09/15/2013  03:09:00      -70.520      -23.681       -5.903       26.028       17.850       13.640      677.438      318.605      186.046        0.338        0.059       74.390        7.491        0.010      342.803       18.469      857.103
09/15/2013  03:10:00      -11.988      -26.236       -1.720       21.881       16.220       13.459      478.793      263.089      181.141        0.088        0.046       28.845        4.543        0.025      342.789       18.444      857.117
09/15/2013  03:11:00      -49.710      -32.252       -2.605       36.874       23.808       14.677     1359.659      566.803      215.418        0.283        0.107       59.257       12.138        0.042      342.889       18.615      857.123
09/15/2013  03:12:00      -59.619      -41.470       -1.479       39.686       24.954       20.452     1574.996      622.689      418.274        0.395        0.131       72.624       17.938        0.061      342.811       18.482      857.126
09/15/2013  03:13:00      -61.649      -54.886        4.762       35.742       43.895       17.151     1277.500     1926.733      294.144        0.517        0.175       82.541       14.470        0.031      342.793       18.451      857.132
09/15/2013  03:14:00     -104.127      -75.082       -5.279       39.352       33.118       24.123     1548.554     1096.790      581.928        0.987        0.161      128.374       20.859        0.026      342.777       18.423      857.129
09/15/2013  03:15:00      -89.491      -79.186       -1.842       46.899       34.177       21.523     2199.530     1168.038      463.243        0.906        0.192      119.495       22.564        0.036      342.765       18.402      857.130
09/15/2013  03:16:00     -109.563      -66.963       -7.693       35.777       27.243       20.854     1279.962      742.170      434.896        0.950        0.123      128.406       20.312        0.025      342.748       18.374      857.125
09/15/2013  03:17:00     -137.546      -78.642       -0.665       46.861       32.166       23.602     2195.989     1034.651      557.039        1.445        0.189      158.441       23.174        0.021      342.778       18.427      857.118
09/15/2013  03:18:00      -77.325      -47.546        4.379       55.422       38.906       23.241     3071.611     1513.663      540.146        0.669        0.256       90.773       23.840        0.069      342.719       18.324      857.106
09/15/2013  03:19:00      -53.928      -31.269        4.809       28.574       34.255       18.479      816.498     1173.428      341.490        0.312        0.117       62.338       16.651        0.071      342.798       18.461      857.104
09/15/2013  03:20:00      -95.182      -62.186       -6.310       20.754       25.307       13.421      430.719      640.464      180.111        0.711        0.063      113.696        9.873        0.008      342.809       18.479      857.101
09/15/2013  03:21:00      -61.205      -56.426       -1.928       25.299       16.402       13.237      640.033      269.016      175.208        0.401        0.054       83.246       12.521        0.023      342.775       18.419      857.085
09/15/2013  03:22:00      -63.234      -35.665       -0.161       21.544       13.529       10.345      464.125      183.036      107.029        0.301        0.038       72.599       11.355        0.024      342.755       18.386      857.075
09/15/2013  03:23:00      -67.183      -42.088        1.710       20.080       17.505       14.395      403.202      306.417      207.214        0.360        0.046       79.278       11.959        0.023      342.800       18.462      857.070
09/15/2013  03:24:00      -56.051       -9.253       -1.129       26.840       18.873        9.550      720.411      356.180       91.197        0.220        0.058       56.809       12.229        0.046      342.765       18.403      857.066
09/15/2013  03:25:00      -80.088      -22.516       -0.739       17.501       14.711       10.777      306.300      216.424      116.148        0.378        0.032       83.193        5.106        0.004      342.753       18.383      857.061
09/15/2013  03:26:00      -80.286      -26.405       -4.383       11.097       15.580        7.422      123.133      242.728       55.092        0.379        0.021       84.516        4.886        0.003      342.728       18.339      857.051
09/15/2013  03:27:00      -63.781       -8.990       -6.434       28.786       16.630       12.664      828.617      276.564      160.368        0.273        0.063       64.412       13.387        0.043      342.616       18.149      857.047
09/15/2013  03:28:00      -78.551       -3.642       -5.972       27.340       15.793       12.341      747.500      249.413      152.300        0.368        0.057       78.635       10.393        0.017      342.598       18.119      857.053
09/15/2013  03:29:00      -75.233      -23.231       -4.673       19.540       17.533       11.202      381.800      307.405      125.495        0.352        0.041       78.738       11.620        0.022      342.632       18.178      857.057
09/15/2013  03:30:00      -80.364      -32.733       -2.783        7.372       11.327        5.949       54.345      128.304       35.392        0.388        0.011       86.775        4.368        0.003      342.692       18.279      857.055
09/15/2013  03:31:00      -68.722      -13.442       -4.256       24.478       14.495        8.074      599.185      210.091       65.190        0.290        0.044       70.024        9.328        0.018      342.635       18.184      857.052
09/15/2013  03:32:00      -96.054      -32.209       -7.928       23.422       14.805        9.192      548.573      219.178       84.488        0.559        0.043      101.310       11.758        0.013      342.620       18.157      857.055
09/15/2013  03:33:00      -99.996      -43.455       -6.546       14.771       10.392        9.383      218.192      107.995       88.048        0.617        0.021      109.030        6.144        0.003      342.591       18.108      857.056
09/15/2013  03:34:00      -78.844      -45.143       -2.951       22.548       18.435       15.009      508.408      339.853      225.259        0.467        0.054       90.853       11.732        0.017      342.577       18.084      857.074
09/15/2013  03:35:00      -74.052      -28.933        0.165       22.808       16.087       14.284      520.189      258.807      204.042        0.365        0.049       79.504       11.292        0.020      342.617       18.151      857.077
09/15/2013  03:36:00      -69.877      -34.688       -5.297       12.796       12.906        9.010      163.740      166.554       81.184        0.326        0.021       78.014        3.489        0.002      342.650       18.208      857.079
09/15/2013  03:37:00      -57.071      -29.028       -8.273       21.306        9.466       11.813      453.945       89.612      139.551        0.243        0.034       64.029       11.908        0.035      342.569       18.070      857.087
09/15/2013  03:38:00        3.084      -14.276        3.474       10.544       10.613       11.551      111.176      112.645      133.435        0.029        0.018       14.606        6.838        0.219      342.591       18.106      857.107
09/15/2013  03:39:00      -11.163       -3.888        1.072       19.811        7.637        9.478      392.481       58.326       89.832        0.034        0.027       11.820       10.025        0.719      342.614       18.146      857.114
09/15/2013  03:40:00        1.603       -7.454       -0.927       10.567       14.394        9.632      111.660      207.189       92.782        0.024        0.021        7.624       10.310        1.828      342.659       18.222      857.116
09/15/2013  03:41:00       -9.334      -18.940        4.391       12.674       15.234       12.065      160.637      232.090      145.553        0.050        0.027       21.115        9.097        0.186      342.698       18.290      857.121
09/15/2013  03:42:00        4.347      -17.647        1.100       18.339       14.394       13.331      336.329      207.174      177.703        0.053        0.036       18.174        7.968        0.192      342.682       18.262      857.140
09/15/2013  03:43:00      -15.385      -35.362       10.763       40.748       31.422       21.442     1660.423      987.343      459.775        0.235        0.155       38.564       25.328        0.431      342.638       18.188      857.146
09/15/2013  03:44:00      -84.838      -72.436       -8.587       34.652       28.032       22.089     1200.762      785.787      487.925        0.750        0.124      111.555       15.243        0.019      342.532       18.007      857.165
09/15/2013  03:45:00      -51.897      -16.072       -0.614       35.541       32.529       19.112     1263.188     1058.150      365.264        0.282        0.134       54.329       12.215        0.051      342.492       17.940      857.177
09/15/2013  03:46:00      -16.803      -25.654        2.159       26.772       29.355       17.515      716.754      861.731      306.762        0.141        0.094       30.667       12.123        0.156      342.531       18.005      857.172
09/15/2013  03:47:00      -15.453      -33.944        0.078       33.246       32.068       21.592     1105.296     1028.325      466.214        0.199        0.130       37.296       20.985        0.317      342.594       18.113      857.176
09/15/2013  03:48:00       -0.307      -25.140        5.004       14.837       17.988       13.717      220.147      323.556      188.144        0.069        0.037       25.142       11.674        0.216      342.615       18.147      857.171
09/15/2013  03:49:00      -75.391      -33.651       -1.796       47.185       31.022       29.776     2226.443      962.394      886.588        0.545        0.204       82.560       27.378        0.110      342.595       18.114      857.169
09/15/2013  03:50:00      -77.982      -67.409       -8.405       51.706       48.405       24.648     2673.539     2343.027      607.523        0.816        0.281      103.078       25.811        0.063      342.562       18.059      857.181
09/15/2013  03:51:00      -77.785      -54.398        0.857       54.040       39.600       28.664     2920.361     1568.193      821.602        0.716        0.266       94.919       30.678        0.104      342.577       18.085      857.185
09/15/2013  03:52:00     -102.662      -91.956       -8.708       55.270       40.742       25.541     3054.746     1659.927      652.367        1.222        0.268      137.823       28.162        0.042      342.600       18.123      857.187
09/15/2013  03:53:00     -132.804      -87.868        3.395       54.709       59.859       31.680     2993.031     3583.069     1003.597        1.647        0.379      159.240       27.662        0.030      342.573       18.077      857.181
09/15/2013  03:54:00     -124.891      -83.824      -11.741       46.163       41.695       24.347     2131.036     1738.434      592.759        1.361        0.223      150.413       18.517        0.015      342.610       18.141      857.173
09/15/2013  03:55:00     -124.396      -67.058       -7.984       39.914       34.356       24.567     1593.094     1180.320      603.541        1.171        0.169      141.319       17.737        0.016      342.599       18.119      857.177
09/15/2013  03:56:00      -77.303      -47.592        5.573       51.460       42.367       24.936     2648.182     1794.922      621.814        0.667        0.253       90.779       23.402        0.066      342.522       17.991      857.172
09/15/2013  03:57:00     -148.260     -111.466       -2.276       54.846       46.729       29.168     3008.073     2183.585      850.771        2.023        0.302      185.488       17.969        0.009      342.578       18.085      857.167
09/15/2013  03:58:00     -125.408      -70.008       -0.631       44.794       32.764       21.034     2006.524     1073.464      442.424        1.207        0.176      143.626       22.745        0.025      342.558       18.052      857.169
09/15/2013  03:59:00      -99.281      -48.677        2.835       57.209       33.717       23.624     3272.831     1136.839      558.084        0.860        0.248      110.572       26.096        0.056      342.577       18.084      857.168
09/15/2013  04:00:00     -104.739      -84.293       -8.612       35.828       40.861       25.685     1283.627     1669.638      659.734        1.088        0.181      134.445       16.734        0.015      342.607       18.133      857.169
09/15/2013  04:01:00     -107.807      -99.241       -1.030       51.389       44.627       29.749     2640.845     1991.576      885.022        1.349        0.276      146.531       28.383        0.038      342.564       18.062      857.174
09/15/2013  04:02:00     -106.320      -57.492       -1.048       45.222       28.310       20.289     2044.987      801.476      411.660        0.893        0.163      120.869       20.966        0.030      342.508       17.967      857.177
09/15/2013  04:03:00     -127.320      -49.233       -5.060       33.915       37.706       19.052     1150.253     1421.753      362.983        1.080        0.147      136.507       15.373        0.013      342.477       17.915      857.181
09/15/2013  04:04:00     -103.546      -58.062       -4.287       48.795       41.155       20.726     2380.963     1693.703      429.586        0.931        0.225      118.714       21.336        0.032      342.432       17.838      857.179
09/15/2013  04:05:00     -105.691      -76.219        1.949       61.646       57.450       31.123     3800.198     3300.481      968.656        1.252        0.403      130.307       34.164        0.069      342.490       17.936      857.171
09/15/2013  04:06:00     -111.382      -75.768       -3.768       47.505       40.929       32.229     2256.768     1675.178     1038.730        1.156        0.249      134.710       29.856        0.049      342.497       17.950      857.168
09/15/2013  04:07:00     -124.739      -45.373       -0.547       34.773       33.769       25.145     1209.146     1140.316      632.255        1.030        0.149      132.735       22.971        0.030      342.489       17.933      857.173
09/15/2013  04:08:00     -132.989      -26.040       -5.494       46.215       38.110       19.069     2135.792     1452.394      363.629        1.117        0.198      135.514       17.790        0.017      342.452       17.872      857.170
09/15/2013  04:09:00      -90.545      -18.812        2.246       42.577       35.494       23.128     1812.783     1259.843      534.909        0.608        0.180       92.478       26.286        0.081      342.404       17.790      857.167
09/15/2013  04:10:00     -104.263       -5.323       -8.157       29.862       24.842       17.852      891.712      617.123      318.680        0.640        0.091      104.398       15.465        0.022      342.314       17.636      857.161
09/15/2013  04:11:00     -135.991      -17.356       -9.597       33.238       21.627       18.416     1104.796      467.713      339.156        1.040        0.096      137.094       18.626        0.018      342.274       17.569      857.167
09/15/2013  04:12:00     -150.423      -19.437      -10.360       35.749       27.945       22.108     1277.965      780.925      488.775        1.283        0.127      151.673       20.429        0.018      342.263       17.549      857.172
09/15/2013  04:13:00     -142.409      -65.241        0.047       34.589       35.670       24.388     1196.424     1272.372      594.788        1.380        0.153      156.642       20.016        0.016      342.299       17.611      857.175
09/15/2013  04:14:00     -141.539      -55.664       -0.891       38.812       27.770       20.298     1506.358      771.152      412.004        1.291        0.134      152.091       15.728        0.011      342.343       17.686      857.171
09/15/2013  04:15:00     -151.706      -52.871       -4.236       40.994       32.094       24.202     1680.543     1030.055      585.736        1.456        0.165      160.655       21.069        0.017      342.372       17.735      857.171
09/15/2013  04:16:00     -161.979      -65.569       -9.734       25.423       27.367       15.169      646.321      748.946      230.109        1.613        0.081      174.747       10.278        0.003      342.315       17.639      857.179
09/15/2013  04:17:00     -117.602      -46.288       -7.021       32.284       27.643       18.153     1042.265      764.125      329.546        0.908        0.107      126.384       16.476        0.017      342.273       17.566      857.194
09/15/2013  04:18:00     -101.020      -19.745       -0.969       21.535       23.376       17.583      463.757      546.443      309.178        0.596        0.066      102.932       13.783        0.018      342.256       17.538      857.198
09/15/2013  04:19:00     -104.575      -61.962      -10.120       31.285       35.179       20.729      978.775     1237.567      429.708        0.876        0.132      121.553       16.239        0.018      342.297       17.606      857.206
09/15/2013  04:20:00     -135.964      -68.707       -7.568       61.344       32.297       22.524     3763.136     1043.111      507.319        1.429        0.266      152.338       27.611        0.033      342.382       17.751      857.193
09/15/2013  04:21:00     -139.085      -51.389      -10.161       51.629       42.641       24.948     2665.538     1818.239      622.399        1.360        0.255      148.275       29.561        0.040      342.384       17.756      857.189
09/15/2013  04:22:00     -130.888      -47.432        0.735       49.781       33.230       21.575     2478.183     1104.208      465.483        1.171        0.202      139.217       22.428        0.026      342.212       17.464      857.184
09/15/2013  04:23:00     -129.686      -43.539      -10.290       25.534       32.773       16.939      652.006     1074.080      286.937        1.042        0.101      136.799       13.353        0.010      342.184       17.417      857.172
09/15/2013  04:24:00     -120.286      -60.935      -14.493       26.316       31.309       17.032      692.521      980.248      290.105        1.018        0.098      134.840       11.367        0.007      342.233       17.499      857.170
09/15/2013  04:25:00     -111.921      -47.403       -3.714       30.606       31.581       21.466      936.703      997.390      460.772        0.859        0.120      121.546       16.240        0.018      342.198       17.439      857.177
09/15/2013  04:26:00     -113.772      -41.005      -12.762       26.939       30.826       22.296      725.729      950.272      497.122        0.848        0.109      120.936       17.545        0.021      342.175       17.401      857.170
09/15/2013  04:27:00      -74.771      -27.142       -6.757       28.875       20.143       13.657      833.785      405.747      186.517        0.390        0.071       79.544       13.933        0.031      342.151       17.360      857.160
09/15/2013  04:28:00      -58.984       -1.776       -4.552       25.110       20.461       13.251      630.527      418.637      175.580        0.236        0.061       59.011       15.213        0.066      342.167       17.387      857.166
09/15/2013  04:29:00     -118.230      -20.382      -12.932       22.723       21.227       17.921      516.313      450.604      321.161        0.792        0.064      119.974       13.017        0.012      342.178       17.406      857.175
09/15/2013  04:30:00      -75.350      -18.029        4.795       32.937       28.967       15.913     1084.867      839.111      253.238        0.410        0.109       77.477       16.038        0.043      342.086       17.248      857.172
09/15/2013  04:31:00      -17.439       -2.676        8.396       17.599       17.669       17.023      309.729      312.194      289.790        0.065        0.046       17.643       12.016        0.464      342.104       17.280      857.182
09/15/2013  04:32:00      -11.660      -14.561       -1.743       26.305       13.178       13.864      691.958      173.672      192.202        0.070        0.053       18.655       13.009        0.486      342.152       17.362      857.191
09/15/2013  04:33:00       -6.860      -13.379        0.273       15.393       19.630       10.899      236.933      385.349      118.781        0.048        0.037       15.035       11.181        0.553      342.197       17.437      857.197
09/15/2013  04:34:00      -29.633      -19.698       -5.722       10.203       12.847        9.068      104.096      165.045       82.233        0.083        0.018       35.583        5.860        0.027      342.231       17.492      857.181
09/15/2013  04:35:00      -43.872      -23.634       -8.713       21.038       17.495       12.064      442.608      306.058      145.544        0.173        0.045       49.833        8.311        0.028      342.315       17.638      857.171
09/15/2013  04:36:00      -38.497      -60.493       -8.540       22.215       23.781       12.649      493.511      565.525      160.001        0.322        0.061       71.703        9.069        0.016      342.288       17.591      857.179
09/15/2013  04:37:00       11.187      -41.167        7.725       34.137       14.282       22.767     1165.316      203.989      518.357        0.188        0.094       42.660        6.971        0.027      342.412       17.804      857.194
09/15/2013  04:38:00      -66.424      -53.980       -4.614       17.102       20.541       13.376      292.474      421.943      178.905        0.412        0.045       85.592       10.900        0.016      342.375       17.740      857.200
09/15/2013  04:39:00      -82.233      -61.813       -7.913       37.169       24.365       18.418     1381.560      593.638      339.218        0.648        0.116      102.875       17.777        0.030      342.370       17.731      857.211
09/15/2013  04:40:00      -70.856      -71.315       -3.149       27.283       21.210       18.625      744.357      449.858      346.876        0.583        0.077      100.531       16.537        0.027      342.368       17.726      857.222
09/15/2013  04:41:00      -53.852      -51.717       -3.159       22.331       14.256       13.302      498.656      203.232      176.952        0.323        0.044       74.664       13.147        0.031      342.439       17.851      857.231
09/15/2013  04:42:00      -32.120      -62.096       -8.102       15.106       20.382        8.474      228.193      415.407       71.811        0.283        0.036       69.912        4.449        0.004      342.537       18.018      857.248
09/15/2013  04:43:00      -16.109      -25.040       16.295       40.588       41.089       25.266     1647.372     1688.301      638.387        0.256        0.199       29.774       25.421        0.729      342.511       17.971      857.268
09/15/2013  04:44:00      -67.430      -62.609       -6.811       43.309       41.804       26.585     1875.689     1747.573      706.784        0.642        0.217       92.014       25.254        0.075      342.502       17.956      857.270
09/15/2013  04:45:00      -14.398      -42.350        0.107       25.879       33.805       18.753      669.703     1142.776      351.669        0.208        0.108       44.731       15.313        0.117      342.518       17.984      857.259
09/15/2013  04:46:00       -9.117      -22.562        8.643       16.171       21.677       15.693      261.515      469.907      246.283        0.082        0.049       24.335       12.371        0.258      342.510       17.969      857.252
09/15/2013  04:47:00      -70.056      -58.390       -2.312       48.883       40.083       22.813     2389.531     1606.608      520.450        0.642        0.226       91.199       20.564        0.051      342.455       17.876      857.257
09/15/2013  04:48:00      -94.557      -59.945        2.006       44.536       31.897       23.212     1983.442     1017.440      538.784        0.804        0.177      111.958       17.582        0.025      342.383       17.754      857.249
09/15/2013  04:49:00      -95.316      -69.095       -6.924       33.952       40.489       17.967     1152.743     1639.341      322.811        0.851        0.156      117.725       16.604        0.020      342.364       17.721      857.240
09/15/2013  04:50:00      -55.028      -45.107       -2.316       35.683       23.795       14.975     1273.278      566.188      224.261        0.357        0.103       71.153       14.957        0.044      342.343       17.685      857.234
09/15/2013  04:51:00      -58.269      -46.987       -3.972       24.554       15.778        9.090      602.898      248.956       82.631        0.328        0.047       74.854        4.938        0.004      342.377       17.743      857.235
09/15/2013  04:52:00      -58.844      -56.728        1.159       45.218       36.857       22.866     2044.713     1358.447      522.855        0.530        0.196       81.735       22.747        0.077      342.360       17.714      857.231
09/15/2013  04:53:00     -100.057      -67.471        2.174       40.900       41.739       23.666     1672.782     1742.138      560.102        0.927        0.199      120.680       22.512        0.035      342.342       17.685      857.223
09/15/2013  04:54:00     -119.490      -60.252       -8.262       36.083       31.837       22.168     1301.993     1013.621      491.437        1.039        0.140      133.821       19.822        0.022      342.331       17.666      857.216
09/15/2013  04:55:00     -103.854      -83.334       -8.459       35.610       41.598       22.746     1268.064     1730.392      517.391        1.066        0.176      133.155       16.815        0.016      342.344       17.687      857.216
09/15/2013  04:56:00     -112.338      -23.110       -0.002       27.254       31.463       15.549      742.778      989.913      241.779        0.756        0.099      114.690       13.657        0.014      342.339       17.678      857.214
09/15/2013  04:57:00     -133.809      -28.342       -4.978       27.375       20.390       16.230      749.386      415.758      263.412        1.008        0.071      136.778       16.267        0.014      342.249       17.526      857.211
09/15/2013  04:58:00      -96.570      -29.138       -0.023       28.694       39.526       18.615      823.340     1562.325      346.527        0.645        0.137      100.870       10.645        0.011      342.217       17.473      857.214
09/15/2013  04:59:00     -108.760      -23.797      -10.244       33.678       20.401       15.521     1134.219      416.217      240.909        0.715        0.090      111.333       14.568        0.017      342.208       17.456      857.207
09/15/2013  05:00:00     -111.500      -22.045      -12.251       24.630       19.401       13.341      606.616      376.414      177.983        0.711        0.058      113.658        9.580        0.007      342.190       17.426      857.204
09/15/2013  05:01:00     -120.384      -36.239      -10.622       24.464       20.713       13.274      598.506      429.020      176.193        0.856        0.060      125.720       13.750        0.012      342.207       17.456      857.213
09/15/2013  05:02:00     -151.133      -36.198       -9.624       13.860       19.095       14.071      192.097      364.615      198.004        1.250        0.038      155.407        9.105        0.003      342.182       17.413      857.224
09/15/2013  05:03:00     -130.940      -51.744       -8.716       39.489       23.820       18.100     1559.356      567.379      327.609        1.118        0.123      140.794       11.694        0.007      342.179       17.408      857.240
09/15/2013  05:04:00     -104.697      -37.476       -3.347       28.408       23.564       18.683      807.011      555.247      349.069        0.704        0.086      111.202       13.975        0.016      342.154       17.365      857.251
09/15/2013  05:05:00      -29.456      -24.468        5.265       49.414       16.702       20.233     2441.792      278.942      409.358        0.231        0.157       38.293       18.760        0.240      342.090       17.255      857.259
09/15/2013  05:06:00       -8.236      -29.456        5.562       24.498       22.970       21.876      600.135      527.611      478.540        0.129        0.080       30.585       14.144        0.214      342.036       17.164      857.259
09/15/2013  05:07:00       16.362      -24.055       13.080       22.001       19.303       19.486      484.047      372.619      379.722        0.113        0.062       29.092       13.905        0.228      341.975       17.060      857.271
09/15/2013  05:08:00      -57.066      -31.256       -1.246       19.863       17.794       12.314      394.552      316.644      151.627        0.255        0.043       65.065        9.216        0.020      342.248       17.524      857.287
09/15/2013  05:09:00      -90.699      -26.324      -10.015       13.806       14.201        8.979      190.601      201.668       80.626        0.475        0.024       94.442        7.969        0.007      342.228       17.491      857.293
09/15/2013  05:10:00      -75.219       -3.949       -9.899       12.149        7.979        9.254      147.598       63.664       85.635        0.303        0.015       75.323        5.533        0.005      342.171       17.393      857.285
09/15/2013  05:11:00      -74.134      -27.912       -4.269       18.415       13.668        9.452      339.108      186.806       89.333        0.345        0.031       79.215        8.838        0.012      342.232       17.498      857.275
09/15/2013  05:12:00      -62.547      -37.511       -2.312       30.150       15.283       13.344      909.046      233.580      178.054        0.332        0.066       72.933       14.182        0.038      342.277       17.575      857.258
09/15/2013  05:13:00      -64.602      -15.031      -14.140       12.515       13.511       11.053      156.617      182.534      122.170        0.253        0.023       66.327        8.253        0.015      342.263       17.551      857.245
09/15/2013  05:14:00      -58.788      -33.118      -16.768        8.473        9.550        8.731       71.791       91.199       76.222        0.254        0.012       67.474        3.458        0.003      342.263       17.550      857.247
09/15/2013  05:15:00      -63.034      -39.548       -1.240       16.768       12.144       11.505      281.153      147.478      132.355        0.305        0.028       74.413       10.929        0.022      342.236       17.504      857.250
09/15/2013  05:16:00      -77.235      -31.135       -6.686       12.814       11.757        8.378      164.203      138.221       70.186        0.368        0.019       83.275        3.664        0.002      342.221       17.479      857.254
09/15/2013  05:17:00      -86.301      -31.450       -4.922       15.136       14.982        8.104      229.092      224.464       65.683        0.449        0.026       91.853        8.581        0.009      342.181       17.411      857.254
09/15/2013  05:18:00     -104.860      -30.855       -9.217        8.594        9.357        5.876       73.861       87.556       34.530        0.611        0.010      109.306        2.207        0.000      342.109       17.290      857.258
09/15/2013  05:19:00      -98.467      -33.759       -6.254       18.378       13.420       14.003      337.733      180.096      196.082        0.579        0.036      104.093        8.761        0.007      342.079       17.236      857.274
09/15/2013  05:20:00      -80.982      -40.655       -5.048       23.636       20.931       16.766      558.676      438.090      281.083        0.476        0.064       90.614       10.449        0.013      342.100       17.274      857.292
09/15/2013  05:21:00      -51.260      -29.858       -2.784       29.029       20.410       16.557      842.700      416.552      274.120        0.253        0.077       59.322       11.609        0.038      342.092       17.259      857.291
09/15/2013  05:22:00      -46.697      -36.777        2.602       16.960       18.832       13.034      287.654      354.630      169.877        0.218        0.041       59.440        8.268        0.019      342.115       17.298      857.281
09/15/2013  05:23:00      -59.436      -35.692       -5.546       19.576       18.222       12.337      383.230      332.033      152.213        0.285        0.043       69.329       10.423        0.023      342.177       17.405      857.271
09/15/2013  05:24:00      -88.345      -31.263       -4.734       17.070       17.249       10.225      291.391      297.511      104.556        0.475        0.035       93.714        9.210        0.010      342.156       17.369      857.276
09/15/2013  05:25:00     -105.082      -51.252       -8.953       16.714       14.472       14.378      279.347      209.448      206.722        0.722        0.035      116.914        4.159        0.001      342.089       17.255      857.287
09/15/2013  05:26:00      -35.268      -38.511        6.213       26.143       24.589       17.195      683.435      604.600      295.667        0.217        0.079       52.220       13.816        0.070      342.090       17.256      857.301
09/15/2013  05:27:00      -49.701      -36.904        6.676       38.463       32.529       20.401     1479.414     1058.111      416.195        0.341        0.148       61.904       24.385        0.155      342.095       17.263      857.332
09/15/2013  05:28:00      -66.818      -53.670       -0.273       32.435       36.854       21.728     1052.005     1358.223      472.108        0.511        0.144       85.704       21.330        0.062      342.071       17.224      857.348
09/15/2013  05:29:00      -70.576      -62.666       -1.078       31.516       41.956       22.031      993.280     1760.303      485.378        0.607        0.162       94.382       17.017        0.033      342.178       17.406      857.347
09/15/2013  05:30:00      -66.050      -32.485      -11.736       18.999       18.638       13.571      360.945      347.388      184.180        0.322        0.045       73.606        4.165        0.003      342.236       17.504      857.343
09/15/2013  05:31:00      -56.691      -44.352       -0.997       19.361       19.467       13.443      374.844      378.959      180.720        0.306        0.047       71.979        7.138        0.010      342.202       17.447      857.331
09/15/2013  05:32:00      -46.452      -27.964       -8.855       23.879       18.377        8.641      570.187      337.713       74.667        0.200        0.049       54.220        6.544        0.015      342.268       17.559      857.320
09/15/2013  05:33:00      -62.534      -45.388       -6.802       11.091       16.961       10.658      123.010      287.680      113.590        0.327        0.026       77.269        4.533        0.003      342.321       17.649      857.316
09/15/2013  05:34:00      -82.052      -33.248       -5.166       12.810       14.960        8.501      164.104      223.806       72.270        0.416        0.023       88.533        4.733        0.003      342.304       17.620      857.308
09/15/2013  05:35:00      -77.264      -22.242       -3.755       13.042       10.951        7.461      170.084      119.933       55.670        0.341        0.017       80.402        3.982        0.002      342.288       17.592      857.308
09/15/2013  05:36:00      -60.069      -13.683       -1.141       11.013       12.079       11.678      121.284      145.894      136.373        0.210        0.020       61.608        6.412        0.011      342.266       17.556      857.314
09/15/2013  05:37:00      -63.362      -23.239       -0.028       12.677       15.806       10.431      160.716      249.835      108.803        0.254        0.026       67.489        7.890        0.014      342.254       17.535      857.320
09/15/2013  05:38:00      -39.170      -20.418        3.678       23.644       15.020       13.022      559.061      225.612      169.572        0.146        0.048       44.172       12.697        0.083      342.169       17.390      857.326
09/15/2013  05:39:00      -67.535      -25.901        1.836       23.051       15.794       13.326      531.335      249.458      177.573        0.310        0.048       72.331       10.310        0.020      342.140       17.341      857.332
09/15/2013  05:40:00      -49.086      -22.868       -2.782       21.965       16.159       12.338      482.466      261.106      152.237        0.192        0.045       54.152        8.734        0.026      342.112       17.294      857.338
09/15/2013  05:41:00      -54.899      -28.014       -4.659       16.212       13.439        9.220      262.839      180.599       85.017        0.217        0.026       61.633        8.340        0.018      342.174       17.400      857.329
09/15/2013  05:42:00      -77.336      -21.776       -3.819        9.134        8.153        7.252       83.432       66.479       52.598        0.334        0.010       80.343        5.254        0.004      342.154       17.367      857.318
09/15/2013  05:43:00      -76.656      -17.542       -5.968       16.010       14.140       13.365      256.305      199.940      178.635        0.343        0.032       78.637       11.477        0.021      342.150       17.358      857.305
09/15/2013  05:44:00      -62.307      -16.145       -2.514       16.474       12.212        9.689      271.381      149.140       93.877        0.233        0.026       64.365        8.111        0.016      342.127       17.320      857.303
09/15/2013  05:45:00      -31.438      -11.023      -10.482       16.859        8.821        9.313      284.215       77.816       86.735        0.083        0.022       33.315        6.142        0.034      342.111       17.295      857.300
09/15/2013  05:46:00       -5.458       -8.678       -0.518        7.972        8.152        9.668       63.558       66.451       93.465        0.016        0.011       10.252        3.283        0.103      342.006       17.115      857.303
09/15/2013  05:47:00      -39.009      -22.968       -6.182       18.133       13.153        7.425      328.791      172.996       55.137        0.132        0.028       45.268        6.278        0.019      342.148       17.354      857.313
09/15/2013  05:48:00      -53.441      -24.368       -2.843       24.359       12.376        9.582      593.341      153.173       91.808        0.215        0.042       58.734        9.012        0.024      342.203       17.449      857.323
09/15/2013  05:49:00      -88.759      -20.179       -9.821       12.282       12.969        8.949      150.853      168.190       80.085        0.439        0.020       91.024        4.140        0.002      342.138       17.339      857.333
09/15/2013  05:50:00      -85.859      -24.756       -8.213       12.140        8.475        7.098      147.377       71.819       50.388        0.416        0.013       89.357        3.759        0.002      342.099       17.270      857.335
09/15/2013  05:51:00      -47.660      -16.996       -6.088       15.628        8.407        6.578      244.249       70.676       43.272        0.148        0.018       50.600        4.479        0.008      342.033       17.159      857.344
09/15/2013  05:52:00      -20.785      -15.624       -2.345       12.778        5.785        4.463      163.288       33.461       19.921        0.045        0.011       26.003        3.910        0.023      342.064       17.212      857.352
09/15/2013  05:53:00       18.667      -38.719        4.412        7.265       10.730       12.532       52.778      115.123      157.050        0.110        0.016       42.984        4.515        0.011      342.070       17.223      857.365
09/15/2013  05:54:00       22.927      -23.697       -9.621       18.108       17.902       13.543      327.909      320.470      183.422        0.101        0.042       32.973       11.828        0.129      341.987       17.082      857.367
09/15/2013  05:55:00       14.140      -17.615        1.636       10.689        9.313        8.874      114.260       86.733       78.744        0.040        0.014       22.588        3.333        0.022      341.978       17.066      857.368
09/15/2013  05:56:00        5.855       10.590      -11.664        9.275       12.795       11.562       86.031      163.706      133.673        0.033        0.019       12.101       10.457        0.747      341.970       17.053      857.362
09/15/2013  05:57:00      -26.139        7.677        0.980       19.231        9.576        8.985      369.821       91.691       80.733        0.064        0.027       27.243       11.770        0.187      341.978       17.068      857.341
09/15/2013  05:58:00      -88.869       16.554       -7.385       14.012        8.495        5.452      196.347       72.170       29.722        0.426        0.015       90.398        2.322        0.001      341.917       16.961      857.313
09/15/2013  05:59:00      -79.654       16.015      -11.394       12.993       11.218        7.452      168.815      125.839       55.538        0.354        0.018       81.248        3.736        0.002      341.900       16.931      857.293
09/15/2013  06:00:00      -51.963        5.068       -5.916       18.899       10.715        9.104      357.162      114.818       82.884        0.166        0.028       52.210        9.367        0.032      341.812       16.784      857.287
09/15/2013  06:01:00      -60.589      -11.736       -6.640       18.718       11.878       13.971      350.374      141.081      195.191        0.227        0.034       61.715       12.893        0.044      341.758       16.694      857.288
09/15/2013  06:02:00      -50.371      -11.962       -7.658       10.664       12.632        8.068      113.713      159.573       65.092        0.154        0.017       51.772        6.403        0.015      341.785       16.738      857.302
09/15/2013  06:03:00      -53.466      -16.723       -6.409       13.817       11.626        7.837      190.917      135.165       61.416        0.178        0.019       56.020        7.242        0.017      341.762       16.700      857.303
09/15/2013  06:04:00      -62.539      -22.042       -5.372       15.927       19.548        8.940      253.684      382.124       79.923        0.257        0.036       66.310        4.002        0.004      341.734       16.652      857.302
09/15/2013  06:05:00      -40.488        1.773       -8.455       15.215       14.118       11.337      231.488      199.316      128.520        0.114        0.028       40.527        9.268        0.052      341.706       16.605      857.299
09/15/2013  06:06:00       18.441       20.161       -0.764       27.604       12.861       13.780      762.002      165.405      189.900        0.093        0.056       27.323       17.696        0.419      341.957       17.031      857.295
09/15/2013  06:07:00        4.449       22.158       18.692       18.275       19.038       12.399      333.978      362.459      153.730        0.085        0.043       22.600       10.585        0.219      341.921       16.969      857.298
09/15/2013  06:08:00       18.442       46.417        4.358       13.673       14.247       16.315      186.944      202.976      266.187        0.158        0.033       49.947        9.580        0.037      341.919       16.967      857.286
09/15/2013  06:09:00        4.071       20.951        0.182       25.492       13.158        8.525      649.867      173.138       72.679        0.068        0.045       21.343        7.032        0.109      341.928       16.981      857.272
09/15/2013  06:10:00      -19.382      -22.776       -1.055       17.594        8.704       10.085      309.544       75.764      101.715        0.069        0.024       29.907        7.828        0.069      341.792       16.750      857.269
09/15/2013  06:11:00       13.291      -25.550       -7.734       21.837       15.112       10.938      476.859      228.372      119.650        0.086        0.041       28.800        4.554        0.025      341.779       16.731      857.277
09/15/2013  06:12:00       14.129      -33.285       -5.154       14.986       14.839       11.676      224.592      220.192      136.327        0.096        0.029       36.159        7.936        0.048      341.783       16.735      857.282
09/15/2013  06:13:00      -57.387      -25.810       -8.424       28.007       10.649       10.372      784.365      113.399      107.585        0.252        0.050       62.924        7.174        0.013      341.809       16.781      857.277
09/15/2013  06:14:00      -95.253      -10.190      -10.905       19.765       17.379       13.784      390.637      302.039      189.992        0.509        0.044       95.797        8.239        0.007      341.712       16.614      857.264
09/15/2013  06:15:00     -104.399      -20.012       -8.431       15.578       12.425        8.148      242.685      154.384       66.395        0.592        0.023      106.299        7.375        0.005      341.692       16.580      857.262
09/15/2013  06:16:00      -93.126      -21.827       -5.245       19.382       14.052        9.371      375.652      197.465       87.816        0.492        0.033       95.650        6.163        0.004      341.639       16.492      857.268
09/15/2013  06:17:00      -99.781      -39.184        0.670       34.583       24.541       13.214     1195.984      602.243      174.604        0.673        0.099      107.199        5.754        0.003      341.632       16.478      857.289
09/15/2013  06:18:00      -84.989      -44.714       -0.834       36.960       25.347       21.879     1366.023      642.476      478.676        0.585        0.124       96.034       17.867        0.035      341.650       16.511      857.314
09/15/2013  06:19:00      -90.192      -36.239       -3.295       25.974       21.558       16.163      674.665      464.748      261.231        0.543        0.070       97.200       11.541        0.014      341.680       16.560      857.325
09/15/2013  06:20:00      -86.665      -36.095       -3.810       26.049       22.543       16.503      678.557      508.201      272.336        0.514        0.073       93.881       11.998        0.016      341.736       16.655      857.318
09/15/2013  06:21:00      -93.860      -45.795       -2.888       19.969       19.757       16.197      398.761      390.324      262.332        0.598        0.053      104.436       11.198        0.011      341.717       16.624      857.307
09/15/2013  06:22:00      -64.900      -13.462        0.489       27.995       23.277       12.967      783.700      541.806      168.136        0.294        0.075       66.281        9.021        0.019      341.682       16.565      857.297
09/15/2013  06:23:00      -78.596       -6.435       -8.306       32.879       14.231       12.507     1081.015      202.509      156.425        0.386        0.072       78.859       14.515        0.034      341.565       16.365      857.288
09/15/2013  06:24:00      -75.475      -14.709       -8.290       17.493       15.239       10.624      305.999      232.218      112.878        0.332        0.033       76.895        8.298        0.012      341.556       16.351      857.273
09/15/2013  06:25:00      -34.351       -2.574       -5.745       18.791       11.182        9.189      353.088      125.048       84.436        0.089        0.028       34.448       10.442        0.092      341.549       16.338      857.254
09/15/2013  06:26:00      -15.240      -10.408       -2.715        9.746       15.667       11.724       94.978      245.449      137.450        0.041        0.024       18.454        5.346        0.084      341.546       16.333      857.245
09/15/2013  06:27:00      -13.070      -11.508        2.347       17.735       15.083       11.307      314.535      227.499      127.856        0.049        0.033       17.414        6.707        0.148      341.626       16.471      857.250
09/15/2013  06:28:00      -33.779      -12.118       -3.821       22.716       17.186       16.505      516.023      295.343      272.406        0.119        0.054       35.887       11.281        0.099      341.600       16.425      857.255
09/15/2013  06:29:00      -46.260      -15.138       -0.207       28.315       16.056       15.937      801.726      257.807      253.983        0.184        0.066       48.674       16.597        0.116      341.460       16.188      857.290
09/15/2013  06:30:00      -15.673       -8.292       -1.971       13.736       11.061        8.222      188.687      122.342       67.607        0.035        0.019       17.731        5.177        0.085      341.442       16.156      857.306
09/15/2013  06:31:00      -17.258        3.216        2.813        8.301        6.130        5.257       68.906       37.571       27.633        0.023        0.007       17.555        4.202        0.057      341.469       16.202      857.297
09/15/2013  06:32:00      -22.794       10.785        0.787       10.346        7.725        6.753      107.038       59.679       45.606        0.042        0.011       25.217        6.088        0.058      341.520       16.288      857.280
09/15/2013  06:33:00      -55.882        9.414      -10.161       10.377        5.837        5.902      107.691       34.074       34.829        0.175        0.009       56.669        4.284        0.006      341.527       16.300      857.267
09/15/2013  06:34:00      -51.456        8.450       -9.267        9.719        7.911        7.548       94.450       62.590       56.974        0.151        0.011       52.145        2.966        0.003      341.569       16.373      857.281
09/15/2013  06:35:00      -41.777       13.597       -8.635        9.916        8.554        4.475       98.333       73.170       20.023        0.110        0.010       43.934        3.491        0.006      341.549       16.338      857.288
09/15/2013  06:36:00      -24.335       -6.427       -7.879        6.482        8.508        3.955       42.014       72.390       15.646        0.041        0.007       25.169        4.423        0.031      341.589       16.404      857.291
09/15/2013  06:37:00      -26.535      -18.938       -3.137       14.540       10.425        8.207      211.409      108.686       67.362        0.073        0.019       32.600        2.037        0.004      341.588       16.404      857.299
09/15/2013  06:38:00      -23.240      -16.133       -1.390       19.692       10.905        9.381      387.786      118.925       88.003        0.070        0.030       28.291        8.413        0.088      341.495       16.248      857.317
09/15/2013  06:39:00      -42.684      -27.808       -7.428       25.302       17.772       12.834      640.189      315.836      164.704        0.189        0.056       50.943       10.464        0.042      341.508       16.268      857.332
09/15/2013  06:40:00      -81.114      -16.417       -8.282        8.976       16.196       11.437       80.563      262.300      130.801        0.370        0.024       82.759        8.531        0.011      341.445       16.163      857.344
09/15/2013  06:41:00      -76.617      -12.775       -6.169       15.434       15.059       13.737      238.208      226.787      188.708        0.336        0.033       77.675       11.509        0.022      341.384       16.060      857.338
09/15/2013  06:42:00      -74.900      -10.129       -8.533       14.415       17.811       12.874      207.795      317.246      165.743        0.324        0.035       75.582        9.632        0.016      341.287       15.895      857.331
09/15/2013  06:43:00      -88.631       -9.363      -16.671       15.103       10.396        7.643      228.098      108.085       58.411        0.431        0.020       89.124        5.554        0.004      341.243       15.821      857.331
09/15/2013  06:44:00      -50.509      -26.154       -5.686       21.529       15.635       15.233      463.506      244.446      232.034        0.210        0.047       56.878       12.680        0.050      341.157       15.676      857.338
09/15/2013  06:45:00      -85.664      -38.173      -10.127       29.980       18.119       17.958      898.781      328.298      322.498        0.522        0.077       93.784       12.866        0.019      341.220       15.782      857.357
09/15/2013  06:46:00      -79.796      -47.325      -11.954       33.533       18.957       19.029     1124.459      359.356      362.113        0.530        0.092       92.774       15.023        0.026      341.210       15.764      857.370
09/15/2013  06:47:00      -72.969      -47.182       -4.917       23.570       14.947       14.811      555.559      223.421      219.354        0.429        0.050       86.894       11.082        0.016      341.236       15.809      857.379
09/15/2013  06:48:00      -54.689      -32.346       -1.506       19.648       16.513       12.404      386.062      272.694      153.860        0.243        0.041       63.539       10.767        0.029      341.300       15.917      857.377
09/15/2013  06:49:00      -55.307      -21.909       -6.166       12.608       10.182        9.269      158.974      103.681       85.916        0.196        0.017       59.488        5.430        0.008      341.387       16.064      857.369
09/15/2013  06:50:00      -35.461       -4.927       -4.479       12.269        6.676        6.528      150.528       44.570       42.615        0.077        0.012       35.802        5.596        0.024      341.442       16.155      857.359
09/15/2013  06:51:00      -25.091       -6.285       -4.360       10.292        7.251        5.876      105.932       52.578       34.524        0.044        0.010       25.866        6.609        0.065      341.582       16.395      857.364
09/15/2013  06:52:00      -18.827       -6.000        0.174       10.526        9.365        9.715      110.798       87.696       94.377        0.034        0.015       19.759        7.114        0.130      341.529       16.306      857.383
09/15/2013  06:53:00      -63.560      -16.826       -3.729       19.473       10.379        6.546      379.213      107.731       42.847        0.243        0.026       65.749        6.189        0.009      341.519       16.287      857.388
09/15/2013  06:54:00      -66.545      -33.707       -5.148       26.322       18.953       12.749      692.870      359.234      162.539        0.340        0.061       74.595       10.840        0.021      341.461       16.188      857.396
09/15/2013  06:55:00      -81.216      -44.925       -5.390       24.681       20.533       17.258      609.168      421.599      297.848        0.499        0.066       92.813       14.769        0.025      341.462       16.191      857.416
09/15/2013  06:56:00      -91.251      -66.599       -3.798       38.253       25.335       20.642     1463.302      641.847      426.082        0.765        0.127      112.970       12.783        0.013      341.401       16.087      857.429
09/15/2013  06:57:00     -103.657      -88.959       -6.343       28.572       37.595       18.083      816.372     1413.366      326.982        1.063        0.128      136.596        8.192        0.004      341.359       16.016      857.437
09/15/2013  06:58:00      -97.006      -70.353       -2.042       30.023       36.643       24.278      901.379     1342.681      589.409        0.860        0.142      119.832       18.507        0.024      341.354       16.008      857.445
09/15/2013  06:59:00      -73.872      -60.883       -4.006       47.169       34.140       28.405     2224.901     1165.542      806.864        0.669        0.210       95.728       29.980        0.098      341.338       15.981      857.461
09/15/2013  07:00:00     -111.468      -88.806       -3.378       31.103       31.400       17.853      967.410      985.952      318.737        1.130        0.114      142.519       16.624        0.014      341.347       15.997      857.463
09/15/2013  07:01:00     -140.283      -67.541       -4.984       26.082       18.811       14.062      680.277      353.866      197.733        1.275        0.062      155.696        6.402        0.002      341.342       15.989      857.465
09/15/2013  07:02:00     -136.908      -32.471       -7.178       34.416       23.709       17.119     1184.475      562.105      293.044        1.094        0.102      140.706       11.677        0.007      341.349       16.000      857.458
09/15/2013  07:03:00      -96.951      -51.569        4.806       50.652       44.441       25.626     2565.643     1974.959      656.676        0.864        0.260      109.813       23.106        0.044      341.387       16.064      857.459
09/15/2013  07:04:00      -99.514      -55.563        1.295       32.309       35.996       18.914     1043.869     1295.697      357.723        0.784        0.135      113.975       18.234        0.026      341.435       16.145      857.465
09/15/2013  07:05:00      -86.503      -48.844        1.540       22.362       34.267       16.462      500.056     1174.255      270.990        0.591        0.097       99.340       16.048        0.026      341.425       16.128      857.465
09/15/2013  07:06:00      -87.369      -22.012       -1.950       27.756       20.043       16.855      770.408      401.705      284.093        0.479        0.073       90.099       15.280        0.029      341.452       16.174      857.465
09/15/2013  07:07:00      -99.580      -35.618       -0.373       23.392       26.933       14.527      547.209      725.406      211.044        0.633        0.074      105.759       12.567        0.014      341.461       16.190      857.468
09/15/2013  07:08:00      -96.552      -67.226       -3.885       29.386       26.304       20.205      863.562      691.908      408.232        0.791        0.098      117.650       14.835        0.016      341.463       16.192      857.487
09/15/2013  07:09:00      -93.972      -52.226       -3.044       46.390       25.617       19.541     2152.030      656.206      381.840        0.738        0.160      107.510       16.222        0.023      341.425       16.129      857.511
09/15/2013  07:10:00     -106.493      -46.268       -2.709       29.775       21.716       13.919      886.557      471.579      193.734        0.752        0.078      116.110       12.502        0.012      341.458       16.184      857.528
09/15/2013  07:11:00      -95.058      -21.660        1.587       33.561       36.417       21.876     1126.323     1326.232      478.551        0.622        0.147       97.494       20.585        0.045      341.444       16.161      857.542
09/15/2013  07:12:00     -109.716      -38.474       -0.766       32.382       36.587       21.721     1048.597     1338.602      471.785        0.819        0.143      116.266       18.255        0.025      341.401       16.088      857.568
09/15/2013  07:13:00     -140.631      -27.072       -8.330       31.970       31.502       17.542     1022.086      992.355      307.716        1.145        0.116      143.213       15.957        0.012      341.434       16.144      857.583
09/15/2013  07:14:00     -131.277      -13.597       -7.321       41.746       30.782       21.763     1742.693      947.555      473.624        1.032        0.158      131.979       19.978        0.023      341.373       16.039      857.584
09/15/2013  07:15:00     -132.289      -19.776       -4.070       52.704       32.946       24.213     2777.677     1085.411      586.281        1.118        0.222      133.759       26.627        0.040      341.411       16.105      857.594
09/15/2013  07:16:00     -153.514      -33.097       -0.816       31.126       33.077       18.839      968.827     1094.113      354.915        1.354        0.121      157.041       19.418        0.015      341.533       16.313      857.609
09/15/2013  07:17:00     -123.465      -31.757       -7.485       30.280       26.999       17.276      916.907      728.935      298.465        0.913        0.097      127.484       15.562        0.015      341.590       16.409      857.628
09/15/2013  07:18:00     -107.239       18.647      -13.795       32.381       14.866       13.373     1048.504      221.000      178.846        0.674        0.072      108.848       10.026        0.008      341.604       16.432      857.623
09/15/2013  07:19:00      -74.142        0.946       -4.155       31.914       20.767       16.015     1018.501      431.259      256.487        0.361        0.085       74.148       15.644        0.045      341.643       16.497      857.611
09/15/2013  07:20:00      -45.614       -5.023       -0.803       31.370       22.200       13.403      984.072      492.822      179.642        0.188        0.083       45.890       15.237        0.110      341.830       16.815      857.596
09/15/2013  07:21:00      -11.062       -9.396        7.668        8.574       12.350        9.061       73.511      152.516       82.104        0.029        0.015       14.514        7.476        0.265      341.947       17.012      857.593
09/15/2013  07:22:00       -8.534      -11.751        4.268       16.177       30.676       11.450      261.687      941.040      131.107        0.078        0.067       14.522        8.987        0.383      341.893       16.921      857.583
09/15/2013  07:23:00        3.578        8.832       -0.708       32.068       13.312       14.423     1028.333      177.198      208.031        0.075        0.071        9.529       11.543        1.467      341.941       17.003      857.578
09/15/2013  07:24:00       13.779        0.442       -9.504       18.533       14.922        8.571      343.465      222.677       73.469        0.046        0.032       13.786        8.049        0.341      341.896       16.926      857.591
09/15/2013  07:25:00      -36.063       -3.022       -9.966       21.322       11.953       11.355      454.647      142.865      128.933        0.107        0.036       36.189       10.627        0.086      341.918       16.964      857.602
09/15/2013  07:26:00      -62.877      -22.231       -9.821       12.590       12.188        7.243      158.518      148.538       52.455        0.245        0.018       66.692        3.525        0.003      341.759       16.695      857.599
09/15/2013  07:27:00      -69.643      -52.777       -0.826       20.424       17.208       14.444      417.145      296.132      208.626        0.428        0.046       87.382        9.603        0.012      341.696       16.588      857.605
09/15/2013  07:28:00      -65.784      -30.835       -1.034       23.726       17.367       10.256      562.900      301.621      105.187        0.312        0.048       72.652        5.350        0.005      341.717       16.623      857.609
09/15/2013  07:29:00      -51.844      -14.732       -1.857       21.304       19.091       12.335      453.857      364.476      152.150        0.194        0.049       53.897       13.206        0.060      341.755       16.689      857.600
09/15/2013  07:30:00      -60.142      -28.491        1.721       24.410       24.552       15.333      595.841      602.785      235.101        0.293        0.072       66.550       11.036        0.028      341.783       16.737      857.598
09/15/2013  07:31:00      -98.678      -30.837       -6.458       27.523       24.546       14.273      757.518      602.484      203.705        0.615        0.078      103.384       14.881        0.021      341.795       16.757      857.607
09/15/2013  07:32:00     -102.767      -15.021       -2.856       28.847       16.719       11.935      832.153      279.534      142.456        0.602        0.063      103.859       14.025        0.018      341.850       16.848      857.606
09/15/2013  07:33:00      -92.291      -27.300        2.527       31.814       22.398       15.665     1012.117      501.673      245.386        0.551        0.088       96.244       17.421        0.033      341.943       17.007      857.630
09/15/2013  07:34:00      -93.302      -31.447       -0.589       27.881       18.922       13.487      777.354      358.036      181.891        0.551        0.066       98.459       15.138        0.024      341.986       17.081      857.640
09/15/2013  07:35:00      -66.190      -30.821        1.142       30.808       17.437       16.228      949.119      304.033      263.336        0.342        0.076       73.014       14.463        0.039      341.984       17.076      857.656
09/15/2013  07:36:00      -39.898      -50.064        0.165       31.158       21.067       17.322      970.808      443.809      300.063        0.291        0.086       64.017       16.801        0.069      341.977       17.065      857.662
09/15/2013  07:37:00      -35.846      -57.226        4.778       42.052       29.843       20.399     1768.367      890.589      416.134        0.383        0.154       67.526       22.323        0.109      341.948       17.016      857.682
09/15/2013  07:38:00     -114.964      -99.400       -4.322       36.246       38.936       25.911     1313.739     1516.006      671.400        1.331        0.175      151.977       27.117        0.032      341.920       16.965      857.697
09/15/2013  07:39:00     -124.897     -109.456      -14.245       45.777       43.421       28.517     2095.491     1885.376      813.222        1.629        0.240      166.071       18.757        0.013      341.885       16.907      857.709
09/15/2013  07:40:00     -140.398     -113.632       -8.416       45.500       51.509       35.379     2070.216     2653.215     1251.701        1.933        0.299      180.621       30.573        0.029      341.828       16.812      857.708
09/15/2013  07:41:00     -112.860      -81.263       -2.536       56.948       41.704       31.733     3243.084     1739.218     1007.013        1.267        0.299      139.072       33.787        0.059      341.860       16.866      857.710
09/15/2013  07:42:00     -129.406      -98.841       -8.663       29.050       29.855       20.814      843.895      891.339      433.225        1.438        0.108      162.836       16.226        0.010      341.906       16.942      857.698
09/15/2013  07:43:00     -124.199      -81.702       -7.543       35.301       25.703       21.267     1246.172      660.648      452.291        1.226        0.118      148.663       15.587        0.011      341.956       17.029      857.705
09/15/2013  07:44:00     -129.098      -43.556       -9.593       22.446       22.772       14.962      503.838      518.562      223.869        0.995        0.062      136.247        9.030        0.004      341.993       17.091      857.719
09/15/2013  07:45:00      -72.318      -42.700        0.148       37.872       24.481       19.504     1434.298      599.341      380.416        0.473        0.121       83.984       19.314        0.053      342.044       17.178      857.745
09/15/2013  07:46:00     -106.766      -31.584       -4.360       42.192       24.896       25.812     1780.123      619.786      666.248        0.774        0.153      111.339       28.858        0.067      342.050       17.188      857.758
09/15/2013  07:47:00      -89.061      -32.857      -13.209       28.166       23.991       13.738      793.316      575.590      188.720        0.537        0.078       94.929        9.206        0.009      342.059       17.205      857.779
09/15/2013  07:48:00     -101.388      -17.464      -13.529       27.342       21.046       14.510      747.594      442.919      210.530        0.608        0.070      102.881       10.289        0.010      342.073       17.227      857.780
09/15/2013  07:49:00      -86.049      -52.609        0.381       33.107       21.441       19.255     1096.057      459.716      370.740        0.605        0.096      100.857       18.056        0.032      342.155       17.366      857.783
09/15/2013  07:50:00      -46.345      -30.553       -5.320       18.064       14.434       10.081      326.294      208.340      101.634        0.187        0.032       55.510        8.440        0.023      342.194       17.433      857.780
09/15/2013  07:51:00       -6.127       -2.178       12.453       10.724       10.565       10.443      115.004      111.617      109.060        0.027        0.017        6.503        3.198        0.242      342.493       17.941      857.773
09/15/2013  07:52:00        4.920       -7.293       11.097       11.538        9.283       10.323      133.116       86.173      106.570        0.026        0.016        8.798        7.829        0.792      342.558       18.052      857.754
09/15/2013  07:53:00      -15.723        0.550       -7.281       11.771       11.319        7.739      138.553      128.128       59.892        0.031        0.016       15.733        7.387        0.220      342.464       17.892      857.743
09/15/2013  07:54:00        5.149       -2.025       12.801       18.015       23.371       25.764      324.531      546.191      663.768        0.086        0.077        5.533       13.722        6.150      342.612       18.143      857.720
09/15/2013  07:55:00       -4.226        1.828       20.501        8.170        9.583        9.966       66.755       91.838       99.328        0.035        0.013        4.604        8.159        3.140      343.042       18.876      857.701
09/15/2013  07:56:00      -14.437       -8.131        5.591       11.771        9.941       10.915      138.568       98.815      119.127        0.033        0.018       16.570        8.816        0.283      342.620       18.157      857.707
09/15/2013  07:57:00       12.732        8.734       22.360       18.980       15.571       11.320      360.256      242.471      128.136        0.073        0.037       15.440        7.290        0.223      343.042       18.876      857.722
09/15/2013  07:58:00       12.806       -7.174       32.365       18.599       30.347       16.429      345.924      920.937      269.905        0.140        0.077       14.679       18.192        1.536      342.837       18.527      857.744
09/15/2013  07:59:00       40.694      -34.217      -14.221       25.573       46.834       21.803      653.988     2193.440      475.382        0.318        0.166       53.167       17.890        0.113      342.407       17.796      857.761
09/15/2013  08:00:00        3.965       29.849        7.670       20.608       23.127       17.978      424.670      534.869      323.210        0.112        0.064       30.111       11.899        0.156      342.715       18.318      857.758
09/15/2013  08:01:00       24.487      -30.974       -9.941       19.512       25.298       23.679      380.729      640.000      560.679        0.162        0.079       39.484       17.207        0.190      342.462       17.888      857.765
09/15/2013  08:02:00        3.246       -8.312       18.923       19.618       44.534       26.980      384.871     1983.319      727.935        0.177        0.155        8.923       23.092        6.698      342.798       18.459      857.773
09/15/2013  08:03:00       -0.616       21.096       35.326       15.300       24.445       19.559      234.099      597.575      382.544        0.145        0.061       21.105       11.926        0.319      343.002       18.808      857.780
09/15/2013  08:04:00        3.431       12.072       28.647       17.925       27.607       18.567      321.295      762.159      344.717        0.120        0.071       12.550        3.934        0.098      343.173       19.099      857.784
09/15/2013  08:05:00       23.570      -37.843       -2.420       20.645       23.854       26.175      426.197      569.009      685.149        0.184        0.084       44.583       16.588        0.138      342.893       18.620      857.781
09/15/2013  08:06:00       16.714      -33.687       15.100       15.775       26.461       13.622      248.858      700.198      185.561        0.139        0.057       37.605       13.684        0.132      342.999       18.803      857.783
09/15/2013  08:07:00      -15.122        3.052       17.005       20.930       23.035       20.494      438.075      530.601      420.023        0.096        0.069       15.427       15.502        1.010      343.132       19.028      857.777
09/15/2013  08:08:00      -47.793      -48.001        1.156       36.795       37.695       20.873     1353.872     1420.897      435.679        0.390        0.161       67.737       11.456        0.029      342.666       18.234      857.769
09/15/2013  08:09:00      -29.323      -56.434        1.733       40.555       27.206       23.687     1644.700      740.156      561.050        0.350        0.147       63.597       15.773        0.062      342.676       18.251      857.759
09/15/2013  08:10:00      -24.264      -20.420        5.850       17.001       16.792       11.169      289.019      281.956      124.741        0.087        0.035       31.713        5.338        0.028      342.733       18.348      857.755
09/15/2013  08:11:00      -51.169      -33.928       -1.354       26.539       30.555       16.672      704.304      933.615      277.971        0.284        0.096       61.395       10.802        0.031      342.665       18.233      857.744
09/15/2013  08:12:00      -47.228      -68.407        2.095       33.328       33.793       17.885     1110.751     1141.960      319.880        0.474        0.129       83.126       19.262        0.054      342.673       18.247      857.737
09/15/2013  08:13:00      -46.758      -48.659      -14.155       29.599       24.170       23.486      876.089      584.180      551.596        0.338        0.101       67.484       13.925        0.043      342.763       18.400      857.742
09/15/2013  08:14:00      -31.481      -17.558        4.095       17.276       19.578       12.679      298.445      383.295      160.766        0.108        0.042       36.046        6.719        0.035      342.769       18.410      857.744
09/15/2013  08:15:00      -30.560        5.093        3.938       18.076       11.986       10.685      326.744      143.668      114.162        0.078        0.029       30.982       10.234        0.109      342.834       18.520      857.742
09/15/2013  08:16:00       -4.910       28.640       28.656       16.868       21.006       25.142      284.522      441.251      632.126        0.151        0.068       29.058       13.421        0.213      343.134       19.031      857.736
09/15/2013  08:17:00        7.710       -6.199       16.264       17.955       28.151       16.541      322.394      792.466      273.615        0.088        0.069        9.893       12.078        1.491      343.282       19.284      857.723
09/15/2013  08:18:00       49.423       28.682       15.288       30.648       17.884       25.937      939.293      319.826      672.741        0.272        0.097       57.143        8.883        0.024      342.944       18.708      857.706
09/15/2013  08:19:00       15.655       -6.616       -2.071       19.635       43.311       15.456      385.538     1875.859      238.891        0.140        0.125       16.996        8.794        0.268      342.732       18.346      857.709
09/15/2013  08:20:00        0.812      -23.675       -5.125       12.776       27.452       16.566      163.215      753.617      274.447        0.089        0.060       23.689        5.010        0.045      342.716       18.321      857.702
09/15/2013  08:21:00        9.708       -0.252       10.797       20.774       28.874       21.044      431.568      833.693      442.854        0.096        0.085        9.711        9.609        0.979      342.940       18.703      857.686
09/15/2013  08:22:00       59.062       50.279       10.404       31.870       22.866       22.433     1015.723      522.867      503.253        0.408        0.102       77.565       12.661        0.027      342.874       18.589      857.671
09/15/2013  08:23:00      128.975       79.867       22.483       40.118       27.636       25.263     1609.486      763.772      638.215        1.326        0.151      151.701       15.470        0.010      342.902       18.636      857.655
09/15/2013  08:24:00      166.859      102.262       58.966       34.463       27.267       33.772     1187.723      743.500     1140.578        2.242        0.154      195.702       21.426        0.012      342.961       18.735      857.646
09/15/2013  08:25:00       86.542       90.707       32.948       57.332       42.036       55.832     3286.902     1766.989     3117.220        1.249        0.409      125.369       18.143        0.021      343.098       18.971      857.638
09/15/2013  08:26:00       10.677       47.148       59.398       33.190       40.752       25.506     1101.599     1660.685      650.544        0.464        0.171       48.342       20.969        0.188      343.260       19.248      857.645
09/15/2013  08:27:00        3.958       21.461       21.721       39.409       26.069       23.576     1553.048      679.574      555.844        0.187        0.139       21.823       11.791        0.292      343.321       19.351      857.659
09/15/2013  08:28:00       32.234       31.252       33.098       33.965       49.149       25.431     1153.636     2415.657      646.720        0.366        0.211       44.897       15.524        0.120      343.264       19.253      857.681
09/15/2013  08:29:00       10.265      -47.412        5.231       22.910       26.074       18.844      524.877      679.859      355.083        0.197        0.078       48.510       13.969        0.083      343.252       19.234      857.682
09/15/2013  08:30:00       48.681        3.143       10.518       56.714       65.595       38.104     3216.506     4302.695     1451.921        0.573        0.449       48.782       45.875        0.884      342.999       18.802      857.665
09/15/2013  08:31:00      150.969      102.224       29.627       35.712       30.882       31.021     1275.367      953.685      962.321        1.865        0.160      182.323       15.158        0.007      343.027       18.848      857.658
09/15/2013  08:32:00       89.575       73.543       41.693       46.026       36.385       34.599     2118.415     1323.874     1197.056        0.990        0.232      115.897       20.823        0.032      343.215       19.169      857.673
09/15/2013  08:33:00       64.719       -2.997        9.548       34.520       75.664       28.324     1191.625     5725.108      802.259        0.600        0.386       64.788       26.926        0.173      343.081       18.941      857.708
09/15/2013  08:34:00       73.524      -91.924      -14.144       53.898       54.506       36.567     2904.995     2970.909     1337.158        1.063        0.361      117.710       28.869        0.060      342.967       18.748      857.748
09/15/2013  08:35:00       27.889      -41.814        6.463       33.808       53.007       35.316     1143.007     2809.790     1247.196        0.388        0.260       50.262       22.002        0.192      343.119       19.005      857.756
09/15/2013  08:36:00       37.000      -54.397        7.352       29.231       49.753       30.261      854.466     2475.322      915.719        0.431        0.212       65.788        7.132        0.012      343.297       19.309      857.763
09/15/2013  08:37:00       34.270       12.864       15.121       36.414       25.366       18.013     1325.994      643.459      324.472        0.193        0.115       36.605       15.816        0.187      343.556       19.750      857.748
09/15/2013  08:38:00       84.094       52.138        9.719       28.075       27.588       27.351      788.213      761.071      748.075        0.609        0.115       98.945       18.904        0.037      343.332       19.367      857.736
09/15/2013  08:39:00       71.242       35.946       19.799       31.387       31.848       27.404      985.137     1014.316      750.960        0.475        0.138       79.797       15.221        0.036      343.492       19.641      857.726
09/15/2013  08:40:00      124.804       66.242       17.794       30.093       33.326       31.185      905.590     1110.641      972.509        1.163        0.149      141.294       13.904        0.010      343.234       19.201      857.731
09/15/2013  08:41:00      104.482       70.726        2.838       31.292       25.094       22.586      979.200      629.688      510.126        0.902        0.106      126.169       14.463        0.013      343.201       19.143      857.739
09/15/2013  08:42:00       83.521       58.112       15.695       24.951       23.973       24.987      622.554      574.712      624.326        0.621        0.091      101.749       16.866        0.027      343.460       19.587      857.744
09/15/2013  08:43:00       51.694       18.730       -1.146       34.666       27.154       20.611     1201.732      737.319      424.827        0.269        0.118       54.983       10.190        0.034      343.484       19.629      857.759
09/15/2013  08:44:00        0.641       10.109       11.528       16.177       21.321       25.000      261.693      454.575      624.986        0.079        0.067       10.129       18.431        3.311      343.753       20.088      857.764
09/15/2013  08:45:00       28.231       36.637       50.777       35.453       40.410       22.650     1256.889     1632.974      513.006        0.406        0.170       46.252       13.556        0.086      343.674       19.953      857.766
09/15/2013  08:46:00       45.592      -10.783       20.088       36.949       56.195       32.763     1365.228     3157.842     1073.384        0.410        0.280       46.849       26.120        0.311      343.250       19.229      857.772
09/15/2013  08:47:00      116.116       80.074       10.483       31.084       31.742       29.112      966.188     1007.543      847.499        1.141        0.141      141.049       16.635        0.014      343.344       19.390      857.785
09/15/2013  08:48:00       96.469       59.725       15.639       28.619       27.224       29.738      819.053      741.122      884.329        0.778        0.122      113.461       17.886        0.025      343.304       19.322      857.790
09/15/2013  08:49:00       75.462       57.593       25.386       31.535       26.560       19.474      994.463      705.415      379.233        0.587        0.104       94.929       15.485        0.027      343.471       19.606      857.788
09/15/2013  08:50:00       68.915       53.704       23.857       34.983       32.819       23.086     1223.811     1077.092      532.971        0.552        0.142       87.370       10.874        0.015      343.467       19.600      857.796
09/15/2013  08:51:00       66.436       52.253       32.967       35.561       37.069       34.806     1264.578     1374.124     1211.458        0.604        0.193       84.523        6.731        0.006      343.600       19.826      857.792
09/15/2013  08:52:00       82.606       62.530       28.248       21.191       19.771       34.419      449.064      390.877     1184.636        0.678        0.101      103.603       17.845        0.030      343.460       19.587      857.788
09/15/2013  08:53:00       54.671       45.456        1.774       30.619       26.690       21.153      937.536      712.342      447.453        0.358        0.105       71.099       17.806        0.063      343.683       19.969      857.785
09/15/2013  08:54:00       36.567       55.331        8.785       33.555       31.630       32.318     1125.969     1000.484     1044.428        0.382        0.159       66.323       22.333        0.113      343.886       20.314      857.784
09/15/2013  08:55:00       25.738        6.885       21.551       28.484       40.500       23.640      811.310     1640.230      558.853        0.209        0.151       26.643        7.167        0.072      343.786       20.144      857.793
09/15/2013  08:56:00        0.788       -4.624       27.210       20.548       24.865       15.500      422.212      618.293      240.238        0.102        0.064        4.690        6.052        1.665      344.137       20.742      857.804
09/15/2013  08:57:00      -12.072        9.962        5.924       17.828       22.418       24.409      317.841      502.563      595.815        0.085        0.071       15.652       16.450        1.105      344.053       20.600      857.806
09/15/2013  08:58:00        2.441        1.900       20.794       15.690       15.761       14.237      246.183      248.407      202.696        0.057        0.035        3.093        7.134        5.320      344.480       21.329      857.800
09/15/2013  08:59:00       -9.353      -49.639        3.061       15.885       33.405       13.818      252.337     1115.870      190.950        0.206        0.078       50.513        7.606        0.023      343.647       19.905      857.803
09/15/2013  09:00:00       38.636     -106.778      -11.989       39.757       32.575       28.722     1580.596     1061.150      824.941        0.825        0.173      113.553       22.612        0.040      343.386       19.460      857.807
09/15/2013  09:01:00       38.751      -86.416       -4.384       45.545       28.635       30.235     2074.361      819.940      914.126        0.640        0.190       94.707       26.269        0.077      343.632       19.879      857.813
09/15/2013  09:02:00       24.947       16.814       24.571       24.220       43.115       22.734      586.626     1858.911      516.835        0.223        0.148       30.084       14.702        0.239      344.310       21.039      857.813
09/15/2013  09:03:00       67.815       41.766       -5.680       17.316       19.609       16.882      299.827      384.521      284.992        0.367        0.048       79.645        7.179        0.008      343.844       20.242      857.809
09/15/2013  09:04:00       70.748       47.747       12.322       13.392       16.217       18.439      179.333      262.979      339.985        0.411        0.039       85.353        9.696        0.013      343.884       20.308      857.805
09/15/2013  09:05:00       49.249       40.633       -9.801       25.118       14.765       16.311      630.901      218.006      266.045        0.264        0.056       63.847        6.907        0.012      343.674       19.953      857.805
09/15/2013  09:06:00       12.528      -34.279       15.029       15.557       32.480       16.648      242.028     1054.955      277.142        0.157        0.079       36.497       16.778        0.211      343.794       20.156      857.805
09/15/2013  09:07:00       12.532      -66.645       -6.189       26.953       25.019       21.716      726.442      625.961      471.576        0.323        0.091       67.813       17.571        0.067      343.420       19.517      857.809
09/15/2013  09:08:00       26.883      -44.850       20.973       36.447       49.476       31.375     1328.380     2447.845      984.401        0.397        0.238       52.290       29.618        0.321      344.321       21.056      857.812
09/15/2013  09:09:00       51.092      -36.267       21.153       36.685       62.462       33.238     1345.763     3901.464     1104.797        0.536        0.318       62.655       37.951        0.367      344.459       21.292      857.817
09/15/2013  09:10:00       25.947       27.347       26.996       28.580       22.215       22.292      816.835      493.519      496.936        0.198        0.090       37.697       17.753        0.222      344.364       21.131      857.831
09/15/2013  09:11:00       43.087       38.058       23.679       45.719       38.121       23.960     2090.244     1453.243      574.062        0.399        0.206       57.489       24.443        0.181      344.586       21.511      857.830
09/15/2013  09:12:00       78.281       63.206        1.550       24.192       25.086       36.429      585.241      629.303     1327.057        0.633        0.127      100.613       18.661        0.034      344.262       20.957      857.830
09/15/2013  09:13:00       80.569       76.641       21.867       33.728       28.441       32.838     1137.581      808.894     1078.352        0.793        0.151      111.198       25.314        0.052      344.166       20.792      857.827
09/15/2013  09:14:00        2.426       42.944       67.869       31.969       50.617       35.355     1022.013     2562.101     1250.003        0.564        0.242       43.012       32.801        0.582      344.536       21.425      857.826
09/15/2013  09:15:00       44.819       43.967       45.221       41.506       33.012       32.294     1722.753     1089.760     1042.934        0.492        0.193       62.784       29.094        0.215      344.530       21.414      857.827
09/15/2013  09:16:00       71.973       32.909       16.864       47.133       34.987       36.705     2221.542     1224.066     1347.232        0.567        0.240       79.140       24.874        0.099      344.658       21.634      857.827
09/15/2013  09:17:00       98.942       66.656        8.576       38.230       36.508       29.126     1461.532     1332.840      848.318        0.897        0.182      119.300       23.345        0.038      344.430       21.243      857.843
09/15/2013  09:18:00       78.063       43.424        9.911       43.847       43.451       26.653     1922.555     1887.974      710.386        0.630        0.226       89.328       19.645        0.048      344.432       21.247      857.859
09/15/2013  09:19:00       89.177       69.514        4.818       31.335       15.988       19.450      981.851      255.624      378.293        0.721        0.081      113.070       14.074        0.015      344.153       20.768      857.874
09/15/2013  09:20:00       72.481       63.161       19.468       26.824       22.982       22.889      719.515      528.172      523.910        0.570        0.089       96.140       16.778        0.030      344.206       20.860      857.871
09/15/2013  09:21:00       12.103       27.259        8.416       21.050       24.104       21.518      443.121      580.989      463.012        0.122        0.074       29.826       14.177        0.226      344.592       21.521      857.867
09/15/2013  09:22:00       -2.490       10.911        9.762       21.411       46.894       17.830      458.434     2199.046      317.902        0.160        0.149       11.191       16.155        2.084      344.603       21.540      857.864
09/15/2013  09:23:00       -5.942       64.578        3.968       12.944       40.439       20.991      167.550     1635.291      440.643        0.323        0.112       64.851       22.367        0.119      344.788       21.856      857.858
09/15/2013  09:24:00      -13.514       89.657        4.916       18.071       31.483       23.655      326.549      991.198      559.577        0.506        0.094       90.669       16.372        0.033      344.764       21.814      857.842
09/15/2013  09:25:00       -2.109       17.192       24.538       21.241       33.492       27.111      451.196     1121.724      734.998        0.160        0.115       17.321       18.684        1.164      345.391       22.888      857.841
09/15/2013  09:26:00       36.590       31.106       20.200       24.940       33.895       20.183      621.997     1148.853      407.340        0.245        0.109       48.025       20.617        0.184      345.072       22.343      857.838
09/15/2013  09:27:00       22.466       34.018       20.006       29.541       39.204       32.507      872.658     1536.952     1056.690        0.276        0.173       40.767       30.475        0.559      345.238       22.626      857.841
09/15/2013  09:28:00       75.220       49.604       16.034       38.469       27.847       27.902     1479.844      775.452      778.532        0.570        0.152       90.103       16.705        0.034      344.792       21.861      857.834
09/15/2013  09:29:00       85.180       46.035        9.214       34.480       26.513       31.943     1188.847      702.935     1020.386        0.619        0.146       96.824       19.438        0.040      344.644       21.609      857.842
09/15/2013  09:30:00       95.847       93.915       30.744       60.747       33.112       45.076     3690.209     1096.436     2031.842        1.288        0.341      134.189       14.446        0.012      344.818       21.907      857.829
09/15/2013  09:31:00       87.309       98.409       81.783       52.399       44.571       34.595     2745.618     1986.555     1196.815        1.496        0.296      131.557       25.883        0.039      344.718       21.735      857.828
09/15/2013  09:32:00       41.763       -7.545       35.544       46.613       74.258       36.341     2172.747     5514.293     1320.690        0.603        0.450       42.439       16.734        0.155      344.603       21.540      857.826
09/15/2013  09:33:00      132.474       91.246       34.548       46.985       30.233       44.987     2207.547      914.046     2023.844        1.611        0.257      160.858       28.782        0.032      344.572       21.483      857.821
09/15/2013  09:34:00      123.531       82.910       -1.286       48.490       35.963       31.773     2351.276     1293.333     1009.538        1.339        0.233      148.775       11.177        0.006      344.661       21.639      857.812
09/15/2013  09:35:00      106.605       59.032       13.738       61.208       47.609       39.429     3746.429     2266.571     1554.668        1.130        0.378      121.858       32.326        0.070      344.920       22.081      857.808
09/15/2013  09:36:00       23.090       35.041       58.317       42.042       41.055       31.389     1767.514     1685.505      985.279        0.480        0.222       41.965       15.411        0.135      345.194       22.551      857.811
09/15/2013  09:37:00        3.325       36.891       61.878       30.529       34.012       24.951      932.042     1156.824      622.554        0.396        0.136       37.040       19.954        0.290      345.442       22.976      857.809
09/15/2013  09:38:00       22.373      -57.472       24.160       38.306       44.202       24.372     1467.320     1953.849      593.984        0.420        0.201       61.673       24.113        0.153      345.184       22.531      857.793
09/15/2013  09:39:00       16.665       12.610       28.166       34.137       40.406       29.605     1165.316     1632.636      876.466        0.245        0.184       20.898       27.392        1.718      345.509       23.090      857.785
09/15/2013  09:40:00       47.618       -3.797       31.032       56.927       68.087       37.111     3240.641     4635.801     1377.206        0.625        0.463       47.769       37.911        0.630      345.252       22.649      857.793
09/15/2013  09:41:00       95.248       67.396       21.877       36.188       32.824       35.480     1309.540     1077.398     1258.854        0.887        0.182      116.681       20.000        0.029      345.079       22.353      857.824
09/15/2013  09:42:00       26.900       27.165       36.880       31.742       47.750       20.504     1007.530     2280.082      420.400        0.326        0.185       38.230       19.875        0.270      345.351       22.819      857.840
09/15/2013  09:43:00       64.605       40.604        7.634       44.645       36.273       28.842     1993.188     1315.705      831.856        0.501        0.207       76.305       18.311        0.058      345.255       22.655      857.831
09/15/2013  09:44:00       26.685      -12.764       32.291       41.590       44.841       39.011     1729.739     2010.673     1521.837        0.359        0.263       29.580       29.059        0.965      345.493       23.065      857.830
09/15/2013  09:45:00      100.331       89.593       62.713       49.484       33.077       36.126     2448.653     1094.100     1305.070        1.344        0.242      134.511       31.542        0.055      345.039       22.285      857.840
09/15/2013  09:46:00       97.364       70.548       22.123       36.816       36.236       34.494     1355.442     1313.022     1189.861        0.940        0.193      120.236       20.012        0.028      344.999       22.217      857.846
09/15/2013  09:47:00       49.653       28.464        3.307       42.481       45.420       25.097     1804.626     2063.008      629.840        0.389        0.225       57.233       20.238        0.125      345.240       22.629      857.850
09/15/2013  09:48:00       63.009      -48.195       13.004       54.914       47.271       37.055     3015.561     2234.557     1373.076        0.654        0.331       79.327       32.135        0.164      345.267       22.677      857.849
09/15/2013  09:49:00       28.000       13.883       56.637       46.103       48.503       41.740     2125.466     2352.513     1742.268        0.520        0.311       31.252       40.066        1.644      345.723       23.459      857.827
09/15/2013  09:50:00       31.569       14.405       58.609       49.834       59.107       40.113     2483.469     3493.654     1609.023        0.611        0.379       34.701       39.400        1.289      345.628       23.294      857.816
09/15/2013  09:51:00       39.267       -2.589       49.081       46.189       43.862       34.808     2133.465     1923.887     1211.628        0.461        0.263       39.352       23.148        0.346      345.478       23.036      857.809
09/15/2013  09:52:00       30.592      -12.438       30.152       39.656       39.171       34.588     1572.592     1534.353     1196.327        0.315        0.215       33.024       26.679        0.653      345.492       23.060      857.814
09/15/2013  09:53:00       -7.342      -28.906       33.970       22.013       45.022       25.031      484.568     2026.976      626.556        0.259        0.157       29.824       16.232        0.296      345.814       23.613      857.837
09/15/2013  09:54:00       30.276       -7.648       31.724       41.334       53.472       32.215     1708.479     2859.303     1037.816        0.379        0.280       31.227       18.370        0.346      345.609       23.261      857.859
09/15/2013  09:55:00       32.910       73.611       71.254       36.760       36.495       26.009     1351.300     1331.869      676.491        0.747        0.168       80.633       15.141        0.035      345.470       23.024      857.868
09/15/2013  09:56:00       72.354       71.872       36.307       28.534       22.440       31.993      814.213      503.545     1023.559        0.703        0.117      101.984       12.827        0.016      345.097       22.384      857.851
09/15/2013  09:57:00       30.148       27.604       22.977       38.387       27.702       27.794     1473.580      767.421      772.507        0.261        0.151       40.876       23.004        0.317      345.728       23.467      857.854
09/15/2013  09:58:00       46.629       57.262        0.702       34.999       23.100       29.949     1224.900      533.614      896.948        0.405        0.133       73.845       19.835        0.072      345.398       22.899      857.867
09/15/2013  09:59:00       24.662        7.697       25.522       32.564       36.809       28.368     1060.408     1354.929      804.761        0.227        0.161       25.835       23.386        0.819      345.820       23.623      857.858
09/15/2013  10:00:00       11.109      -10.267       23.515       31.600       43.835       34.687      998.570     1921.532     1203.179        0.245        0.206       15.127       27.451        3.293      345.936       23.823      857.821
09/15/2013  10:01:00       32.142       69.422       82.024       56.238       39.584       37.649     3162.715     1566.912     1417.445        0.936        0.307       76.502       15.357        0.040      346.192       24.262      857.817
09/15/2013  10:02:00       77.417       92.672       48.362       68.269       45.082       41.783     4660.712     2032.369     1745.839        1.268        0.422      120.754       32.494        0.072      345.841       23.660      857.813
09/15/2013  10:03:00      129.935       98.842       21.499       52.200       39.220       45.706     2724.884     1538.182     2089.011        1.673        0.318      163.257       26.726        0.027      345.635       23.304      857.803
09/15/2013  10:04:00      116.430       84.298       38.205       45.446       48.913       51.071     2065.375     2392.448     2608.208        1.459        0.353      143.743       30.138        0.044      345.701       23.420      857.801
09/15/2013  10:05:00       65.032       76.889       29.565       37.211       31.813       31.244     1384.678     1012.072      976.182        0.719        0.169      100.703       18.568        0.034      345.946       23.839      857.818
09/15/2013  10:06:00       32.186      122.307      112.705       46.016       49.649       34.085     2117.470     2465.037     1161.808        1.722        0.287      126.471       22.647        0.032      346.000       23.932      857.806
09/15/2013  10:07:00       39.091       80.762       80.379       61.736       58.084       51.927     3811.372     3373.770     2696.455        1.219        0.494       89.725       47.181        0.277      345.952       23.851      857.779
09/15/2013  10:08:00       70.618       90.809       93.811       52.048       57.152       46.188     2709.016     3266.405     2133.323        1.507        0.405      115.036       40.712        0.125      345.838       23.654      857.774
09/15/2013  10:09:00      100.166       97.942       64.104       73.679       46.562       49.874     5428.641     2168.058     2487.379        1.691        0.504      140.092       45.895        0.107      346.070       24.053      857.774
09/15/2013  10:10:00      114.495       85.747       46.072       58.511       40.490       55.176     3423.578     1639.440     3044.358        1.534        0.405      143.044       35.156        0.060      346.150       24.190      857.776
09/15/2013  10:11:00       51.589       71.154       52.335       55.630       37.399       47.860     3094.702     1398.661     2290.581        0.862        0.339       87.888       43.222        0.242      346.278       24.411      857.780
09/15/2013  10:12:00       49.083       28.570       51.057       63.995       40.278       38.743     4095.401     1622.328     1500.998        0.652        0.361       56.793       27.171        0.229      346.453       24.711      857.777
09/15/2013  10:13:00       51.538       72.439       73.996       59.633       44.402       34.777     3556.075     1971.575     1209.439        1.006        0.337       88.902       34.981        0.155      346.293       24.437      857.776
09/15/2013  10:14:00      121.494       43.707       36.843       59.023       45.495       47.178     3483.733     2069.813     2225.776        1.290        0.389      129.117       21.601        0.028      345.897       23.755      857.792
09/15/2013  10:15:00       58.358       12.544       12.312       47.506       55.511       24.934     2256.827     3081.440      621.702        0.484        0.298       59.691       24.602        0.170      345.910       23.778      857.790
09/15/2013  10:16:00       20.319      -29.194       11.398       22.255       32.132       26.405      495.275     1032.441      697.222        0.181        0.111       35.570       23.222        0.426      346.210       24.295      857.792
09/15/2013  10:17:00        6.859       26.342       13.449       20.378       23.249       22.160      415.272      540.496      491.056        0.118        0.072       27.221       10.500        0.149      346.395       24.612      857.773
09/15/2013  10:18:00       26.788       34.342       24.962       71.690       33.669       30.648     5139.425     1133.628      939.280        0.486        0.361       43.554       15.949        0.134      346.465       24.731      857.767
09/15/2013  10:19:00       21.275       36.482       15.112       37.560       32.973       31.324     1410.745     1087.230      981.222        0.274        0.174       42.233       17.670        0.175      346.620       24.999      857.775
09/15/2013  10:20:00       72.359       36.383       14.486       44.842       38.771       31.189     2010.837     1503.221      972.772        0.563        0.224       80.991       14.797        0.033      346.482       24.761      857.785
09/15/2013  10:21:00       56.533       43.422       27.327       46.533       46.894       27.572     2165.308     2199.085      760.242        0.548        0.256       71.284       12.282        0.030      346.574       24.919      857.803
09/15/2013  10:22:00       62.403      -27.152       40.755       47.205       67.753       50.267     2228.315     4590.499     2526.728        0.782        0.467       68.054       46.258        0.462      346.551       24.881      857.796
09/15/2013  10:23:00       18.699      -10.841       39.986       33.454       40.037       35.880     1119.201     1602.934     1287.358        0.304        0.200       21.614       17.939        0.689      346.716       25.163      857.794
09/15/2013  10:24:00        9.724      -31.328       26.412       29.402       52.613       35.731      864.505     2768.121     1276.719        0.334        0.245       32.802       38.709        1.393      346.556       24.889      857.781
09/15/2013  10:25:00       27.814      -75.843        0.606       51.192       62.952       44.525     2620.600     3963.010     1982.508        0.754        0.428       80.782       32.177        0.159      346.513       24.814      857.774
09/15/2013  10:26:00       -5.209       11.607       37.481       17.540       27.027       28.908      307.653      730.479      835.682        0.172        0.094       12.722       22.411        3.103      347.335       26.229      857.756
09/15/2013  10:27:00       36.399      -63.314       -3.055       46.166       54.946       30.979     2131.281     3019.053      959.668        0.573        0.306       73.031       22.006        0.091      346.548       24.876      857.760
09/15/2013  10:28:00       -3.094      -52.266      -15.079       23.457       30.687       20.869      550.221      941.665      435.515        0.245        0.096       52.357       13.430        0.066      346.370       24.569      857.749
09/15/2013  10:29:00       31.065       29.545       17.617       34.751       41.179       40.682     1207.626     1695.704     1655.009        0.335        0.228       42.871       30.099        0.493      346.683       25.108      857.755
09/15/2013  10:30:00       60.302       57.539       41.773       48.909       28.090       29.174     2392.079      789.050      851.112        0.636        0.202       83.350       21.540        0.067      346.419       24.653      857.744
09/15/2013  10:31:00       25.515       47.295       49.498       37.750       58.226       30.439     1425.030     3390.267      926.516        0.554        0.287       53.739       23.933        0.198      346.872       25.432      857.733
09/15/2013  10:32:00       15.973      -47.068       14.160       23.770       44.450       23.627      565.025     1975.811      558.221        0.288        0.155       49.704       19.346        0.151      346.496       24.786      857.734
09/15/2013  10:33:00       -1.476      -84.226       -3.327       27.633       29.215       25.316      763.567      853.499      640.906        0.468        0.113       84.239       17.948        0.045      346.634       25.022      857.753
09/15/2013  10:34:00       22.259      -10.429       35.603       27.968       30.280       29.314      782.221      916.865      859.320        0.221        0.128       24.581       23.324        0.900      347.204       26.005      857.759
09/15/2013  10:35:00       24.009      -55.584        9.359       50.321       82.159       44.361     2532.222     6750.019     1967.858        0.750        0.563       60.548       53.184        0.772      346.682       25.105      857.770
09/15/2013  10:36:00      -45.519      -52.817        1.526       67.490       75.524       40.378     4554.892     5703.949     1630.372        0.837        0.594       69.725       37.593        0.291      346.592       24.951      857.782
09/15/2013  10:37:00       31.483       28.978       33.870       52.566       38.255       32.384     2763.198     1463.435     1048.736        0.413        0.264       42.789       24.795        0.336      346.805       25.318      857.753
09/15/2013  10:38:00      -39.842      -19.823       18.049       32.024       36.914       24.458     1025.557     1362.627      598.188        0.265        0.149       44.501       24.038        0.292      346.765       25.247      857.751
09/15/2013  10:39:00      -30.521      -20.613       16.004       17.184       15.795       20.303      295.301      249.480      412.199        0.128        0.048       36.829       11.394        0.096      346.705       25.146      857.741
09/15/2013  10:40:00      -30.372      -42.427        8.888       33.654       33.049       16.859     1132.579     1092.214      284.226        0.265        0.125       52.177       13.158        0.064      346.667       25.079      857.740
09/15/2013  10:41:00        3.951     -101.217       -3.009       75.877       59.758       39.483     5757.390     3571.003     1558.925        1.058        0.544      101.294       33.324        0.108      346.622       25.001      857.735
09/15/2013  10:42:00       18.584     -122.486       -7.585       58.886       49.541       49.053     3467.606     2454.277     2406.221        1.187        0.416      123.887       17.334        0.020      346.710       25.153      857.737
09/15/2013  10:43:00       -2.931     -163.543      -19.211       86.397       65.303       58.749     7464.513     4264.429     3451.470        2.115        0.759      163.569       41.316        0.064      346.511       24.808      857.752
09/15/2013  10:44:00       25.404      -52.843        5.240       52.730       73.992       50.490     2780.502     5474.797     2549.213        0.713        0.540       58.632       52.127        0.790      346.786       25.284      857.746
09/15/2013  10:45:00      -16.759        9.205       13.965       32.114       41.328       35.301     1031.299     1708.005     1246.146        0.227        0.199       19.120       20.951        1.201      347.031       25.707      857.739
09/15/2013  10:46:00      -47.760      -65.276      -10.181       46.058       54.416       37.337     2121.382     2961.132     1394.018        0.656        0.324       80.883       22.091        0.075      346.771       25.257      857.734
09/15/2013  10:47:00      -25.748     -110.026        3.057       46.211       54.171       44.986     2135.472     2934.533     2023.751        0.993        0.355      112.999       20.494        0.033      346.900       25.479      857.730
09/15/2013  10:48:00      -21.069      -38.829       23.962       52.534       68.297       42.386     2759.822     4664.518     1796.556        0.587        0.461       44.177       36.459        0.681      347.107       25.837      857.730
09/15/2013  10:49:00       20.464       73.579       90.957       42.179       49.309       34.819     1779.069     2431.407     1212.361        0.976        0.271       76.371       36.886        0.233      346.838       25.374      857.712
09/15/2013  10:50:00       46.321       18.394       45.607       31.887       47.721       40.218     1016.797     2277.320     1617.526        0.474        0.246       49.840       23.404        0.221      346.616       24.991      857.713
09/15/2013  10:51:00       49.133      -51.969       11.586       39.053       50.826       36.543     1525.115     2583.257     1335.370        0.535        0.272       71.518       33.273        0.216      346.782       25.277      857.718
09/15/2013  10:52:00       26.937       35.979       21.792       40.510       30.279       37.372     1641.045      916.834     1396.691        0.322        0.198       44.945       26.134        0.338      346.890       25.465      857.713
09/15/2013  10:53:00       -1.312        6.564       15.008       34.865       24.105       19.015     1215.556      581.064      361.578        0.121        0.108        6.694       11.229        2.814      347.036       25.714      857.697
09/15/2013  10:54:00       12.203       -8.994       13.682       29.357       30.612       25.578      861.858      937.115      654.216        0.143        0.123       15.159       22.637        2.230      347.317       26.199      857.694
09/15/2013  10:55:00       33.254      -10.328       19.404       31.264       21.467       20.782      977.448      460.852      431.874        0.173        0.094       34.821       16.394        0.222      346.880       25.445      857.684
09/15/2013  10:56:00      -17.021       11.749       35.389       21.866       16.300       16.915      478.141      265.690      286.113        0.135        0.051       20.682       12.430        0.361      347.671       26.810      857.676
09/15/2013  10:57:00      -81.026      -37.143        1.833       46.363       28.232       25.640     2149.489      797.040      657.411        0.578        0.180       89.134       23.694        0.071      346.975       25.610      857.681
09/15/2013  10:58:00      -23.383       -7.376       16.540       62.879       46.699       29.403     3953.762     2180.758      864.541        0.394        0.350       24.519       20.076        0.670      347.038       25.718      857.681
09/15/2013  10:59:00      -66.825      -33.031        7.250       65.181       41.014       34.153     4248.584     1682.164     1166.460        0.635        0.355       74.543       26.326        0.125      347.004       25.660      857.684
09/15/2013  11:00:00      -71.355      -99.822        2.924       44.502       41.064       28.251     1980.463     1686.251      798.142        0.976        0.223      122.703       22.538        0.034      346.862       25.413      857.698
09/15/2013  11:01:00      -26.507      -83.841        3.759       54.955       43.711       30.823     3020.002     1910.608      950.067        0.681        0.294       87.932       28.405        0.104      346.974       25.609      857.713
09/15/2013  11:02:00      -26.438      -31.130        5.645       41.049       37.718       19.932     1685.053     1422.678      397.292        0.260        0.175       40.842       23.922        0.343      347.102       25.829      857.714
09/15/2013  11:03:00      -63.082        5.836      -14.668       29.185       26.645       20.059      851.778      709.937      402.357        0.310        0.098       63.351       10.214        0.026      346.923       25.519      857.714
09/15/2013  11:04:00      -87.040        1.425       -1.293       48.380       44.120       29.723     2340.631     1946.547      883.448        0.637        0.259       87.052       29.933        0.118      346.977       25.614      857.703
09/15/2013  11:05:00      -39.267      -30.136       15.769       44.341       33.624       24.051     1966.138     1130.595      578.474        0.319        0.184       49.499       25.737        0.270      347.015       25.678      857.701
09/15/2013  11:06:00      -31.522        8.139       14.743       29.676       17.088       18.168      880.640      291.989      330.090        0.139        0.075       32.556       17.813        0.299      347.614       26.711      857.664
09/15/2013  11:07:00        2.301       43.243       18.555       34.640       41.288       26.521     1199.902     1704.673      703.353        0.291        0.180       43.304       24.877        0.330      347.823       27.071      857.640
09/15/2013  11:08:00       38.322       25.197       24.070       23.762       26.490       23.695      564.614      701.731      561.432        0.225        0.091       45.863       14.077        0.094      347.901       27.206      857.637
09/15/2013  11:09:00       51.059       36.192       14.263       40.646       21.668       26.258     1652.110      469.511      689.466        0.347        0.141       62.585       17.080        0.074      347.298       26.167      857.645
09/15/2013  11:10:00       49.729       42.749       19.694       36.681       35.486       27.934     1345.525     1259.278      780.281        0.404        0.169       65.577       16.430        0.063      347.412       26.363      857.652
09/15/2013  11:11:00       -7.261        8.610       31.121       29.390       12.944       14.088      863.747      167.539      198.460        0.116        0.061       11.262       10.080        0.801      347.902       27.209      857.665
09/15/2013  11:12:00      -55.982       17.037       15.194       65.888       21.173       25.438     4341.283      448.309      647.090        0.454        0.272       58.517       33.828        0.334      347.759       26.963      857.685
09/15/2013  11:13:00     -233.080       28.113      -24.682       85.435       52.034       33.818     7299.127     2707.580     1143.676        3.344        0.558      234.769       41.953        0.032      347.240       26.061      857.672
09/15/2013  11:14:00     -101.117       81.521       -7.574       72.059       56.027       35.476     5192.483     3139.060     1258.579        1.326        0.480      129.886       26.531        0.042      347.590       26.669      857.660
09/15/2013  11:15:00       -9.927       26.208       20.024       29.496       41.412       30.088      870.011     1714.958      905.295        0.234        0.175       28.025       16.903        0.364      348.331       27.950      857.661
09/15/2013  11:16:00       30.185       20.249       16.290       25.712       30.325       24.548      661.094      919.610      602.601        0.188        0.109       36.347       18.803        0.268      348.091       27.535      857.673
09/15/2013  11:17:00      -56.770      -76.320       13.017       75.853       63.658       33.501     5753.686     4052.391     1122.337        1.007        0.546       95.119       31.715        0.111      347.434       26.399      857.674
09/15/2013  11:18:00     -143.399        8.457      -14.126       76.535       62.397       38.780     5857.577     3893.333     1503.866        1.604        0.563      143.648       27.284        0.036      347.338       26.235      857.674
09/15/2013  11:19:00     -191.350      -37.013       -2.124      100.456       93.643       46.303    10091.417     8769.062     2143.943        2.949        1.050      194.897       41.473        0.045      347.457       26.437      857.635
09/15/2013  11:20:00     -287.716      -76.388       -7.825      102.877       75.843       48.880    10583.584     5752.099     2389.262        5.370        0.936      297.684       51.681        0.030      347.358       26.265      857.625
09/15/2013  11:21:00     -168.858      -34.424       -8.209       74.090       65.820       30.528     5489.395     4332.322      931.954        2.026        0.538      172.331       33.013        0.037      347.362       26.275      857.639
09/15/2013  11:22:00     -122.937      -54.414       -6.619       52.157       43.248       26.261     2720.358     1870.379      689.657        1.170        0.264      134.441       14.689        0.012      347.449       26.427      857.626
09/15/2013  11:23:00     -181.402      -44.799      -24.981       25.938       41.574       24.707      672.805     1728.405      610.444        1.927        0.151      186.852       11.775        0.004      347.323       26.209      857.621
09/15/2013  11:24:00      -93.837      -29.704      -19.772       50.757       32.454       22.230     2576.223     1053.263      494.161        0.710        0.206       98.426       19.513        0.039      347.450       26.427      857.618
09/15/2013  11:25:00      -53.732      -45.304        2.687       76.594       40.264       27.724     5866.586     1621.155      768.613        0.660        0.413       70.282       21.611        0.095      347.701       26.860      857.594
09/15/2013  11:26:00     -150.032      -66.378       -0.874       67.248       65.798       40.729     4522.302     4329.388     1658.821        1.871        0.526      164.060       38.816        0.056      347.523       26.553      857.604
09/15/2013  11:27:00     -105.718       13.965       -3.591       81.162       34.038       32.955     6587.301     1158.568     1086.014        1.011        0.442      106.636       40.212        0.142      347.492       26.502      857.592
09/15/2013  11:28:00       -9.113     -144.255        0.653       51.909       45.373       25.116     2694.557     2058.735      630.806        1.314        0.269      144.543       24.681        0.029      347.370       26.291      857.584
09/15/2013  11:29:00      -43.956      -14.911       -8.979       55.376       38.852       37.944     3066.517     1509.466     1439.733        0.412        0.301       46.416       32.455        0.489      347.641       26.757      857.587
09/15/2013  11:30:00      -44.317       32.041       -2.192       46.259       57.750       31.280     2139.898     3335.031      978.437        0.472        0.323       54.687       31.375        0.329      347.611       26.706      857.582
09/15/2013  11:31:00      -36.445       87.498        9.665       53.031       67.767       34.563     2812.237     4592.348     1194.629        0.884        0.430       94.785       33.706        0.126      347.984       27.349      857.576
09/15/2013  11:32:00      -79.975       39.199       -0.898       54.099       31.980       36.396     2926.744     1022.690     1324.702        0.660        0.264       89.065       36.081        0.164      348.021       27.415      857.565
09/15/2013  11:33:00      -55.828       -4.492       -4.228       36.979       61.054       21.444     1367.476     3727.610      459.861        0.435        0.278       56.009       11.451        0.042      347.585       26.659      857.588
09/15/2013  11:34:00      -67.287     -109.172        9.062       47.095       53.567       28.942     2217.905     2869.448      837.649        1.123        0.296      128.242       25.315        0.039      347.523       26.553      857.590
09/15/2013  11:35:00      -53.584     -132.896       11.515       56.543       72.433       32.755     3197.066     5246.519     1072.904        1.509        0.476      143.292       36.094        0.063      347.499       26.510      857.590
09/15/2013  11:36:00       36.354     -143.965      -14.487       86.834       82.570       48.778     7540.128     6817.749     2379.279        1.949        0.837      148.484       50.739        0.117      347.878       27.164      857.567
09/15/2013  11:37:00       10.743      -17.078       16.104       41.619       47.643       43.357     1732.152     2269.886     1879.796        0.327        0.294       20.176       35.110        3.028      348.001       27.380      857.547
09/15/2013  11:38:00      -11.930        1.192       41.062       35.089       39.208       28.356     1231.261     1537.280      804.082        0.270        0.179       11.990       11.789        0.967      348.296       27.889      857.538
09/15/2013  11:39:00       -2.978      -26.903       35.121       39.694       55.502       29.935     1575.605     3080.457      896.083        0.376        0.278       27.067       26.290        0.943      348.130       27.602      857.505
09/15/2013  11:40:00      -25.474      -42.198        8.821       48.771       41.848       25.752     2378.598     1751.234      663.145        0.365        0.240       49.291       24.266        0.242      348.078       27.512      857.497
09/15/2013  11:41:00      -15.142      -32.883        3.017       38.024       43.755       28.722     1445.818     1914.518      824.952        0.275        0.209       36.202       29.042        0.644      348.274       27.851      857.490
09/15/2013  11:42:00      -68.550      -47.458        3.941       59.019       39.268       31.613     3483.260     1541.944      999.370        0.649        0.301       83.375       21.942        0.069      347.968       27.322      857.493
09/15/2013  11:43:00     -123.153      -44.423        1.253       59.176       52.691       30.623     3501.796     2776.335      937.799        1.218        0.361      130.920       20.356        0.024      347.754       26.952      857.494
09/15/2013  11:44:00      -74.000      -89.997       -0.700       56.012       45.470       24.474     3137.370     2067.543      598.987        0.969        0.290      116.514       21.550        0.034      347.645       26.764      857.484
09/15/2013  11:45:00      -86.843      -15.940       -1.715       76.232       59.929       22.995     5811.323     3591.506      528.768        0.886        0.497       88.293       31.533        0.128      347.730       26.909      857.458
09/15/2013  11:46:00      -94.763       20.797       -4.222       61.291       67.627       33.049     3756.538     4573.468     1092.219        0.942        0.471       97.018       22.682        0.055      348.167       27.666      857.434
09/15/2013  11:47:00      -15.484       41.279       22.822       35.547       28.797       24.272     1263.593      829.268      589.125        0.257        0.134       44.087       20.624        0.219      348.861       28.866      857.424
09/15/2013  11:48:00       52.489       36.860       17.826       43.050       47.745       32.060     1853.334     2279.572     1027.874        0.480        0.258       64.139       19.902        0.096      348.021       27.415      857.429
09/15/2013  11:49:00       26.997      -71.984       16.429       28.999       65.076       29.480      840.937     4234.822      869.082        0.606        0.297       76.880       36.352        0.224      347.885       27.179      857.429
09/15/2013  11:50:00       53.447      -65.940       -7.006       32.329       59.654       32.347     1045.155     3558.616     1046.310        0.645        0.283       84.880       17.447        0.042      347.873       27.157      857.449
09/15/2013  11:51:00      -27.802      -44.096      -11.501       52.788       57.622       25.215     2786.528     3320.318      635.807        0.479        0.337       52.128       26.778        0.264      347.832       27.087      857.450
09/15/2013  11:52:00      -76.484      -48.858        3.565       93.252       52.429       48.129     8695.919     2748.773     2316.381        1.100        0.688       90.757       54.300        0.358      348.039       27.445      857.435
09/15/2013  11:53:00        0.450      -98.551       13.202       47.005      127.527       43.855     2209.433    16263.098     1923.236        1.514        1.020       98.552       52.275        0.281      348.150       27.634      857.422
09/15/2013  11:54:00       65.778     -100.882       21.304       58.746      114.786       58.272     3451.111    13175.769     3395.663        1.749        1.001      120.432       71.947        0.357      347.933       27.261      857.440
09/15/2013  11:55:00        4.328     -156.564      -13.499       86.678       54.722       43.780     7513.118     2994.513     1916.690        1.857        0.621      156.624       29.695        0.036      347.995       27.366      857.435
09/15/2013  11:56:00      -30.665      -50.209        7.929       47.876       68.538       29.600     2292.109     4697.485      876.171        0.569        0.393       58.833       24.162        0.169      348.235       27.785      857.448
09/15/2013  11:57:00      -50.359       -5.205        8.680       44.972       50.291       43.537     2022.487     2529.178     1895.476        0.454        0.322       50.627       33.415        0.436      348.479       28.204      857.436
09/15/2013  11:58:00      -59.093     -109.518      -20.826       70.750       84.057       39.303     5005.566     7065.656     1544.755        1.477        0.681      124.443       43.183        0.120      347.957       27.302      857.456
09/15/2013  11:59:00      -28.631        6.717       15.902       43.173       34.587       30.322     1863.918     1196.244      919.397        0.255        0.199       29.409       20.042        0.464      348.384       28.042      857.435
09/15/2013  12:00:00       78.311        6.360       28.978       52.996       54.973       39.200     2808.621     3022.018     1536.641        0.719        0.368       78.569       17.438        0.049      348.094       27.539      857.413
09/15/2013  12:01:00       70.553      -10.544       56.510       96.063       97.885       73.806     9228.112     9581.410     5447.397        1.626        1.213       71.336       72.580        1.035      348.245       27.801      857.371
09/15/2013  12:02:00       14.712       56.847      109.094       67.098       98.366       64.065     4502.169     9675.870     4104.335        1.681        0.914       58.720       62.968        1.150      348.674       28.542      857.353
09/15/2013  12:03:00       14.035       23.434       86.120       43.623       72.219       40.440     1902.975     5215.522     1635.357        0.846        0.438       27.315       36.517        1.787      348.658       28.515      857.354
09/15/2013  12:04:00        1.115       18.205       58.227       31.559       65.608       62.413      995.959     4304.382     3895.372        0.646        0.460       18.239       56.764        9.686      348.379       28.033      857.360
09/15/2013  12:05:00      -12.547        4.245       40.031       29.536       33.327       28.550      872.404     1110.716      815.084        0.229        0.140       13.245       21.751        2.697      348.689       28.568      857.354
09/15/2013  12:06:00      -12.859      -40.186       16.890       75.907       60.221       43.869     5761.803     3626.544     1924.487        0.669        0.566       42.194       51.560        1.493      348.311       27.913      857.385
09/15/2013  12:07:00       32.577      119.529      135.916       90.041      123.579       89.510     8107.335    15271.801     8011.976        3.260        1.570      123.888       91.526        0.546      347.894       27.191      857.344
09/15/2013  12:08:00     -111.459       -8.860       22.217      135.256      100.625       51.466    18294.199    10125.392     2648.745        2.203        1.553      111.810       55.681        0.248      348.376       28.025      857.329
09/15/2013  12:09:00       58.134     -215.615        4.640      144.451      194.816       87.514    20866.127    37953.097     7658.639        5.817        3.324      223.315       97.801        0.192      348.289       27.874      857.349
09/15/2013  12:10:00       91.441     -174.227        7.552      136.230      111.158       77.007    18558.552    12356.133     5930.121        3.780        1.842      196.765       65.151        0.110      348.257       27.817      857.320
09/15/2013  12:11:00       24.847      -92.574       22.486       79.358       93.604       65.927     6297.719     8761.621     4346.388        1.455        0.970       95.850       56.405        0.346      348.498       28.238      857.316
09/15/2013  12:12:00      -63.442      -91.025       10.861       70.307       94.511       35.397     4943.012     8932.244     1252.933        1.378        0.756      110.953       40.431        0.133      348.489       28.221      857.330
09/15/2013  12:13:00      -83.595     -187.430       -5.786      157.544       93.625       71.531    24820.132     8765.698     5116.689        4.042        1.935      205.227       40.266        0.038      348.479       28.202      857.301
09/15/2013  12:14:00     -162.046     -117.445        5.253      104.497       84.471       45.574    10919.619     7135.348     2076.985        3.010        1.007      200.131       42.746        0.046      348.703       28.589      857.330
09/15/2013  12:15:00      -83.552     -162.717       41.727      124.099      147.759       72.996    15400.567    21832.836     5328.421        3.887        2.128      182.915       55.056        0.091      348.793       28.746      857.328
09/15/2013  12:16:00     -149.124     -158.257        7.763       95.272      106.347       53.791     9076.812    11309.687     2893.443        3.531        1.164      217.448       41.375        0.036      348.604       28.418      857.352
09/15/2013  12:17:00     -134.350     -288.706        6.118      153.436      139.721       76.112    23542.516    19521.838     5793.083        7.514        2.443      318.435       58.058        0.033      348.332       27.948      857.351
09/15/2013  12:18:00     -130.882     -142.734       12.675      131.266      118.609       60.139    17230.810    14068.128     3616.669        3.628        1.746      193.658       64.613        0.111      348.436       28.128      857.332
09/15/2013  12:19:00      -89.825     -151.920        5.910       87.036      142.934       43.898     7575.351    20430.116     1927.005        3.055        1.497      176.489       34.865        0.039      348.451       28.155      857.324
09/15/2013  12:20:00     -164.597     -310.449        2.340      113.032      105.321       69.280    12776.278    11092.552     4799.724        7.607        1.433      351.384       45.630        0.017      348.438       28.131      857.330
09/15/2013  12:21:00     -199.407     -153.843       -9.098      106.555      123.796       59.775    11353.982    15325.481     3573.068        4.688        1.513      251.855       61.668        0.060      348.506       28.248      857.377
09/15/2013  12:22:00     -213.085      -93.392       12.062      145.580       96.300       60.175    21193.578     9273.656     3620.997        4.417        1.704      232.652       55.233        0.056      348.700       28.584      857.354
09/15/2013  12:23:00      -72.204     -115.312      -14.255       74.694       61.486       55.071     5579.169     3780.495     3032.866        1.555        0.620      136.052       37.413        0.076      348.638       28.480      857.347
09/15/2013  12:24:00      -57.637     -125.893        1.885       64.022      107.107       35.776     4098.843    11471.820     1279.944        1.801        0.843      138.460       21.149        0.023      348.491       28.224      857.353
09/15/2013  12:25:00     -129.663     -125.525        9.366      168.053       89.107       62.134    28241.826     7940.051     3860.576        3.634        2.002      180.469       60.896        0.114      348.650       28.499      857.359
09/15/2013  12:26:00      -51.685      -74.803       17.661       74.454       79.856       52.693     5543.396     6376.966     2776.594        1.163        0.735       90.922       48.267        0.282      348.712       28.608      857.318
09/15/2013  12:27:00      -66.732      -44.875        2.086       59.655       49.113       32.594     3558.663     2412.076     1062.357        0.675        0.352       80.417       24.641        0.094      348.696       28.579      857.318
09/15/2013  12:28:00     -137.742     -156.827        0.972      146.895      111.555       56.372    21578.233    12444.427     3177.794        4.038        1.860      208.729       57.778        0.077      348.555       28.334      857.324
09/15/2013  12:29:00      -14.060      -70.458        9.026       86.263      147.570       82.498     7441.335    21776.923     6805.839        2.063        1.801       71.848       68.850        0.918      348.715       28.611      857.237
09/15/2013  12:30:00      -99.084       -8.392        5.565       86.863       59.006       34.974     7545.102     3481.767     1223.151        1.108        0.613       99.439       38.661        0.151      348.708       28.602      857.235
09/15/2013  12:31:00      -47.965        5.149       24.201       62.218       65.681       34.022     3871.036     4313.959     1157.471        0.613        0.467       48.240       43.207        0.802      348.998       29.103      857.233
09/15/2013  12:32:00     -143.323      -44.487       15.840      108.379      104.765       62.541    11745.990    10975.759     3911.363        2.470        1.332      150.069       54.081        0.130      348.832       28.814      857.238
09/15/2013  12:33:00     -291.065     -204.118       -1.391      150.022      128.731       69.953    22506.727    16571.708     4893.428        8.517        2.199      355.504       78.293        0.049      348.315       27.919      857.253
09/15/2013  12:34:00     -328.764     -103.334       -7.372      182.661      112.924       81.304    33364.964    12751.777     6610.334        8.576        2.636      344.621       82.036        0.057      348.436       28.126      857.230
09/15/2013  12:35:00     -259.620     -193.431       -6.679      173.660      148.702       74.536    30157.657    22112.221     5555.679        8.133        2.891      323.757       85.221        0.069      348.541       28.309      857.211
09/15/2013  12:36:00     -392.787     -204.290       -0.073      210.710      210.321      102.870    44398.582    44234.912    10582.181       14.760        4.961      442.737      119.106        0.072      348.506       28.248      857.206
09/15/2013  12:37:00     -386.530     -218.724        1.239      219.545      201.847       98.851    48200.193    40742.167     9771.571       14.796        4.936      444.124      107.268        0.058      348.424       28.106      857.195
09/15/2013  12:38:00     -395.287     -123.933       -6.873      181.211      142.257       79.381    32837.374    20237.041     6301.369       11.551        2.969      414.260       86.690        0.044      348.316       27.920      857.193
09/15/2013  12:39:00     -200.811      -80.733      -13.081      101.573      104.949       53.340    10316.984    11014.255     2845.181        3.559        1.209      216.432       41.202        0.036      348.392       28.052      857.186
09/15/2013  12:40:00     -299.801     -116.231       -6.412      144.200      117.088       63.645    20793.696    13709.517     4050.656        7.098        1.928      321.544       72.798        0.051      348.471       28.187      857.203
09/15/2013  12:41:00     -223.923     -218.962       -6.889      152.225      120.240       68.042    23172.444    14457.666     4629.760        7.019        2.113      313.187       69.100        0.049      348.515       28.264      857.173
09/15/2013  12:42:00     -189.367     -185.657        0.371      106.878      100.383       69.041    11422.837    10076.681     4766.610        4.829        1.313      265.196       55.571        0.044      348.648       28.494      857.174
09/15/2013  12:43:00     -256.223     -330.189       -5.064      206.756      275.558       81.392    42747.969    75932.294     6624.685       14.998        6.265      417.941      108.665        0.068      348.690       28.567      857.173
09/15/2013  12:44:00     -223.645     -165.797        2.331      155.961      181.567       85.587    24323.956    32966.638     7325.203        7.105        3.231      278.399       75.160        0.073      348.738       28.649      857.195
09/15/2013  12:45:00     -202.872     -120.094       -2.745      162.960      137.211       89.502    26556.034    18826.740     8010.602        5.448        2.670      235.753       85.736        0.132      348.728       28.634      857.206
09/15/2013  12:46:00     -196.515     -215.256       23.904      192.272      133.699       82.629    36968.539    17875.498     6827.568        7.359        3.084      291.468       75.821        0.068      348.615       28.437      857.232
09/15/2013  12:47:00     -338.374     -301.572       -0.327      212.257      186.836      106.482    45053.152    34907.622    11338.443       14.835        4.565      453.258      102.834        0.051      348.460       28.168      857.223
09/15/2013  12:48:00     -409.448     -193.442      -16.470      172.809      123.986       73.342    29862.876    15372.520     5379.081       12.797        2.531      452.844       74.189        0.027      348.382       28.033      857.232
09/15/2013  12:49:00     -253.464     -130.663      -15.267      127.968      123.056       67.184    16375.734    15142.787     4513.684        5.878        1.802      285.161       47.723        0.028      348.220       27.755      857.179
09/15/2013  12:50:00     -223.268     -131.840       -3.119      132.931       94.138       63.829    17670.556     8861.923     4074.093        4.892        1.530      259.288       61.159        0.056      348.376       28.022      857.168
09/15/2013  12:51:00     -142.265     -262.464       15.904      126.757      143.225       85.514    16067.403    20513.349     7312.703        6.663        2.195      298.541       76.587        0.066      348.573       28.365      857.144
09/15/2013  12:52:00     -269.948      -53.251      -10.386      160.671      118.348       65.483    25815.036    14006.230     4288.026        5.995        2.205      275.150       70.225        0.065      348.808       28.771      857.171
09/15/2013  12:53:00     -219.567     -132.714        3.224      149.508      132.915       79.534    22352.745    17666.525     6325.620        5.608        2.317      256.560       73.898        0.083      348.756       28.681      857.174
09/15/2013  12:54:00     -337.870     -222.106       -5.768      171.315      161.648       94.628    29348.755    26130.028     8954.461       11.396        3.222      404.336       95.232        0.055      348.728       28.632      857.117
09/15/2013  12:55:00     -360.416     -154.114        2.278      170.812      180.042       86.291    29176.585    32415.204     7446.203       11.133        3.452      391.983       93.893        0.057      348.855       28.853      857.121
09/15/2013  12:56:00     -295.183     -178.509       -3.581      164.869      114.722       76.813    27181.787    13161.206     5900.244        8.262        2.312      344.961       82.731        0.058      348.650       28.496      857.149
09/15/2013  12:57:00     -235.275     -236.457      -29.308      185.518       94.645       68.884    34417.041     8957.701     4744.940        8.011        2.406      333.566       79.773        0.057      348.631       28.465      857.187
09/15/2013  12:58:00     -141.686     -241.460        0.303      158.885      141.991       63.131    25244.361    20161.554     3985.523        6.387        2.470      279.960       55.934        0.040      348.684       28.556      857.189
09/15/2013  12:59:00     -256.351     -204.786       -9.860      170.772      121.547       82.654    29163.243    14773.731     6831.721        7.925        2.538      328.106       62.871        0.037      348.720       28.618      857.188
09/15/2013  13:00:00      -80.418     -212.390        2.693      238.319      119.979       95.756    56796.094    14394.990     9169.295        6.596        4.018      227.105       69.988        0.095      348.761       28.689      857.198
09/15/2013  13:01:00      -64.673     -210.545        9.441      163.744      212.943      115.882    26811.981    45344.617    13428.662        6.708        4.279      220.254       94.288        0.183      348.607       28.424      857.181
09/15/2013  13:02:00     -319.066     -251.870      -12.543      129.984      125.387       73.375    16895.813    15721.796     5383.855       10.169        1.900      406.499       70.015        0.030      348.585       28.385      857.141
09/15/2013  13:03:00     -233.263     -249.155      -13.655      147.217      135.124       64.430    21672.799    18258.581     4151.218        8.037        2.204      341.306       55.106        0.026      348.631       28.465      857.135
09/15/2013  13:04:00     -203.364     -349.043      -10.758      145.103      241.851       80.907    21054.857    58491.837     6545.954       12.468        4.305      403.966       74.079        0.034      348.637       28.473      857.092
09/15/2013  13:05:00     -268.148     -132.503       -8.766      125.590      106.139       61.902    15772.902    11265.444     3831.874        6.020        1.544      299.099       50.017        0.028      348.979       29.068      857.102
09/15/2013  13:06:00     -235.575     -177.317       -0.365      145.291      175.007       67.582    21109.558    30627.571     4567.389        7.161        2.815      294.851       73.141        0.062      348.742       28.656      857.124
09/15/2013  13:07:00     -287.273     -238.996       -0.311      161.267      161.265       82.461    26006.887    26006.508     6799.863        9.922        2.941      373.691       72.970        0.038      348.761       28.690      857.140
09/15/2013  13:08:00     -307.674     -254.319      -15.619      185.536      149.871       77.009    34423.436    22461.361     5930.457       11.119        3.141      399.176       83.914        0.044      348.771       28.707      857.148
09/15/2013  13:09:00     -213.193     -295.769       -6.745      171.382      209.072       81.950    29371.846    43710.932     6715.785       10.637        3.990      364.596       84.832        0.054      348.792       28.745      857.168
09/15/2013  13:10:00     -123.207     -192.272        6.691      106.133      111.921       67.023    11264.268    12526.373     4492.019        4.023        1.414      228.361       29.213        0.016      348.853       28.851      857.144
09/15/2013  13:11:00     -264.577     -262.183      -30.616      201.996      161.714       67.632    40802.465    26151.498     4574.073       10.559        3.576      372.480       54.349        0.021      348.932       28.987      857.140
09/15/2013  13:12:00      -93.898     -336.948        7.593      250.567      173.381      109.278    62783.961    30060.903    11941.601       11.358        5.239      349.787      117.181        0.112      348.919       28.963      857.180
09/15/2013  13:13:00      -62.737     -224.183       -0.400      151.410      173.037       83.815    22924.892    29941.933     7024.922        5.703        2.995      232.796       65.194        0.078      348.786       28.733      857.201
09/15/2013  13:14:00       -7.518     -144.700       20.229      100.323       92.104       80.040    10064.699     8483.218     6406.437        2.317        1.248      144.896       56.730        0.153      348.894       28.921      857.115
09/15/2013  13:15:00       -3.395     -218.599       -5.925      124.430      101.745       59.028    15482.716    10352.100     3484.364        3.857        1.466      218.625       23.129        0.011      348.762       28.693      857.084
09/15/2013  13:16:00      -26.665      -32.036       12.706       59.161       53.461       39.211     3500.035     2858.048     1537.469        0.490        0.395       41.681       15.613        0.140      349.149       29.365      857.017
09/15/2013  13:17:00     -112.285     -231.943      -11.184      144.675      161.539       66.413    20930.855    26094.857     4410.732        5.897        2.572      257.693       50.063        0.038      348.927       28.978      857.063
09/15/2013  13:18:00     -219.389     -332.416      -23.827      178.354      136.997       79.396    31810.270    18768.293     6303.792       10.803        2.844      398.286       70.137        0.031      348.898       28.926      857.039
09/15/2013  13:19:00      -47.990     -107.894       21.109       98.687       96.945       53.885     9739.106     9398.379     2903.587        1.821        1.102      118.085       40.604        0.118      349.324       29.669      857.051
09/15/2013  13:20:00     -243.347     -330.044      -18.564      128.329      172.444       67.682    16468.308    29736.769     4580.880       10.963        2.539      410.057       78.992        0.037      348.854       28.850      857.089
09/15/2013  13:21:00     -164.117     -272.110      -28.839      138.182      183.151       60.043    19094.255    33544.432     3605.134        7.902        2.812      317.771       50.197        0.025      348.708       28.599      857.059
09/15/2013  13:22:00     -215.175     -226.679       -0.314      170.230      181.026       72.321    28978.095    32770.329     5230.375        8.232        3.349      312.544       62.557        0.040      348.721       28.622      857.026
09/15/2013  13:23:00     -315.427     -217.603        5.301      219.077      183.238       82.512    47994.612    33576.322     6808.276       11.761        4.419      383.204      100.950        0.069      348.832       28.812      856.976
09/15/2013  13:24:00     -345.946     -283.904       -9.640      228.551      164.572      109.824    52235.748    27083.918    12061.324       14.586        4.569      447.527      119.687        0.072      348.710       28.601      856.976
09/15/2013  13:25:00     -470.801     -239.490        3.998      257.477      182.037       98.529    66294.644    33137.458     9708.018       19.406        5.457      528.213      123.103        0.054      348.570       28.359      857.004
09/15/2013  13:26:00     -296.788     -194.578       -3.036      222.251      189.771       86.242    49395.546    36013.067     7437.699       10.938        4.642      354.885       95.542        0.072      348.705       28.593      856.928
09/15/2013  13:27:00     -190.486     -251.366       -3.055      134.584      162.201       67.821    18112.782    26309.303     4599.706        7.424        2.451      315.389       61.370        0.038      348.784       28.729      856.941
09/15/2013  13:28:00     -207.943     -246.426       -1.254      189.797      129.168       62.848    36023.063    16684.409     3949.925        8.030        2.833      322.438       45.387        0.020      348.702       28.587      856.922
09/15/2013  13:29:00     -220.304     -161.883       26.360      186.125      135.741       91.059    34642.614    18425.599     8291.704        6.839        3.068      273.386       91.653        0.112      349.022       29.139      856.923
09/15/2013  13:30:00     -159.859     -192.986        9.497      167.157       98.087       70.428    27941.394     9621.063     4960.073        5.270        2.126      250.596       71.487        0.081      348.982       29.072      856.946
09/15/2013  13:31:00     -323.206     -268.865      -24.174      155.792      179.413       69.580    24271.135    32188.922     4841.344       11.931        3.065      420.417       60.066        0.020      348.971       29.053      856.934
09/15/2013  13:32:00     -246.737     -266.581        1.557      220.211      152.280       84.602    48492.748    23189.227     7157.470       10.538        3.942      363.242       85.616        0.056      348.901       28.932      856.953
09/15/2013  13:33:00     -204.465     -302.227       13.391      218.938      204.708       90.325    47933.717    41905.276     8158.694       11.564        4.900      364.893      101.515        0.077      348.815       28.783      856.937
09/15/2013  13:34:00     -286.650     -184.853       35.398      281.802      243.919      111.664    79412.629    59496.459    12468.958       13.445        7.569      341.084      135.612        0.158      348.840       28.825      856.888
09/15/2013  13:35:00     -193.194     -278.487       -5.424      153.504      130.866       90.212    23563.629    17125.931     8138.142        8.186        2.441      338.938       73.116        0.047      348.844       28.832      856.895
09/15/2013  13:36:00     -432.130     -346.223       -9.920      246.188      220.986      117.611    60608.727    48834.789    13832.240       21.497        6.164      553.721      136.549        0.061      348.738       28.651      856.901
09/15/2013  13:37:00     -477.374     -349.652      -11.796      257.839      179.549      115.045    66480.923    32237.996    13235.451       23.110        5.598      591.728      124.211        0.044      348.702       28.586      856.836
09/15/2013  13:38:00     -492.893     -190.492        5.514      244.298      185.565      115.732    59681.568    34434.328    13393.891       19.336        5.375      528.423      111.738        0.045      348.704       28.590      856.822
09/15/2013  13:39:00     -474.997     -196.547      -15.824      277.332      214.270      105.797    76913.088    45911.442    11192.958       19.923        6.701      514.055      118.568        0.053      348.790       28.739      856.741
09/15/2013  13:40:00     -526.934     -293.083      -36.426      248.118      193.159       96.051    61562.522    37310.421     9225.887       23.647        5.405      602.957      100.861        0.028      348.817       28.787      856.724
09/15/2013  13:41:00     -468.201     -292.666        5.051      270.249      199.962      118.584    73034.337    39984.653    14062.213       21.596        6.354      552.147      135.235        0.060      348.865       28.869      856.783
09/15/2013  13:42:00     -305.814     -196.495       -6.256      201.852      132.218       78.048    40744.297    17481.569     6091.530        9.823        3.216      363.500       92.404        0.065      349.006       29.114      856.857
09/15/2013  13:43:00     -219.783     -237.620      -12.110      129.308      127.003       69.834    16720.532    16129.795     4876.766        7.131        1.886      323.678       60.712        0.035      349.075       29.232      856.913
09/15/2013  13:44:00     -125.265     -125.700       17.206      127.990      106.244       61.626    16381.379    11287.838     3797.802        3.162        1.573      177.460       60.956        0.118      349.190       29.435      856.906
09/15/2013  13:45:00      -81.447     -106.696        6.083       80.578      128.606       48.561     6492.756    16539.509     2358.182        2.172        1.270      134.230       33.445        0.062      348.869       28.878      856.859
09/15/2013  13:46:00      -42.554      -96.702        1.462       81.159       64.640       36.419     6586.752     4178.382     1326.365        1.163        0.605      105.650       24.494        0.054      349.219       29.486      856.858
09/15/2013  13:47:00      -16.437     -299.614       -8.734      180.693      223.110       66.272    32650.063    49778.149     4391.924        8.845        4.341      300.065       66.254        0.049      349.048       29.186      856.838
09/15/2013  13:48:00     -377.210     -248.136      -12.129      239.311      190.220      101.460    57269.582    36183.538    10294.183       15.386        5.187      451.507      114.523        0.064      348.910       28.946      856.849
09/15/2013  13:49:00     -406.883     -217.992      -24.046      243.269      170.818       86.633    59179.947    29178.942     7505.345       15.474        4.793      461.600       95.716        0.043      348.718       28.617      856.816
09/15/2013  13:50:00     -333.851     -138.433        6.362      266.640      134.099       77.539    71097.137    17982.596     6012.299       11.286        4.755      361.414       86.575        0.057      348.800       28.756      856.803
09/15/2013  13:51:00     -412.618     -254.193        9.181      212.166      223.607       96.133    45014.321    50000.216     9241.538       16.958        5.213      484.632      115.743        0.057      348.667       28.525      856.812
09/15/2013  13:52:00     -223.745     -142.295       11.759      213.883      137.730       69.898    45745.981    18969.501     4885.675        7.001        3.480      265.159       72.481        0.075      348.664       28.519      856.795
09/15/2013  13:53:00     -259.472     -130.753      -11.937      148.130      101.981       66.734    21942.610    10400.163     4453.379        6.067        1.840      290.555       61.750        0.045      348.529       28.289      856.746
09/15/2013  13:54:00     -265.484     -182.421        5.343      196.139      112.198       83.643    38470.312    12588.457     6996.226        8.091        2.903      322.117       82.280        0.065      348.783       28.729      856.726
09/15/2013  13:55:00     -194.475     -101.635        8.521      212.097      172.422       85.231    44985.278    29729.190     7264.356        6.508        4.099      219.432       72.880        0.110      348.884       28.902      856.690
09/15/2013  13:56:00      -47.921     -259.128       -2.666      176.725      165.220       83.344    31231.673    27297.718     6946.268        6.745        3.274      263.522       85.438        0.105      348.926       28.977      856.730
09/15/2013  13:57:00     -196.319     -272.140       16.463      201.394      191.302       88.465    40559.713    36596.506     7826.140        9.891        4.249      335.561       90.006        0.072      348.938       28.997      856.707
09/15/2013  13:58:00     -212.738     -285.155       -1.836      156.855      160.788       78.599    24603.495    25852.696     6177.766        9.159        2.832      355.768       85.816        0.058      348.800       28.757      856.680
09/15/2013  13:59:00     -428.371     -203.737      -25.848      150.388      131.783       83.452    22616.578    17366.701     6964.226       13.630        2.347      474.353       82.253        0.030      348.957       29.030      856.686
09/15/2013  14:00:00     -331.913     -266.919       -2.788      201.158      142.809       88.024    40464.415    20394.449     7748.254       12.500        3.430      425.925       90.119        0.045      349.015       29.128      856.671
09/15/2013  14:01:00     -347.569     -240.570       -7.601      181.531      133.517       90.579    32953.428    17826.693     8204.541       11.885        2.949      422.703       96.508        0.052      348.965       29.043      856.649
09/15/2013  14:02:00     -481.893     -286.505       -8.851      221.993      176.000       91.034    49280.844    30975.846     8287.250       20.145        4.427      560.631      102.611        0.033      348.618       28.441      856.658
09/15/2013  14:03:00     -206.098     -228.508      -12.483      175.233      120.556       60.392    30706.770    14533.686     3647.244        7.186        2.444      307.721       70.084        0.052      348.692       28.569      856.627
09/15/2013  14:04:00     -215.155     -134.612        7.934      215.545      148.579       71.488    46459.691    22075.645     5110.484        6.905        3.682      253.795       78.920        0.097      349.132       29.335      856.602
09/15/2013  14:05:00     -409.013     -207.034       11.955      278.368      177.296       99.795    77489.000    31433.852     9959.042       16.457        5.944      458.426      118.031        0.066      349.115       29.303      856.582
09/15/2013  14:06:00     -296.267     -113.335        3.147      191.010      168.207       75.241    36484.964    28293.449     5661.158        8.552        3.522      317.205       92.290        0.085      348.973       29.057      856.567
09/15/2013  14:07:00     -351.188     -192.443       -4.242      206.419      155.706       83.814    42608.922    24244.301     7024.810       11.712        3.694      400.459       94.528        0.056      349.083       29.248      856.559
09/15/2013  14:08:00     -211.571     -191.200       -2.557      202.485      128.314       77.268    41000.265    16464.487     5970.416        7.237        3.172      285.166       97.233        0.116      349.114       29.300      856.586
09/15/2013  14:09:00     -321.045     -302.821       -5.580      216.382      200.950      100.502    46821.112    40380.725    10100.596       14.603        4.865      441.327      121.089        0.075      348.924       28.973      856.588
09/15/2013  14:10:00     -180.990     -329.838      -11.842      153.868      197.119       88.648    23675.221    38855.900     7858.380       10.603        3.519      376.232       76.875        0.042      348.874       28.886      856.591
09/15/2013  14:11:00     -120.394     -209.467        2.187      128.768      190.851       64.655    16581.137    36424.153     4180.205        5.777        2.859      241.601       56.745        0.055      349.175       29.406      856.563
09/15/2013  14:12:00     -228.680     -155.879      -11.675      130.037      121.323       59.225    16909.709    14719.245     3507.640        5.593        1.757      276.754       55.709        0.041      349.206       29.460      856.540
09/15/2013  14:13:00     -373.456     -139.506       -0.839      237.157      194.403      106.465    56243.396    37792.623    11334.810       13.213        5.269      398.662      125.725        0.099      349.112       29.299      856.505
09/15/2013  14:14:00     -534.166     -210.838      -17.071      173.649      172.055       85.373    30154.098    29602.768     7288.534       19.855        3.352      574.270       83.520        0.021      348.970       29.051      856.516
09/15/2013  14:15:00     -420.682      -96.262       -8.181      179.543      101.905       79.624    32235.645    10384.643     6339.968       11.762        2.448      431.555       84.130        0.038      348.962       29.038      856.527
09/15/2013  14:16:00     -356.760     -205.625      -23.043      139.280      150.402       75.382    19398.897    22620.627     5682.516       10.889        2.385      411.776       73.554        0.032      348.834       28.815      856.509
09/15/2013  14:17:00     -333.441     -119.238       -3.965      166.141      166.897       83.729    27602.887    27854.741     7010.564        9.393        3.123      354.120       84.018        0.056      348.867       28.874      856.487
09/15/2013  14:18:00     -187.687     -224.177        0.117      159.033      213.726       62.586    25291.391    45678.683     3916.981        8.017        3.744      292.372       62.868        0.046      348.928       28.978      856.500
09/15/2013  14:19:00     -133.471      -86.049       13.814      119.787      111.058       65.988    14349.032    12333.829     4354.410        2.822        1.552      158.805       44.631        0.079      349.032       29.161      856.463
09/15/2013  14:20:00     -253.545     -261.407        5.465      154.812      174.420       74.122    23966.750    30422.314     5494.067        9.625        2.994      364.168       79.809        0.048      349.245       29.529      856.465
09/15/2013  14:21:00     -342.909     -213.338      -11.128      183.340      147.171       85.442    33613.593    21659.399     7300.290       11.289        3.129      403.856       75.682        0.035      349.048       29.186      856.516
09/15/2013  14:22:00     -348.895     -190.866       -6.147      170.892      158.844       75.940    29203.929    25231.404     5766.868       10.919        3.010      397.691       70.202        0.031      348.923       28.970      856.499
09/15/2013  14:23:00     -395.726     -167.734      -10.904      186.612      144.938       88.044    34823.859    21007.125     7751.664       12.420        3.179      429.807      101.346        0.056      348.922       28.967      856.492
09/15/2013  14:24:00     -210.152     -161.297       10.600      180.455      164.251       82.378    32564.167    26978.477     6786.179        6.830        3.316      264.916       87.609        0.109      349.103       29.283      856.471
09/15/2013  14:25:00     -267.498     -171.052       12.452      208.227      141.778       93.891    43358.631    20100.945     8815.493        8.661        3.614      317.513      106.218        0.112      349.111       29.295      856.476
09/15/2013  14:26:00     -361.629     -285.886       -4.759      220.226      172.248       95.120    48499.598    29669.473     9047.890       14.986        4.361      460.984       92.751        0.040      348.898       28.926      856.483
09/15/2013  14:27:00     -326.268     -255.110      -12.418      220.911      162.455       90.427    48801.802    26391.711     8177.130       12.751        4.169      414.164       90.897        0.048      348.824       28.798      856.464
09/15/2013  14:28:00     -340.069     -209.632       24.542      188.622      172.263      108.729    35578.395    29674.575    11821.942       11.862        3.854      399.490      107.619        0.073      348.989       29.085      856.470
09/15/2013  14:29:00     -288.677     -162.429       -3.305      169.964      152.935       71.850    28887.764    23389.112     5162.493        8.357        2.872      331.237       77.996        0.055      348.995       29.095      856.464
09/15/2013  14:30:00     -198.377     -202.049       -1.222      152.404      137.924       65.692    23226.918    19022.950     4315.482        6.336        2.328      283.156       57.636        0.041      348.926       28.977      856.439
09/15/2013  14:31:00     -297.726     -271.801       -3.212      200.157      150.548      101.321    40062.786    22664.775    10266.029       11.775        3.650      403.133      111.626        0.077      349.047       29.185      856.456
09/15/2013  14:32:00     -254.949     -202.679       -9.246      117.816      126.085       71.656    13880.621    15897.481     5134.590        7.053        1.746      325.696       64.263        0.039      349.014       29.127      856.446
09/15/2013  14:33:00       13.817     -229.628      -23.278      146.705      108.541       75.450    21522.293    11781.239     5692.666        4.622        1.950      230.044       49.153        0.046      349.046       29.181      856.445
09/15/2013  14:34:00     -151.685     -211.760       -8.020      172.730      120.203       75.385    29835.824    14448.778     5682.965        5.893        2.498      260.482       55.080        0.045      349.146       29.357      856.473
09/15/2013  14:35:00     -151.458     -225.025       16.062      143.065      135.632       62.422    20467.613    18396.053     3896.512        5.829        2.138      271.249       82.752        0.093      349.156       29.376      856.460
09/15/2013  14:36:00     -145.619     -130.659       12.152      157.952      109.605       54.741    24948.739    12013.346     2996.560        3.918        1.998      195.644       45.001        0.053      349.254       29.543      856.421
09/15/2013  14:37:00     -119.159     -248.947      -14.234      100.248      142.909       65.379    10049.635    20422.880     4274.413        5.555        1.737      275.996       55.345        0.040      348.822       28.795      856.434
09/15/2013  14:38:00     -299.050     -382.739       -7.401      152.157      174.961       74.687    23151.867    30611.423     5578.144       14.765        2.967      485.716       81.470        0.028      348.831       28.810      856.401
09/15/2013  14:39:00     -294.842     -260.801       -8.413      149.546      136.509       73.361    22364.030    18634.716     5381.816       10.069        2.319      393.635       71.205        0.033      348.764       28.696      856.379
09/15/2013  14:40:00     -372.270     -300.871      -11.147      232.247      169.935       91.997    53938.529    28877.952     8463.480       16.024        4.564      478.653      101.274        0.045      348.880       28.895      856.349
09/15/2013  14:41:00     -377.758     -228.929      -14.965      208.254      209.752      110.933    43369.898    43996.107    12306.217       14.748        4.984      441.712      120.207        0.074      349.001       29.105      856.337
09/15/2013  14:42:00     -509.492     -201.435      -24.487      231.722      166.687       86.306    53695.282    27784.409     7448.745       19.482        4.446      547.867       83.909        0.023      349.008       29.118      856.313
09/15/2013  14:43:00     -320.181     -128.188       -4.078      170.560      149.725       82.163    29090.771    22417.628     6750.815        8.860        2.913      344.888       68.062        0.039      349.068       29.221      856.328
09/15/2013  14:44:00     -433.010     -190.218       -8.086      207.538      216.801       95.603    43072.133    47002.472     9139.896       16.146        4.961      472.949      106.155        0.050      349.091       29.261      856.355
09/15/2013  14:45:00     -340.069     -157.444       -2.458      202.859      174.413       84.557    41151.684    30419.834     7149.892       10.957        3.936      374.748       97.071        0.067      348.921       28.966      856.338
09/15/2013  14:46:00     -265.760     -111.263       -2.986      169.732      151.331       78.165    28809.006    22901.164     6109.712        7.041        2.891      288.111       96.996        0.113      349.005       29.113      856.309
09/15/2013  14:47:00     -310.338     -160.586       -0.261      164.761      106.489       72.706    27146.264    11339.836     5286.202        8.293        2.189      349.425       78.264        0.050      349.114       29.300      856.261
09/15/2013  14:48:00     -387.863     -209.829      -11.254      218.162      217.510       85.027    47594.831    47310.791     7229.560       14.834        5.107      440.982      102.617        0.054      349.114       29.300      856.260
09/15/2013  14:49:00     -320.898     -275.096        2.254      250.492      171.571      112.268    62746.451    29436.540    12604.186       14.170        5.239      422.674      139.344        0.109      349.068       29.222      856.261
09/15/2013  14:50:00     -273.223     -216.287       11.750      169.911      164.485       82.291    28869.891    27055.422     6771.739        9.212        3.135      348.469       79.000        0.051      348.966       29.044      856.261
09/15/2013  14:51:00     -151.746     -126.623       -1.210      142.603      109.951       69.604    20335.758    12089.251     4844.757        3.816        1.863      197.637       83.755        0.180      349.071       29.227      856.261
09/15/2013  14:52:00     -291.015     -177.816      -19.301      160.148      163.779       70.612    25647.352    26823.581     4986.099        8.706        2.873      341.040       63.826        0.035      349.052       29.193      856.235
09/15/2013  14:53:00     -324.631     -138.409      -11.641      168.540      127.283       84.255    28405.823    16200.950     7098.884        8.818        2.585      352.906       82.355        0.054      349.090       29.259      856.220
09/15/2013  14:54:00     -286.848     -224.930        9.626      174.241      152.399       80.345    30359.766    23225.580     6455.258        9.649        3.002      364.521       80.802        0.049      349.213       29.472      856.204
09/15/2013  14:55:00     -278.229     -129.402      -10.679      130.289      128.496       59.115    16975.187    16511.278     3494.554        6.562        1.849      306.849       50.591        0.027      349.353       29.715      856.191
09/15/2013  14:56:00     -409.679     -232.190       -2.014      250.012      207.433      100.988    62505.919    43028.284    10198.595       16.872        5.787      470.902      103.573        0.048      349.126       29.323      856.202
09/15/2013  14:57:00     -291.120      -68.702       -3.861      140.051      150.766       81.139    19614.167    22730.247     6583.516        6.920        2.446      299.117       64.086        0.046      348.998       29.100      856.180
09/15/2013  14:58:00     -211.752     -156.100        3.164      159.082      134.798       75.132    25307.001    18170.400     5644.787        5.916        2.456      263.071       70.827        0.072      349.244       29.525      856.174
09/15/2013  14:59:00     -302.765      -42.342       11.477      196.618      167.936       75.778    38658.489    28202.382     5742.361        8.308        3.630      305.711       84.925        0.077      349.365       29.736      856.159
09/15/2013  15:00:00     -438.389      -71.759       13.921      239.729      167.536      105.833    57470.080    28068.223    11200.644       14.711        4.837      444.223      118.855        0.072      349.107       29.288      856.123
09/15/2013  15:01:00     -396.664     -262.963      -16.456      209.925      225.229       85.094    44068.400    50728.305     7240.958       16.438        5.102      475.911       84.992        0.032      348.920       28.966      856.098
09/15/2013  15:02:00     -345.584     -253.636       16.251      249.355      178.674      109.546    62177.804    31924.447    12000.379       14.504        5.305      428.672      127.681        0.089      349.031       29.159      856.107
09/15/2013  15:03:00     -357.395     -111.092       -1.027      238.757      145.580       84.396    57005.087    21193.622     7122.688       11.268        4.266      374.262       90.095        0.058      349.145       29.355      856.115
09/15/2013  15:04:00     -185.603     -190.263        1.289      150.401      128.384       74.845    22620.587    16482.326     5601.755        5.767        2.235      265.797       64.340        0.059      349.164       29.386      856.122
09/15/2013  15:05:00     -308.159     -138.098        1.100      156.247      147.918       74.115    24413.047    21879.663     5493.047        8.290        2.589      337.688       73.452        0.047      349.177       29.409      856.107
09/15/2013  15:06:00     -132.887     -179.268       19.496      170.191      129.732       66.456    28964.881    16830.323     4416.428        5.018        2.511      223.150       62.090        0.077      349.209       29.467      856.094
09/15/2013  15:07:00     -337.261     -252.111        9.522      223.647      177.566       92.177    50018.109    31529.805     8496.539       13.370        4.502      421.076      111.716        0.070      349.197       29.445      856.098
09/15/2013  15:08:00     -297.834     -133.881        0.052      222.912      143.079       90.309    49689.931    20471.699     8155.798        9.246        3.916      326.541       94.309        0.083      349.183       29.419      856.088
09/15/2013  15:09:00     -399.802     -241.433      -11.234      188.924      228.059       92.861    35692.186    52011.085     8623.136       15.727        4.816      467.046      100.260        0.046      349.113       29.298      856.109
09/15/2013  15:10:00     -395.215     -240.136       -7.889      266.994      197.141       97.328    71285.665    38864.552     9472.823       16.675        5.981      462.450      119.696        0.067      348.995       29.095      856.074
09/15/2013  15:11:00     -506.254     -322.661        5.783      337.102      202.566      125.909   113637.931    41032.962    15853.051       26.545        8.526      600.336      158.328        0.070      348.890       28.911      856.072
09/15/2013  15:12:00     -510.067     -365.590      -26.975      256.145      222.043      117.360    65610.223    49303.247    13773.471       26.159        6.434      627.554      122.304        0.038      348.738       28.650      856.108
09/15/2013  15:13:00     -406.118     -161.895      -14.885      229.426      174.750       88.068    52636.401    30537.398     7756.058       14.113        4.546      437.197      103.770        0.056      348.981       29.071      856.115
09/15/2013  15:14:00     -238.449     -104.683       -6.434      141.877      109.219       61.018    20129.192    11928.820     3723.247        5.181        1.789      260.416       61.466        0.056      349.100       29.277      856.105
09/15/2013  15:15:00     -455.246     -236.654      -12.742      209.510      191.880       92.119    43894.357    36817.907     8485.907       17.629        4.460      513.083      103.827        0.041      349.058       29.203      856.128
09/15/2013  15:16:00     -534.954     -379.677      -22.928      269.636      220.034      104.227    72703.552    48414.873    10863.172       28.139        6.599      655.996      132.838        0.041      348.979       29.067      856.090
09/15/2013  15:17:00     -547.404     -363.398      -24.719      261.883      199.503      106.456    68582.811    39801.350    11332.817       27.599        5.986      657.046      119.927        0.033      348.885       28.904      856.081
09/15/2013  15:18:00     -422.682     -282.120       -0.414      216.418      204.923       96.753    46836.556    41993.340     9361.132       17.820        4.910      508.185      104.304        0.042      348.995       29.095      856.085
09/15/2013  15:19:00     -407.106     -150.047       11.797      265.953      195.678       86.603    70731.150    38289.954     7500.059       15.243        5.826      433.877      103.206        0.057      348.962       29.037      856.096
09/15/2013  15:20:00     -409.749     -314.819      -13.331      182.620      163.030       89.140    33350.099    26578.862     7945.942       16.752        3.394      516.725       84.133        0.027      348.891       28.914      856.073
09/15/2013  15:21:00     -425.094     -269.481       -6.645      228.428      208.736       93.355    52179.463    43570.885     8715.172       17.890        5.223      503.314      101.888        0.041      348.957       29.029      856.070
09/15/2013  15:22:00     -339.325     -156.778      -10.372      208.628      203.091       88.953    43525.806    41245.792     7912.653       11.624        4.634      373.793      100.583        0.072      349.005       29.112      856.030
09/15/2013  15:23:00     -395.602     -271.047      -21.742      162.234      139.979       84.066    26319.928    19594.258     7067.086       14.170        2.649      479.550       92.969        0.038      349.018       29.135      856.023
09/15/2013  15:24:00     -198.034     -160.916       -9.214      112.757      113.331       54.387    12714.091    12843.934     2957.938        4.685        1.426      255.169       52.887        0.043      349.125       29.321      856.043
09/15/2013  15:25:00     -391.568     -156.206        1.705      163.770      170.943       96.531    26820.483    29221.518     9318.288       12.153        3.268      421.575       94.863        0.051      349.102       29.280      856.050
09/15/2013  15:26:00     -391.731     -186.657      -16.806      201.673      190.833       92.679    40672.183    36417.201     8589.393       13.711        4.284      433.928      102.154        0.055      349.046       29.184      856.054
09/15/2013  15:27:00     -329.300     -231.404       -4.023      227.530      152.508       86.165    51769.971    23258.662     7424.459       12.221        4.123      402.475       88.160        0.048      348.983       29.075      856.046
09/15/2013  15:28:00     -330.691     -187.713      -26.020      184.100      184.266       81.427    33892.743    33953.800     6630.410       10.986        3.724      380.253       90.122        0.056      348.975       29.059      856.012
09/15/2013  15:29:00     -288.664     -194.840       -6.146      271.510      253.753      106.601    73717.744    64390.801    11363.805       13.537        7.474      348.267      146.171        0.176      349.179       29.414      855.951
09/15/2013  15:30:00     -302.001     -215.313       -2.410      225.423      149.982       86.958    50815.585    22494.499     7561.624       10.920        4.044      370.896      103.440        0.078      349.111       29.297      856.001
09/15/2013  15:31:00     -177.513     -122.424       10.546      159.016      164.531       73.098    25285.938    27070.536     5343.306        5.214        2.885      215.635       79.664        0.136      349.352       29.715      855.991
09/15/2013  15:32:00     -327.993     -145.913       -2.264      192.904      181.491       82.188    37211.976    32938.809     6754.888       10.288        3.845      358.985       88.313        0.061      349.221       29.487      856.003
09/15/2013  15:33:00     -405.002     -241.442        5.537      255.877      188.746      106.540    65473.089    35625.175    11350.785       16.738        5.622      471.509      121.264        0.066      349.152       29.366      855.975
09/15/2013  15:34:00     -231.275     -225.266       18.610      228.895      186.027       88.924    52393.146    34606.129     7907.530        9.972        4.745      322.851       91.954        0.081      349.090       29.260      856.014
09/15/2013  15:35:00     -478.767     -282.646      -11.961      313.321      200.614      124.317    98170.124    40246.064    15454.704       23.153        7.694      555.974      163.717        0.087      348.865       28.869      856.026
09/15/2013  15:36:00     -464.253     -155.028      -12.754      234.992      168.554       91.082    55221.259    28410.451     8295.997       16.581        4.596      489.453       98.832        0.041      348.827       28.804      856.032
09/15/2013  15:37:00     -452.017     -256.731      -23.085      226.340      201.066       84.103    51229.679    40427.545     7073.329       18.473        4.937      519.837      115.362        0.049      348.916       28.957      856.018
09/15/2013  15:38:00     -429.200     -292.624        8.647      261.716      190.659       99.847    68495.243    36350.795     9969.363       19.234        5.741      519.463      115.665        0.050      348.926       28.974      856.029
09/15/2013  15:39:00     -505.982     -371.717        4.523      237.861      192.503      105.681    56577.672    37057.554    11168.470       24.949        5.240      627.847      119.413        0.036      348.903       28.935      856.001
09/15/2013  15:40:00     -365.007     -253.285       -2.252      191.089      198.246       86.117    36515.043    39301.587     7416.213       14.029        4.162      444.278       97.126        0.048      348.990       29.086      856.016
09/15/2013  15:41:00     -293.496     -231.205        1.279      208.526      187.376       83.998    43483.022    35109.935     7055.702       11.261        4.282      373.625       95.909        0.066      349.033       29.161      856.033
09/15/2013  15:42:00     -353.196     -206.541       14.935      231.159      212.124       91.984    53434.621    44996.590     8461.046       13.724        5.345      409.153      102.222        0.062      349.050       29.190      856.020
09/15/2013  15:43:00     -428.000     -239.455       -9.272      223.992      184.008       87.768    50172.367    33858.998     7703.147       16.615        4.587      490.431      104.593        0.045      348.988       29.083      856.012
09/15/2013  15:44:00     -417.055     -286.658      -18.325      209.728      257.852      101.186    43985.637    66487.550    10238.673       18.855        6.036      506.071       72.629        0.021      348.959       29.032      856.019
09/15/2013  15:45:00     -293.087     -191.053        3.030      213.038      161.680       82.079    45385.130    26140.385     6737.002       10.032        3.913      349.859      101.797        0.085      348.993       29.091      856.028
09/15/2013  15:46:00     -439.215     -326.200       -0.440      241.001      163.602      109.351    58081.643    26765.645    11957.635       19.804        4.840      547.098      125.703        0.053      348.957       29.030      856.013
09/15/2013  15:47:00     -351.103     -180.955       -0.402      213.102      114.265       92.270    45412.652    13056.487     8513.736       11.149        3.349      394.991      104.486        0.070      349.077       29.237      856.029
09/15/2013  15:48:00     -393.150     -322.864       -9.818      191.069      132.202       85.091    36507.409    17477.456     7240.444       16.005        3.061      508.732       84.741        0.028      348.876       28.888      856.014
09/15/2013  15:49:00     -328.420     -147.903      -13.315      197.395      180.237       84.271    38964.675    32485.274     7101.682       10.422        3.928      360.187      107.656        0.089      349.069       29.223      856.017
09/15/2013  15:50:00     -372.514     -283.043      -24.062      209.237      159.008       92.219    43779.913    25283.433     8504.336       14.850        3.878      467.846       94.707        0.041      348.920       28.964      856.007
09/15/2013  15:51:00     -209.821     -199.291       -8.604      130.619      147.926       59.913    17061.338    21882.010     3589.528        6.317        2.127      289.382       59.973        0.043      349.119       29.310      855.985
09/15/2013  15:52:00     -329.378     -136.560        0.412      185.023      159.838       80.609    34233.439    25548.202     6497.793        9.670        3.314      356.565       95.354        0.072      349.118       29.307      855.994
09/15/2013  15:53:00     -396.553      -74.778      -23.823      165.908      157.599       74.315    27525.502    24837.534     5522.682       11.064        2.894      403.542       82.284        0.042      348.995       29.095      855.985
09/15/2013  15:54:00     -329.160     -117.872       -6.082      227.165      153.037       78.195    51603.820    23420.287     6114.457       10.169        4.057      349.628      102.202        0.085      348.979       29.066      855.975
09/15/2013  15:55:00     -405.779     -241.176        1.510      219.633      182.163       86.940    48238.799    33183.367     7558.596       15.589        4.449      472.041       91.863        0.038      349.060       29.208      855.959
09/15/2013  15:56:00     -329.353     -155.000       -1.900      216.843      148.345       70.052    47020.794    22006.138     4907.303       10.320        3.697      364.004       79.696        0.048      349.007       29.115      855.995
09/15/2013  15:57:00     -526.385     -303.659      -28.283      247.659      203.610      101.378    61334.930    41457.054    10277.420       24.156        5.653      607.693      113.522        0.035      348.717       28.613      855.963
09/15/2013  15:58:00     -356.631     -103.187       -1.247      192.265      208.817       98.376    36966.001    43604.540     9677.777       11.402        4.512      371.259      106.607        0.082      348.939       28.998      855.942
09/15/2013  15:59:00     -143.553     -151.633        9.537      188.205      119.079       75.168    35420.976    14179.917     5650.166        4.946        2.763      208.806       85.864        0.169      349.253       29.544      855.996
09/15/2013  16:00:00     -176.070     -223.954        4.831      153.130      160.715       72.192    23448.685    25829.304     5211.748        6.782        2.724      284.879       76.587        0.072      349.181       29.418      856.002
09/15/2013  16:01:00     -134.253     -362.418       -6.690      153.002      122.242       65.254    23409.600    14943.118     4258.070        9.600        2.131      386.485       52.651        0.019      349.062       29.209      856.020
09/15/2013  16:02:00     -254.704     -216.049        8.029      124.637      121.726       70.674    15534.411    14817.246     4994.765        7.347        1.767      333.993       52.989        0.025      349.178       29.412      856.038
09/15/2013  16:03:00     -351.845     -221.022       15.789      165.517      174.020       90.054    27395.768    30282.963     8109.725       11.933        3.289      415.507       93.393        0.051      348.933       28.986      856.008
09/15/2013  16:04:00     -351.277     -259.079       -4.571      243.542      207.757      103.064    59312.489    43163.136    10622.270       15.180        5.655      436.483       98.921        0.051      348.960       29.036      856.014
09/15/2013  16:05:00     -416.724     -230.698       -1.095      303.148      203.438      106.742    91898.630    41387.110    11393.948       18.575        7.234      476.319      136.403        0.082      348.766       28.699      856.021
09/15/2013  16:06:00     -364.121     -275.284       -1.170      230.163      228.412      110.541    52975.125    52172.048    12219.396       16.284        5.868      456.471      118.653        0.068      348.733       28.642      856.046
09/15/2013  16:07:00     -403.566     -199.912        3.015      184.066      138.056       79.136    33880.312    19059.328     6262.462       13.101        2.960      450.367       79.540        0.031      348.679       28.547      856.015
09/15/2013  16:08:00     -303.678     -287.039        9.394      153.146      148.255      104.200    23453.699    21979.652    10857.583       11.548        2.815      417.866       90.841        0.047      348.879       28.894      856.010
09/15/2013  16:09:00     -390.008     -225.763      -13.139      200.691      156.272       79.580    40277.076    24420.846     6332.930       13.713        3.552      450.639       87.452        0.038      348.854       28.850      855.995
09/15/2013  16:10:00     -186.324     -203.485        8.802      210.773      154.714      107.615    44425.075    23936.512    11580.983        7.806        3.997      275.903      121.351        0.193      348.913       28.955      855.977
09/15/2013  16:11:00     -231.686     -106.794       -5.642      136.665      107.153       58.700    18677.332    11481.831     3445.683        4.935        1.680      255.114       57.165        0.050      348.995       29.097      855.956
09/15/2013  16:12:00     -225.615     -202.682        6.794      165.587      147.163       76.547    27419.074    21656.904     5859.382        7.347        2.747      303.286       85.022        0.079      349.055       29.198      855.980
09/15/2013  16:13:00     -325.815     -167.235      -12.594      175.589      129.281       79.469    30831.506    16713.606     6315.246        9.406        2.693      366.228       83.841        0.052      349.096       29.271      855.987
09/15/2013  16:14:00     -302.531     -114.335        3.122      150.074      135.709       79.877    22522.205    18416.920     6380.344        7.595        2.366      323.415       88.378        0.075      349.160       29.381      855.987
09/15/2013  16:15:00     -510.377     -102.057      -18.880      219.081      173.791      105.868    47996.442    30203.385    11208.021       18.031        4.470      520.481      114.215        0.048      348.741       28.653      855.945
09/15/2013  16:16:00     -408.380     -130.577        3.972      195.573      154.062       90.899    38248.608    23735.035     8262.701       12.703        3.512      428.747      102.808        0.057      348.930       28.982      855.968
09/15/2013  16:17:00     -352.268     -185.762        5.071      228.377      230.809       96.927    52155.941    53272.808     9394.835       13.670        5.741      398.246      108.005        0.074      348.889       28.911      855.981
09/15/2013  16:18:00     -480.474     -248.387      -26.689      241.617      191.068      118.407    58378.820    36506.974    14020.294       20.106        5.445      540.880      116.211        0.046      348.845       28.835      855.986
09/15/2013  16:19:00     -349.688     -197.112       -0.178      206.692      141.378       96.938    42721.772    19987.691     9396.991       11.661        3.605      401.416      105.897        0.070      348.864       28.868      856.002
09/15/2013  16:20:00     -249.895     -164.837        0.432      176.232      144.805       73.691    31057.690    20968.489     5430.345        7.353        2.873      299.364       89.047        0.088      348.945       29.008      856.007
09/15/2013  16:21:00     -270.057     -153.900      -13.064      158.069      113.189       68.531    24985.687    12811.647     4696.482        6.963        2.125      310.831       62.710        0.041      348.967       29.047      855.988
09/15/2013  16:22:00     -217.430     -166.365       13.828      179.780      144.150       81.223    32320.859    20779.289     6597.113        6.741        2.985      273.776       95.488        0.122      349.054       29.196      855.967
09/15/2013  16:23:00     -463.651     -317.797      -20.243      224.902      198.913      104.903    50580.829    39566.183    11004.666       20.874        5.058      562.110      105.558        0.035      348.926       28.976      855.950
09/15/2013  16:24:00     -278.266     -197.029       13.006      190.826      134.009       81.123    36414.720    17958.358     6580.911        8.868        3.048      340.959       77.975        0.052      349.047       29.185      855.953
09/15/2013  16:25:00     -454.008     -163.391       -0.341      237.137      121.798       82.861    56233.816    14834.674     6865.939       15.536        3.897      482.514       86.904        0.032      349.003       29.108      855.926
09/15/2013  16:26:00     -495.857     -146.194      -13.618      240.032      199.228      105.403    57615.341    39691.682    11109.865       18.790        5.421      516.960      110.396        0.046      348.874       28.885      855.923
09/15/2013  16:27:00     -294.166     -231.240       -9.364      185.745      189.017       75.040    34501.353    35727.553     5630.991       10.796        3.793      374.173       85.264        0.052      348.800       28.757      855.913
09/15/2013  16:28:00     -431.392     -156.546      -11.201      334.265      222.923      129.918   111733.399    49694.464    16878.664       19.448        8.915      458.918      177.873        0.150      348.870       28.877      855.860
09/15/2013  16:29:00     -429.938     -300.504       -8.626      275.418      189.517      113.761    75854.946    35916.725    12941.565       19.994        6.236      524.547      127.680        0.059      348.797       28.751      855.931
09/15/2013  16:30:00     -331.686     -275.876        0.165      201.286      157.853      112.877    40516.169    24917.629    12741.298       13.213        3.909      431.420      113.275        0.069      348.799       28.756      855.929
09/15/2013  16:31:00     -333.376     -191.983      -14.283      247.400      207.816       89.661    61206.754    43187.589     8039.074       13.029        5.622      384.704      114.517        0.089      348.882       28.900      855.962
09/15/2013  16:32:00     -381.469     -171.715      -36.538      156.026      148.424       76.175    24344.146    22029.573     5802.643       11.425        2.609      418.335       71.087        0.029      348.780       28.722      855.954
09/15/2013  16:33:00     -160.698      -26.524       29.438      160.979      123.036       80.274    25914.130    15137.943     6443.956        3.744        2.375      162.872       81.430        0.250      348.972       29.055      855.938
09/15/2013  16:34:00     -213.171     -129.194       37.235      246.393      152.292      100.409    60709.355    23192.857    10081.930        7.873        4.699      249.265      133.593        0.287      348.901       28.932      855.950
09/15/2013  16:35:00     -309.737     -236.311        6.735      195.586      190.420       84.327    38253.858    36259.886     7111.002       11.671        4.081      389.589       76.586        0.039      348.807       28.769      855.970
09/15/2013  16:36:00     -281.561     -239.700       -0.351      171.142      165.569       71.229    29289.647    27413.050     5073.586        9.924        3.089      369.774       88.523        0.057      348.873       28.884      855.965
09/15/2013  16:37:00     -241.145     -116.537       -5.537      132.215       83.981       52.933    17480.759     7052.862     2801.852        4.954        1.367      267.828       60.070        0.050      348.897       28.924      855.962
09/15/2013  16:38:00     -240.123     -185.758        2.004      142.462      107.585       65.805    20295.329    11574.607     4330.354        6.418        1.810      303.587       64.419        0.045      348.992       29.088      855.986
09/15/2013  16:39:00     -295.221     -148.684      -31.646      196.102      113.358       60.108    38456.048    12850.011     3612.963        8.258        2.746      330.549       79.437        0.058      348.898       28.927      855.962
09/15/2013  16:40:00     -423.595     -239.569      -14.417      209.521      153.785       81.962    43899.089    23649.771     6717.758       15.564        3.713      486.647       72.595        0.022      348.736       28.645      855.947
09/15/2013  16:41:00     -402.320     -303.130       -2.339      254.635      219.810      109.934    64838.836    48316.395    12085.575       18.947        6.262      503.735      125.762        0.062      348.722       28.622      855.894
09/15/2013  16:42:00     -529.608     -366.786       -3.005      209.038      174.452       96.766    43697.006    30433.413     9363.594       24.924        4.175      644.218      110.629        0.029      348.572       28.363      855.894
09/15/2013  16:43:00     -316.711     -240.385       -2.556      178.173      189.688       97.816    31745.515    35981.383     9568.039       11.768        3.865      397.606       95.813        0.058      348.721       28.621      855.904
09/15/2013  16:44:00     -387.206     -262.890       -4.837      227.695      171.608      101.104    51845.193    29449.167    10222.085       15.527        4.576      468.016      116.764        0.062      348.617       28.439      855.916
09/15/2013  16:45:00     -476.667     -261.444      -17.671      171.653      152.835       90.779    29464.713    23358.640     8240.912       17.846        3.053      543.658       85.470        0.025      348.637       28.475      855.913
09/15/2013  16:46:00     -473.391     -344.792      -10.677      207.216      183.677      113.720    42938.510    33737.394    12932.258       21.633        4.480      585.645      126.899        0.047      348.610       28.428      855.892
09/15/2013  16:47:00     -416.925     -217.232       -0.644      203.000      158.933       85.464    41208.861    25259.672     7304.097       14.738        3.689      470.124       83.023        0.031      348.717       28.614      855.892
09/15/2013  16:48:00     -410.708      -96.711       -1.649      166.518      198.105      103.544    27728.247    39245.739    10721.317       12.785        3.885      421.941      101.621        0.058      348.711       28.603      855.886
09/15/2013  16:49:00     -307.086     -168.952        3.881      157.724      143.302       74.803    24876.911    20535.381     5595.453        8.692        2.550      350.494       74.412        0.045      348.794       28.748      855.919
09/15/2013  16:50:00     -358.061     -275.090       -9.440      206.949      129.423       82.576    42827.925    16750.356     6818.726       13.517        3.320      451.534       90.063        0.040      348.693       28.572      855.941
09/15/2013  16:51:00     -384.210     -299.328        1.605      201.183      174.613       87.862    40474.480    30489.690     7719.669       15.793        3.934      487.047       99.318        0.042      348.660       28.516      855.891
09/15/2013  16:52:00     -439.899     -177.150        2.743      248.449      182.133       99.086    61726.756    33172.356     9818.083       16.479        5.236      474.229      100.933        0.045      348.713       28.606      855.891
09/15/2013  16:53:00     -558.628     -220.031      -21.794      253.214      173.303       99.397    64117.126    30033.809     9879.773       23.247        5.202      600.399      121.398        0.041      348.650       28.497      855.859
09/15/2013  16:54:00     -452.871     -226.931       -0.818      298.350      235.301      111.061    89012.601    55366.344    12334.508       20.662        7.836      506.547      136.377        0.072      348.656       28.508      855.866
09/15/2013  16:55:00     -463.083     -237.238       -5.016      236.453      192.275      113.332    55909.957    36969.844    12844.211       18.822        5.286      520.315      135.420        0.068      348.613       28.432      855.927
09/15/2013  16:56:00     -336.089     -215.556      -15.390      224.260      128.447       85.533    50292.734    16498.700     7315.916       11.687        3.705      399.274       94.760        0.056      348.670       28.532      855.943
09/15/2013  16:57:00     -311.470     -167.737       13.870      198.076      149.947       79.566    39234.193    22484.221     6330.738        9.668        3.402      353.764       99.697        0.079      348.690       28.568      855.953
09/15/2013  16:58:00     -392.389     -220.406       -9.401      186.066      141.613       71.720    34620.426    20054.381     5143.765       13.122        2.991      450.053       70.605        0.025      348.699       28.581      855.949
09/15/2013  16:59:00     -296.054     -185.544        1.951      167.649      151.784       81.691    28106.308    23038.393     6673.387        8.994        2.891      349.391       86.195        0.061      348.666       28.525      855.923
09/15/2013  17:00:00     -292.324     -236.919      -11.819      206.974      148.275       79.248    42838.223    21985.507     6280.242       10.640        3.555      376.276       88.456        0.055      348.695       28.576      855.920
09/15/2013  17:01:00     -382.283     -258.274       14.342      239.322      240.359      106.950    57274.942    57772.480    11438.396       16.974        6.324      461.351      128.668        0.078      348.601       28.412      855.899
09/15/2013  17:02:00     -497.819     -206.090      -13.153      254.792      197.408       94.583    64918.774    38969.739     8946.018       20.163        5.642      538.793      109.386        0.041      348.535       28.297      855.948
09/15/2013  17:03:00     -426.106     -113.043      -17.475      188.801      146.132       94.448    35645.630    21354.598     8920.439       13.027        3.296      440.846       91.943        0.043      348.520       28.273      855.995
09/15/2013  17:04:00     -408.029     -128.318       14.688      176.864      177.547       86.208    31280.905    31522.830     7431.874       12.669        3.512      427.731       81.529        0.036      348.531       28.292      855.962
09/15/2013  17:05:00     -249.307     -227.936       25.533      262.456      237.751       87.021    68883.325    56525.577     7572.695       12.384        6.649      337.800      110.109        0.106      348.610       28.428      855.965
09/15/2013  17:06:00     -231.202     -143.224        4.275      170.315       94.088       63.997    29007.340     8852.625     4095.630        5.796        2.098      271.969       74.958        0.076      348.804       28.765      855.988
09/15/2013  17:07:00     -264.545      -77.040       -1.318      170.163      127.524       74.443    28955.421    16262.322     5541.828        6.333        2.538      275.534       66.227        0.058      348.702       28.586      855.960
09/15/2013  17:08:00     -253.161     -148.817       12.791      153.034      152.714       80.152    23419.460    23321.643     6424.391        6.977        2.658      293.661       77.293        0.069      348.743       28.658      855.972
09/15/2013  17:09:00     -513.934     -333.620      -15.756      226.095      158.268       95.084    51118.972    25048.794     9041.055       23.043        4.260      612.724       99.697        0.026      348.436       28.128      855.982
09/15/2013  17:10:00     -523.712     -356.996      -26.507      159.113      142.556       88.919    25316.967    20322.216     7906.627       22.797        2.677      633.814       87.238        0.019      348.372       28.015      855.987
09/15/2013  17:11:00     -372.639     -222.290      -12.216      166.722      172.108       75.974    27796.176    29621.076     5772.017       12.579        3.159      433.904       71.652        0.027      348.468       28.183      856.009
09/15/2013  17:12:00     -127.338     -299.709        2.528      121.953      194.083       77.512    14872.546    37668.167     6008.155        8.229        2.927      325.639       73.439        0.051      348.608       28.424      856.020
09/15/2013  17:13:00      -95.995     -382.046       23.955      133.266      203.040       85.739    17759.694    41225.213     7351.218       11.103        3.317      393.922       72.979        0.034      348.631       28.465      856.008
09/15/2013  17:14:00     -171.627     -195.220       11.833      150.061      126.415       82.794    22518.345    15980.671     6854.812        5.652        2.268      259.936       79.134        0.093      348.692       28.571      856.003
09/15/2013  17:15:00     -324.362     -112.878       -7.745      155.927      129.173       68.607    24313.190    16685.577     4706.933        8.185        2.285      343.442       69.399        0.041      348.778       28.721      856.034
09/15/2013  17:16:00     -492.795     -149.950       -4.823      278.014      247.293      120.422    77291.553    61154.033    14501.534       20.912        7.647      515.104      153.330        0.089      348.607       28.423      856.026
09/15/2013  17:17:00     -380.381     -228.054        0.292      239.598      240.118       99.108    57407.054    57656.663     9822.463       16.077        6.244      443.507      112.815        0.065      348.484       28.211      856.024
09/15/2013  17:18:00     -343.330     -161.982        8.105      217.254      199.654       98.428    47199.315    39861.623     9688.088       12.044        4.837      379.623      114.699        0.091      348.496       28.231      856.005
09/15/2013  17:19:00     -351.961     -162.877       -4.143      182.141      165.976       80.556    33175.370    27547.982     6489.295       10.880        3.361      387.822       94.033        0.059      348.441       28.136      856.004
09/15/2013  17:20:00     -339.241      -85.374       -4.517      188.812      153.195       78.156    35650.032    23468.631     6108.322        9.380        3.261      349.819       84.380        0.058      348.482       28.206      856.011
09/15/2013  17:21:00     -347.566     -240.776       -0.450      179.651      163.049       90.607    32274.350    26585.068     8209.584       12.291        3.353      422.818       97.543        0.053      348.367       28.009      856.009
09/15/2013  17:22:00     -379.987     -303.973      -11.927      191.405      162.625       95.328    36635.844    26446.835     9087.455       15.454        3.609      486.610       99.604        0.042      348.395       28.056      856.024
09/15/2013  17:23:00     -405.480     -228.818       -6.817      228.549      183.586      100.655    52234.488    33703.747    10131.400       15.642        4.803      465.588      110.028        0.056      348.328       27.941      855.974
09/15/2013  17:24:00     -363.789     -277.445      -13.128      128.158      120.506       68.841    16424.393    14521.763     4739.139       12.258        1.784      457.513       67.930        0.022      348.359       27.995      856.030
09/15/2013  17:25:00     -403.942     -186.449       -1.850      189.152      127.646       84.142    35778.468    16293.454     7079.888       12.853        2.958      444.896       88.269        0.039      348.400       28.065      856.043
09/15/2013  17:26:00     -317.508     -102.896       -7.017      154.123      139.182       67.511    23753.935    19371.755     4557.718        7.956        2.384      333.765       66.450        0.040      348.410       28.081      856.051
09/15/2013  17:27:00     -266.915       -7.644       10.756      211.661      148.553       90.199    44800.403    22068.060     8135.900        7.320        3.750      267.025      120.855        0.205      348.430       28.117      856.031
09/15/2013  17:28:00     -450.509     -231.286      -18.923      153.555      154.543       85.618    23579.116    23883.671     7330.400       15.579        2.740      506.410       80.700        0.025      348.263       27.827      856.021
09/15/2013  17:29:00     -465.774     -140.294      -23.321      248.018      188.251       95.598    61513.014    35438.519     9138.894       17.161        5.305      486.445      104.883        0.046      348.316       27.918      855.996
09/15/2013  17:30:00     -331.939     -162.822        4.962      309.778      223.853      123.144    95962.288    50109.980    15164.332       14.895        8.062      369.722      154.946        0.176      348.233       27.776      855.965
09/15/2013  17:31:00     -575.614     -166.944      -27.890      228.127      217.460       99.262    52041.859    47288.923     9852.970       23.456        5.459      599.335      101.326        0.029      348.191       27.704      855.973
09/15/2013  17:32:00     -449.719     -200.006       -3.341      244.864      160.120      100.520    59958.139    25638.346    10104.185       16.896        4.785      492.188      122.332        0.062      348.199       27.718      856.004
09/15/2013  17:33:00     -347.433     -234.565      -22.892      172.405      186.801       83.474    29723.420    34894.649     6967.925       12.391        3.579      419.202       74.244        0.031      348.260       27.821      856.032
09/15/2013  17:34:00     -264.785     -219.592       -1.206      177.116      126.400       93.415    31370.015    15976.860     8726.310        8.719        2.804      343.994       91.970        0.071      348.333       27.949      856.063
09/15/2013  17:35:00     -433.024     -150.339      -14.893      185.569      121.597       78.245    34435.784    14785.844     6122.233       13.283        2.767      458.380       79.337        0.030      348.257       27.817      856.108
09/15/2013  17:36:00     -436.849     -122.172      -13.129      183.126      175.800       84.416    33535.295    30905.639     7126.054       13.874        3.578      453.611       85.032        0.035      348.183       27.689      856.084
09/15/2013  17:37:00     -371.836     -185.591        0.455      236.430      194.403      102.945    55899.080    37792.359    10597.619       13.848        5.214      415.579      121.986        0.086      348.101       27.549      856.082
09/15/2013  17:38:00     -331.974      -51.405        3.402      200.921      159.695       77.213    40369.325    25502.599     5961.889        9.233        3.592      335.931       86.501        0.066      348.177       27.680      856.071
09/15/2013  17:39:00     -426.859     -187.878      -15.225      195.879      145.561       86.292    38368.520    21187.984     7446.371       14.236        3.350      466.376       87.614        0.035      348.032       27.427      856.096
09/15/2013  17:40:00     -406.846     -179.227       -7.057      181.794      138.583       77.564    33048.946    19205.169     6016.160       12.797        2.914      444.574       77.663        0.031      348.028       27.422      856.095
09/15/2013  17:41:00     -375.355     -179.449       -7.492      220.993      175.989       88.088    48837.917    30972.232     7759.486       13.034        4.378      416.045       96.866        0.054      348.018       27.406      856.079
09/15/2013  17:42:00     -367.929     -215.928       -6.209      191.924      138.870       80.771    36834.785    19284.792     6524.008       12.233        3.132      426.611       90.022        0.045      348.043       27.448      856.113
09/15/2013  17:43:00     -547.793     -314.800      -27.203      232.668      208.030      116.599    54134.530    43276.542    13595.251       25.544        5.550      631.804      125.790        0.040      347.912       27.222      856.099
09/15/2013  17:44:00     -434.440     -147.745       -6.436      335.233      214.494      110.758   112381.143    46007.668    12267.432       19.060        8.533      458.876      138.723        0.091      347.874       27.156      856.113
09/15/2013  17:45:00     -584.004     -240.246      -24.419      275.316      225.316      111.414    75798.784    50767.497    12413.147       26.915        6.949      631.490      131.740        0.044      347.838       27.094      856.111
09/15/2013  17:46:00     -533.062     -234.845      -11.113      265.461      187.287      116.131    70469.731    35076.469    13486.358       22.921        5.952      582.501      124.999        0.046      347.835       27.087      856.115
09/15/2013  17:47:00     -430.068     -234.551       -9.337      269.923      160.798       99.564    72858.552    25855.843     9912.972       17.432        5.431      489.870      121.045        0.061      347.880       27.166      856.140
09/15/2013  17:48:00     -419.635     -176.905      -12.278      209.052      156.127       99.826    43702.650    24375.788     9965.213       14.278        3.902      455.399      106.188        0.054      347.918       27.230      856.131
09/15/2013  17:49:00     -353.524     -198.507       -8.544      234.499      174.537      101.537    54989.863    30463.272    10309.744       13.009        4.788      405.444      121.279        0.089      347.924       27.243      856.142
09/15/2013  17:50:00     -332.401     -192.168        1.543      207.700      181.223      112.125    43139.252    32841.896    12572.043       11.797        4.428      383.952      117.393        0.093      347.896       27.193      856.172
09/15/2013  17:51:00     -387.059     -151.005       22.789      258.189      198.707       96.458    66661.603    39484.484     9304.120       14.427        5.773      415.472      113.504        0.075      347.875       27.158      856.161
09/15/2013  17:52:00     -338.032     -228.900       -9.209      207.514      208.336       94.189    43061.909    43403.997     8871.511       13.102        4.767      408.241      112.816        0.076      347.842       27.099      856.149
09/15/2013  17:53:00     -269.898     -114.204       14.308      230.015      135.721       91.998    52906.705    18420.274     8463.638        8.293        3.990      293.066      111.526        0.145      347.890       27.183      856.191
09/15/2013  17:54:00     -335.933     -226.939        8.150      243.296      264.458      110.505    59192.720    69938.058    12211.376       15.285        7.067      405.404      118.136        0.085      347.839       27.096      856.224
09/15/2013  17:55:00     -491.924     -341.065       -0.111      251.224      212.762      120.335    63113.378    45267.776    14480.543       24.056        6.143      598.593      146.420        0.060      347.761       26.961      856.228
09/15/2013  17:56:00     -395.053     -275.227        3.827      243.467      144.753      103.355    59276.067    20953.325    10682.206       16.135        4.546      481.473      105.127        0.048      347.804       27.034      856.230
09/15/2013  17:57:00     -314.364     -130.311       -1.811      191.876      157.919       65.242    36816.385    24938.432     4256.555        9.090        3.301      340.302       73.169        0.046      347.858       27.128      856.265
09/15/2013  17:58:00     -332.710     -161.247       -8.695      195.953      124.193       74.519    38397.758    15423.860     5553.145        9.806        2.969      369.725       90.427        0.060      347.868       27.147      856.283
09/15/2013  17:59:00     -346.806     -222.239        3.265      190.004      132.856       86.076    36101.642    17650.823     7409.042       11.541        3.058      411.904      100.286        0.059      347.806       27.039      856.306
09/15/2013  18:00:00     -223.665      -92.424       -1.122      160.362      138.719       74.495    25715.817    19243.045     5549.503        5.453        2.525      242.009       66.031        0.074      347.821       27.065      856.311
09/15/2013  18:01:00     -495.404      -87.533      -15.431      220.312      213.933       91.498    48537.369    45767.129     8371.855       17.798        5.134      503.078       91.016        0.033      347.717       26.885      856.301
09/15/2013  18:02:00     -415.607     -173.455       -7.841      276.026      202.988      103.283    76190.394    41204.306    10667.447       16.544        6.403      450.351      118.990        0.070      347.685       26.831      856.287
09/15/2013  18:03:00     -423.065     -189.340      -21.489      155.203      149.097       76.847    24087.959    22230.025     5905.442       13.375        2.611      463.501       66.542        0.021      347.693       26.844      856.335
09/15/2013  18:04:00     -406.485     -222.326        8.032      257.529      170.894      101.411    66321.269    29204.815    10284.258       16.025        5.291      463.313       88.039        0.036      347.664       26.793      856.340
09/15/2013  18:05:00     -335.540     -239.490        6.752      266.641      182.690      122.309    71097.470    33375.472    14959.544       14.469        5.972      412.241      127.108        0.095      347.642       26.756      856.342
09/15/2013  18:06:00     -393.816     -186.445      -13.238      211.207      141.462       95.372    44608.483    20011.560     9095.763       13.186        3.686      435.721      114.705        0.069      347.658       26.782      856.355
09/15/2013  18:07:00     -381.795     -248.734       -5.818      229.158      184.564      117.606    52513.319    34063.939    13831.124       15.402        5.020      455.671      123.840        0.074      347.616       26.712      856.376
09/15/2013  18:08:00     -391.573     -248.075      -10.564      206.399      189.096      107.563    42600.452    35757.332    11569.693       15.244        4.496      463.542      103.999        0.050      347.579       26.647      856.418
09/15/2013  18:09:00     -376.075     -279.171       -5.813      271.309      215.239      121.676    73608.377    46327.778    14805.134       17.704        6.737      468.368      133.137        0.081      347.491       26.495      856.406
09/15/2013  18:10:00     -344.249     -187.930      -25.795      209.983      191.609       99.583    44092.789    36714.015     9916.869       12.259        4.536      392.205      112.165        0.082      347.537       26.574      856.387
09/15/2013  18:11:00     -554.789     -199.879      -20.106      251.503      205.117      112.429    63253.741    42072.854    12640.343       23.303        5.898      589.697      121.556        0.042      347.459       26.440      856.363
09/15/2013  18:12:00     -446.113     -179.032      -13.080      194.530      166.976       84.703    37842.087    27881.033     7174.573       15.205        3.645      480.697       92.909        0.037      347.482       26.481      856.359
09/15/2013  18:13:00     -493.592     -141.516       -0.924      207.012      198.553       92.430    42854.137    39423.137     8543.296       17.722        4.541      513.478      108.409        0.045      347.416       26.366      856.391
09/15/2013  18:14:00     -486.400     -341.373      -29.897      225.046      206.332      117.449    50645.743    42572.706    13794.166       23.049        5.351      594.240      119.805        0.041      347.398       26.334      856.411
09/15/2013  18:15:00     -481.184     -186.254      -14.382      281.952      196.691      101.273    79497.156    38687.294    10256.306       19.741        6.422      515.973      131.023        0.064      347.404       26.343      856.419
09/15/2013  18:16:00     -351.596     -133.607        5.541      243.907      202.140       93.627    59490.404    40860.599     8765.948       12.529        5.456      376.126      102.207        0.074      347.414       26.363      856.412
09/15/2013  18:17:00     -446.965     -229.352      -13.353      185.496      178.070       97.216    34408.814    31708.896     9450.983       16.405        3.778      502.374       79.102        0.025      347.388       26.318      856.415
09/15/2013  18:18:00     -393.098     -104.356       -0.436      191.352      156.130       95.591    36615.426    24376.480     9137.565       11.776        3.506      406.714       92.356        0.052      347.398       26.334      856.440
09/15/2013  18:19:00     -273.895     -105.339       -5.955      193.736      119.392       90.341    37533.731    14254.476     8161.566        7.304        2.997      293.453       95.145        0.105      347.381       26.305      856.446
09/15/2013  18:20:00     -339.924     -216.702      -16.686      188.362      150.179       98.395    35480.281    22553.615     9681.661       11.524        3.386      403.123       99.334        0.061      347.396       26.330      856.438
09/15/2013  18:21:00     -431.112     -158.956      -13.530      167.652      194.231       89.446    28107.164    37725.866     8000.569       14.256        3.692      459.484       86.237        0.035      347.370       26.288      856.488
09/15/2013  18:22:00     -265.960     -139.602        5.867      145.578      151.017       90.649    21192.922    22806.280     8217.165        7.123        2.611      300.372       92.617        0.095      347.394       26.327      856.482
09/15/2013  18:23:00     -248.954     -105.768       11.136      155.104      150.951       85.902    24057.158    22786.225     7379.205        6.374        2.711      270.490       88.945        0.108      347.384       26.311      856.503
09/15/2013  18:24:00     -426.336     -174.701      -35.136      232.437      178.432       96.029    54027.003    31837.862     9221.578       15.428        4.754      460.742      104.623        0.052      347.328       26.214      856.518
09/15/2013  18:25:00     -330.955     -134.318      -17.483      265.285      138.145       84.193    70375.929    19084.135     7088.522       11.219        4.827      357.173       89.076        0.062      347.307       26.177      856.545
09/15/2013  18:26:00     -405.035     -197.326      -18.484      226.923      169.437       87.915    51494.123    28709.009     7729.070       14.561        4.397      450.545       84.602        0.035      347.263       26.101      856.531
09/15/2013  18:27:00     -205.153      -39.778       21.721      169.567      128.670       86.333    28752.985    16556.096     7453.367        4.844        2.638      208.974       95.142        0.207      347.324       26.207      856.544
09/15/2013  18:28:00     -465.722     -183.337      -32.420      260.325      184.991      105.884    67768.864    34221.494    11211.431       18.236        5.660      500.509      110.063        0.048      347.247       26.074      856.544
09/15/2013  18:29:00     -316.683     -103.535       -6.616      251.375      207.093      107.911    63189.219    42887.526    11644.737       11.436        5.886      333.178      138.355        0.172      347.206       26.004      856.527
09/15/2013  18:30:00     -346.248     -151.708       -5.057      250.810      206.532      118.635    62905.751    42655.494    14074.196       13.126        5.982      378.025      115.373        0.093      347.163       25.930      856.537
09/15/2013  18:31:00     -470.121      -11.478       -7.263      273.840      159.789      104.378    74988.429    25532.530    10894.710       16.628        5.571      470.261      109.396        0.054      347.159       25.923      856.566
09/15/2013  18:32:00     -451.997      -85.845       -5.187      219.313      153.117      103.860    48098.149    23444.703    10786.946       14.700        4.116      460.077      112.087        0.059      347.124       25.863      856.565
09/15/2013  18:33:00     -545.942      -65.901       -7.686      286.814      210.062      125.886    82262.321    44125.971    15847.251       22.232        7.112      549.906      119.460        0.047      347.097       25.815      856.534
09/15/2013  18:34:00     -284.896     -136.336        0.209      170.966      168.266       81.685    29229.459    28313.320     6672.408        8.197        3.211      315.838       80.754        0.065      347.083       25.792      856.545
09/15/2013  18:35:00     -451.699     -252.446      -24.855      245.630      200.601       98.166    60334.162    40240.727     9636.472       18.927        5.511      517.457      129.565        0.063      347.039       25.716      856.540
09/15/2013  18:36:00     -452.922     -283.427      -25.960      321.203      235.945      134.167   103171.221    55669.941    18000.724       23.146        8.842      534.293      171.316        0.103      347.023       25.689      856.556
09/15/2013  18:37:00     -406.611     -258.466      -21.192      273.494      199.452      126.646    74798.872    39781.247    16039.191       18.158        6.531      481.806      140.602        0.085      347.002       25.654      856.562
09/15/2013  18:38:00     -300.076     -250.463       12.339      242.068      225.377      115.790    58596.894    50794.982    13407.269       13.784        6.140      390.867      139.478        0.127      346.986       25.625      856.550
09/15/2013  18:39:00     -420.556     -183.089       -2.354      232.385      208.634      110.696    54002.957    43527.974    12253.607       16.007        5.489      458.682      121.760        0.070      346.989       25.631      856.568
09/15/2013  18:40:00     -387.060     -162.757      -13.324      244.095      163.507      102.336    59582.165    26734.667    10472.740       13.662        4.839      419.887       92.944        0.049      347.009       25.664      856.533
09/15/2013  18:41:00     -401.768     -149.304      -10.476      204.227      164.703       98.867    41708.686    27127.178     9774.765       13.120        3.931      428.613      104.650        0.060      346.941       25.548      856.561
09/15/2013  18:42:00     -406.020     -179.298      -10.098      258.325      248.623      106.327    66731.740    61813.433    11305.512       16.845        6.993      443.847      128.960        0.084      346.933       25.534      856.529
09/15/2013  18:43:00     -426.169     -122.202      -23.931      186.326      187.717       77.518    34717.476    35237.624     6009.018       13.653        3.798      443.344       80.747        0.033      346.915       25.503      856.542
09/15/2013  18:44:00     -440.802      -96.505      -33.706      221.370      188.935      100.197    49004.663    35696.552    10039.361       14.973        4.737      451.243       85.455        0.036      346.940       25.545      856.519
09/15/2013  18:45:00     -187.730     -177.120       22.930      230.950      210.207      114.134    53337.840    44187.110    13026.468        8.882        5.528      258.097      122.698        0.226      346.923       25.517      856.544
09/15/2013  18:46:00     -249.394     -115.282        5.143      192.441      136.978       88.016    37033.557    18762.993     7746.833        6.952        3.177      274.750       89.230        0.105      346.915       25.500      856.564
09/15/2013  18:47:00     -449.951     -209.183      -20.520      263.756      166.573      101.417    69567.480    27746.482    10285.386       17.710        5.380      496.199      129.317        0.068      346.869       25.423      856.580
09/15/2013  18:48:00     -505.087     -305.778      -37.472      255.121      213.367      116.183    65086.528    45525.659    13498.382       23.704        6.206      590.435      126.395        0.046      346.836       25.368      856.586
09/15/2013  18:49:00     -347.172     -146.994       -7.277      196.789      161.618       98.346    38726.020    26120.496     9671.849       10.834        3.726      377.009      104.033        0.076      346.845       25.382      856.631
09/15/2013  18:50:00     -306.452      -78.595        2.650      194.037      161.810       88.319    37650.366    26182.347     7800.309        8.585        3.582      316.370       85.433        0.073      346.819       25.338      856.657
09/15/2013  18:51:00     -390.986     -248.247      -10.541      188.978      183.502       89.271    35712.851    33672.979     7969.362       14.597        3.868      463.138       91.245        0.039      346.791       25.289      856.631
09/15/2013  18:52:00     -383.976     -234.353      -32.182      175.789      126.591       71.001    30901.606    16025.362     5041.159       12.767        2.598      449.843       71.719        0.025      346.793       25.293      856.679
09/15/2013  18:53:00     -426.654     -235.322      -19.580      251.523      173.800      109.602    63263.881    30206.402    12012.633       17.162        5.274      487.248      121.043        0.062      346.765       25.244      856.666
09/15/2013  18:54:00     -358.195     -218.521      -14.146      203.720      168.212       92.921    41501.899    28295.424     8634.280       12.733        3.922      419.589       81.776        0.038      346.741       25.201      856.651
09/15/2013  18:55:00     -356.609     -121.849        5.544      216.100      186.258       83.608    46699.035    34691.967     6990.303       11.520        4.419      376.852       99.592        0.070      346.721       25.167      856.673
09/15/2013  18:56:00     -489.281     -278.426       -9.013      222.876      192.964      113.495    49673.777    37235.275    12881.207       20.837        4.990      562.954      114.724        0.042      346.720       25.166      856.671
09/15/2013  18:57:00     -431.410     -107.808      -15.867      278.106      260.493      108.940    77342.878    67856.641    11867.858       17.750        7.853      444.676      116.730        0.069      346.725       25.173      856.689
09/15/2013  18:58:00     -298.262     -228.997       -5.415      175.226      149.508       84.679    30704.000    22352.633     7170.526       10.082        3.011      376.032       87.231        0.054      346.723       25.171      856.703
09/15/2013  18:59:00     -391.970     -205.269       -9.839      260.419      238.216      100.857    67817.972    56747.097    10172.091       16.528        6.737      442.466      114.333        0.067      346.692       25.119      856.751
09/15/2013  19:00:00     -533.010     -376.340      -15.073      295.879      198.203      143.869    87544.330    39284.403    20698.287       28.671        7.376      652.481      159.123        0.059      346.672       25.085      856.709
09/15/2013  19:01:00     -306.774     -180.877       -2.946      173.260      162.193       87.155    30019.028    26306.470     7595.931        9.537        3.196      356.127       88.192        0.061      346.660       25.064      856.746
09/15/2013  19:02:00     -414.207     -256.294      -25.840      200.674      115.574       82.729    40269.935    13357.330     6844.079       14.918        3.024      487.087       99.103        0.041      346.644       25.035      856.750
09/15/2013  19:03:00     -291.223      -92.610        1.223      118.941      110.512       65.993    14146.895    12212.959     4355.069        6.205        1.536      305.593       65.952        0.047      346.614       24.985      856.776
09/15/2013  19:04:00     -415.062     -237.226       -9.595      197.164      190.719      101.678    38873.743    36373.768    10338.344       15.710        4.279      478.072      117.563        0.060      346.622       24.999      856.778
09/15/2013  19:05:00     -255.437     -113.910       -1.053      147.581      139.653       83.502    21780.257    19502.907     6972.604        6.323        2.413      279.685       81.653        0.085      346.620       24.997      856.782
09/15/2013  19:06:00     -315.634     -123.059       -3.286      161.047      170.076       75.152    25936.028    28925.951     5647.848        8.763        3.025      338.775       76.415        0.051      346.582       24.930      856.782
09/15/2013  19:07:00     -419.600     -182.899       -7.633      223.357      189.202      106.419    49888.418    35797.578    11325.081       15.327        4.851      457.730      113.765        0.062      346.597       24.956      856.775
09/15/2013  19:08:00     -341.354      -87.576       -8.609      170.959      130.462       81.004    29226.941    17020.462     6561.633        8.853        2.640      352.409       89.133        0.064      346.567       24.904      856.763
09/15/2013  19:09:00     -287.982     -173.495       -5.052      188.170      156.437       91.782    35407.894    24472.422     8423.857        9.067        3.415      336.205       91.582        0.074      346.530       24.841      856.769
09/15/2013  19:10:00     -304.828     -202.281      -18.243      219.325      152.196       81.150    48103.310    23163.743     6585.273       10.600        3.893      365.838       97.239        0.071      346.549       24.874      856.777
09/15/2013  19:11:00     -570.799     -196.283      -28.926      220.466      212.114      102.883    48605.307    44992.355    10584.939       23.466        5.209      603.604       94.856        0.025      346.537       24.852      856.778
09/15/2013  19:12:00     -469.658     -204.751      -37.656      286.668      227.518      126.207    82178.377    51764.583    15928.191       20.687        7.494      512.350      141.145        0.076      346.524       24.831      856.767
09/15/2013  19:13:00     -322.708     -135.964       -0.196      200.157      154.298      100.057    40062.879    23807.854    10011.425        9.824        3.694      350.181       99.551        0.081      346.497       24.784      856.765
09/15/2013  19:14:00     -249.082     -161.975       -3.727      140.137      137.685       71.960    19638.401    18957.245     5178.233        6.602        2.189      297.115       73.095        0.061      346.467       24.733      856.818
09/15/2013  19:15:00     -430.547     -262.015      -11.747      241.992      205.482      115.542    58560.335    42223.040    13349.879       18.412        5.707      504.007      132.838        0.069      346.469       24.736      856.798
09/15/2013  19:16:00     -359.509     -196.754      -13.883      210.699      139.453       91.563    44394.058    19447.106     8383.711       12.017        3.611      409.828       99.642        0.059      346.454       24.710      856.831
09/15/2013  19:17:00     -357.608     -216.153      -19.010      264.733      181.532      102.201    70083.819    32954.032    10445.019       14.420        5.674      417.859      110.584        0.070      346.469       24.736      856.837
09/15/2013  19:18:00     -484.376     -342.144      -23.425      226.171      155.587       90.326    51153.120    24207.266     8158.776       21.786        4.176      593.028      102.895        0.030      346.439       24.682      856.874
09/15/2013  19:19:00     -361.422     -161.290        0.942      207.487      190.488       84.302    43050.735    36285.709     7106.881       12.152        4.322      395.778      100.834        0.065      346.397       24.613      856.869
09/15/2013  19:20:00     -463.883     -177.001      -30.917      233.391      160.222       75.867    54471.195    25670.958     5755.794       16.667        4.295      496.505       91.163        0.034      346.421       24.654      856.855
09/15/2013  19:21:00     -241.871     -150.114        4.737      176.494      186.367       83.508    31150.090    34732.780     6973.522        7.694        3.643      284.668       91.614        0.104      346.389       24.599      856.861
09/15/2013  19:22:00     -447.885     -237.461      -16.945      196.185      130.421       91.024    38488.704    17009.532     8285.354       16.052        3.189      506.941       97.796        0.037      346.391       24.601      856.841
09/15/2013  19:23:00     -385.367      -91.121      -32.586      191.562      126.280       73.835    36695.880    15946.553     5451.662       10.797        2.905      395.993       78.881        0.040      346.365       24.558      856.852
09/15/2013  19:24:00     -406.644     -117.840       -0.632      190.192      192.699       98.352    36172.954    37132.973     9673.211       13.110        4.149      423.374      112.503        0.071      346.320       24.480      856.888
09/15/2013  19:25:00     -449.315     -141.383      -15.645      187.165      182.579       86.008    35030.889    33335.143     7397.430       14.893        3.788      471.034       86.980        0.034      346.348       24.528      856.903
09/15/2013  19:26:00     -366.636     -202.712       -2.845      182.773      207.389       98.642    33405.878    43010.012     9730.265       13.082        4.307      418.944       90.773        0.047      346.378       24.578      856.902
09/15/2013  19:27:00     -313.738     -184.008       -7.186      207.526      128.571       80.045    43067.049    16530.536     6407.281        9.916        3.300      363.718      101.220        0.077      346.354       24.538      856.931
09/15/2013  19:28:00     -354.604     -218.282      -25.094      207.456      156.778       83.226    43038.109    24579.348     6926.513       12.427        3.727      416.403       89.132        0.046      346.332       24.499      856.938
09/15/2013  19:29:00     -483.427     -131.168      -25.504      195.462      155.818       82.670    38205.543    24279.342     6834.407       16.042        3.466      500.906       75.342        0.023      346.340       24.514      856.943
09/15/2013  19:30:00     -415.186     -149.617      -19.775      209.465      212.139      101.282    43875.485    45003.121    10258.074       14.713        4.957      441.322       99.511        0.051      346.351       24.533      856.959
09/15/2013  19:31:00     -489.399     -211.290      -26.575      243.434      188.761      100.466    59260.028    35630.766    10093.420       19.490        5.249      533.062      117.247        0.048      346.374       24.573      856.989
09/15/2013  19:32:00     -471.162     -131.650      -31.785      214.389      189.313       91.629    45962.638    35839.354     8395.849       16.525        4.510      489.209      100.338        0.042      346.338       24.511      857.014
09/15/2013  19:33:00     -459.326     -185.246      -19.083      193.624      201.226       85.405    37490.071    40491.799     7293.949       16.545        4.264      495.274       97.754        0.039      346.320       24.480      857.011
09/15/2013  19:34:00     -283.646     -116.346      -15.669      215.393      144.269       81.181    46393.941    20813.675     6590.294        8.400        3.690      306.580       99.763        0.106      346.305       24.455      857.048
09/15/2013  19:35:00     -390.612     -130.825        4.525      203.117      158.050       87.465    41256.522    24979.725     7650.131       12.179        3.694      411.938       95.670        0.054      346.271       24.394      857.085
09/15/2013  19:36:00     -371.872     -141.824      -12.860      195.946      164.980       84.063    38394.834    27218.518     7066.508       11.561        3.634      397.998       83.720        0.044      346.273       24.399      857.068
09/15/2013  19:37:00     -387.322     -143.664      -20.685      213.181      151.572       76.952    45446.296    22973.963     5921.588       12.270        3.717      413.107       80.365        0.038      346.275       24.401      857.091
09/15/2013  19:38:00     -392.491     -123.509      -11.957      211.752      173.856       80.642    44838.785    30225.760     6503.174       12.549        4.078      411.465       91.345        0.049      346.283       24.415      857.109
09/15/2013  19:39:00     -321.511     -195.706       -7.881      176.425      168.704       93.531    31125.820    28460.951     8748.141       10.502        3.417      376.391       88.985        0.056      346.237       24.335      857.139
09/15/2013  19:40:00     -335.900      -78.762       -1.359      210.710      155.955       79.080    44398.743    24321.933     6253.672        9.699        3.749      345.010       94.859        0.076      346.212       24.292      857.138
09/15/2013  19:41:00     -315.015     -209.565       -8.776      186.979      139.658       77.998    34961.287    19504.482     6083.712       10.188        3.027      378.355       86.169        0.052      346.202       24.276      857.151
09/15/2013  19:42:00     -286.970     -163.862        6.735      265.997      181.808       98.466    70754.288    33054.019     9695.498       11.135        5.675      330.459      122.373        0.137      346.245       24.349      857.151
09/15/2013  19:43:00     -413.686     -186.718      -27.214      186.803      178.254      101.412    34895.374    31774.409    10284.382       14.183        3.848      453.872       95.391        0.044      346.265       24.386      857.146
09/15/2013  19:44:00     -453.461     -342.098      -33.332      178.431      137.531       84.496    31837.730    18914.833     7139.623       19.082        2.895      568.030       76.465        0.018      346.267       24.388      857.171
09/15/2013  19:45:00     -403.337     -147.462      -11.632      165.732      154.259       83.907    27467.082    23795.832     7040.437       12.142        2.915      429.448       85.882        0.040      346.250       24.357      857.174
09/15/2013  19:46:00     -355.294     -217.982      -15.053      191.701      152.061       93.848    36749.160    23122.449     8807.411       12.131        3.434      416.833      105.901        0.065      346.249       24.356      857.199
09/15/2013  19:47:00     -309.491     -211.540       -2.596      186.115      139.085       80.467    34638.654    19344.689     6474.908       10.049        3.023      374.879       85.378        0.052      346.245       24.350      857.217
09/15/2013  19:48:00     -422.037     -217.349      -10.435      142.522      131.735       69.265    20312.385    17354.128     4797.682       13.396        2.123      474.716       60.278        0.016      346.223       24.311      857.211
09/15/2013  19:49:00     -444.862     -133.578       -0.447      195.197      146.383       80.810    38101.809    21427.923     6530.205       14.089        3.303      464.484       96.136        0.043      346.210       24.289      857.195
09/15/2013  19:50:00     -343.447      -82.625      -10.589      201.100      142.526       78.560    40441.255    20313.752     6171.667        9.590        3.346      353.246      104.584        0.088      346.182       24.240      857.230
09/15/2013  19:51:00     -255.001     -129.852        5.933      180.797      134.476       85.049    32687.698    18083.917     7233.262        6.995        2.900      286.159       88.933        0.097      346.178       24.233      857.246
09/15/2013  19:52:00     -282.129     -166.606      -22.352      181.897      155.483       66.907    33086.446    24174.967     4476.515        8.478        3.087      327.649       75.611        0.053      346.188       24.253      857.262
09/15/2013  19:53:00     -311.692     -177.837      -18.124      214.227      189.091       89.838    45893.378    35755.256     8070.950       10.939        4.486      358.856      106.238        0.088      346.154       24.195      857.239
09/15/2013  19:54:00     -277.298     -118.628       -3.031      205.710      137.008       77.237    42316.693    18771.320     5965.612        7.900        3.353      301.607       92.765        0.095      346.120       24.136      857.251
09/15/2013  19:55:00     -347.424     -188.966      -17.411      167.174      143.449       72.673    27947.025    20577.669     5281.341       10.525        2.690      395.489       78.710        0.040      346.150       24.187      857.280
09/15/2013  19:56:00     -348.045     -112.749      -12.589      198.361      136.181       73.618    39347.260    18545.268     5419.602        9.865        3.166      365.852       82.452        0.051      346.111       24.121      857.276
09/15/2013  19:57:00     -375.786     -195.025      -11.690      205.234      175.679      108.513    42121.065    30863.228    11775.156       13.206        4.238      423.379      117.337        0.077      346.188       24.251      857.299
09/15/2013  19:58:00     -426.689     -200.757      -19.653      217.483      186.821      106.995    47298.717    34902.112    11448.014       15.818        4.682      471.558      116.121        0.061      346.205       24.282      857.349
09/15/2013  19:59:00     -357.549     -262.722      -23.099      175.654      143.015       86.148    30854.232    20453.183     7421.533       12.805        2.936      443.694       87.008        0.038      346.202       24.273      857.377
09/15/2013  20:00:00     -439.198     -176.450      -17.672      239.244      225.658      115.266    57237.904    50921.322    13286.309       17.287        6.072      473.318      128.434        0.074      346.225       24.317      857.353
09/15/2013  20:01:00     -289.192     -185.667      -10.295      174.476      150.038       77.544    30441.779    22511.315     6013.113        8.858        2.948      343.663       71.087        0.043      346.240       24.342      857.375
09/15/2013  20:02:00     -389.326     -206.733       -5.186      193.212      145.531       80.743    37331.052    21179.359     6519.439       12.967        3.251      440.810      100.268        0.052      346.215       24.298      857.386
09/15/2013  20:03:00     -268.560     -149.713      -13.226      145.636      129.124       67.681    21209.732    16673.010     4580.769        6.858        2.123      307.472       67.605        0.048      346.193       24.259      857.404
09/15/2013  20:04:00     -385.441     -111.434       -6.339      140.325      128.653       74.744    19691.086    16551.530     5586.686       10.142        2.091      401.226       81.704        0.041      346.189       24.254      857.429
09/15/2013  20:05:00     -472.433     -199.475      -12.424      176.909      149.999       77.276    31296.866    22499.601     5971.575       16.144        2.988      512.819       73.529        0.021      346.140       24.170      857.462
09/15/2013  20:06:00     -563.797     -202.501      -22.188      250.980      144.024       79.255    62990.889    20742.952     6281.412       22.467        4.501      599.060       89.850        0.022      346.237       24.335      857.441
09/15/2013  20:07:00     -262.503      -97.872       21.915      210.201      143.736       97.052    44184.419    20659.943     9419.106        7.660        3.713      280.155      112.790        0.162      346.137       24.165      857.487
09/15/2013  20:08:00     -431.915     -175.464        4.221      229.329      165.978       84.293    52592.010    27548.532     7105.327       15.228        4.362      466.196      104.508        0.050      346.154       24.194      857.509
09/15/2013  20:09:00     -367.965     -131.011        5.778      157.692      139.344       66.484    24866.919    19416.764     4420.169       10.064        2.435      390.592       61.518        0.025      346.179       24.237      857.515
09/15/2013  20:10:00     -301.918     -205.115      -16.178      145.418      105.875       71.843    21146.324    11209.490     5161.365        8.550        1.876      365.003       67.980        0.035      346.175       24.229      857.542
09/15/2013  20:11:00     -294.401     -158.286      -16.634      117.010      114.449       68.788    13691.457    13098.686     4731.723        7.176        1.576      334.255       64.478        0.037      346.151       24.189      857.576
09/15/2013  20:12:00     -225.799     -117.463      -10.688      124.036       99.171       58.828    15384.856     9834.958     3460.785        4.678        1.434      254.524       62.456        0.060      346.113       24.123      857.584
09/15/2013  20:13:00     -365.961     -236.539        0.777      223.777      164.168      102.453    50075.936    26951.118    10496.646       13.868        4.376      435.750      111.205        0.065      346.149       24.185      857.591
09/15/2013  20:14:00     -355.937     -129.504      -13.796      165.474      150.171       72.049    27381.654    22551.475     5191.078        9.938        2.756      378.765       78.516        0.043      346.150       24.187      857.622
09/15/2013  20:15:00     -313.905      -85.359      -10.337      134.497      119.815       63.768    18089.367    14355.723     4066.404        7.121        1.826      325.304       72.696        0.050      346.090       24.084      857.653
09/15/2013  20:16:00     -212.651      -77.166        9.632       99.674       78.104       48.606     9934.995     6100.269     2362.522        3.483        0.920      226.219       44.577        0.039      346.043       24.005      857.687
09/15/2013  20:17:00     -255.572     -175.210        2.065      125.417      148.649       60.542    15729.515    22096.541     3665.304        6.875        2.075      309.864       61.501        0.039      346.128       24.149      857.701
09/15/2013  20:18:00     -233.978     -207.777      -17.314      146.635      122.733       58.771    21501.734    15063.424     3454.018        6.911        2.001      312.917       46.641        0.022      346.163       24.210      857.696
09/15/2013  20:19:00     -239.638     -262.343      -14.818      131.472      127.296       61.255    17284.809    16204.303     3752.235        8.185        1.862      355.317       49.973        0.020      346.172       24.223      857.718
09/15/2013  20:20:00     -219.650      -94.087       11.442      131.207      123.097       68.412    17215.385    15152.858     4680.171        4.713        1.852      238.954       69.289        0.084      346.069       24.048      857.734
09/15/2013  20:21:00     -283.978      -59.352       -1.663      129.805      114.017       61.290    16849.393    12999.866     3756.483        5.888        1.680      290.114       58.053        0.040      346.106       24.110      857.723
09/15/2013  20:22:00     -262.528     -195.349        2.651      133.638      106.685       64.334    17859.244    11381.725     4138.824        7.023        1.669      327.234       62.985        0.037      346.115       24.127      857.735
09/15/2013  20:23:00     -298.039     -171.831       -3.590      137.246      100.291       65.154    18836.474    10058.232     4245.007        7.575        1.657      344.025       76.418        0.049      346.114       24.127      857.736
09/15/2013  20:24:00     -225.694     -137.565       -4.257       96.301       89.982       48.837     9273.807     8096.730     2385.046        4.481        0.988      264.314       47.636        0.032      346.127       24.148      857.784
09/15/2013  20:25:00     -162.014     -141.167      -13.542      119.619      113.141       63.101    14308.590    12800.928     3981.703        3.872        1.555      214.888       57.561        0.072      346.108       24.113      857.780
09/15/2013  20:26:00     -235.939     -102.242        1.111      130.441      100.738       52.455    17014.875    10148.226     2751.503        4.801        1.496      257.139       56.755        0.049      346.057       24.027      857.798
09/15/2013  20:27:00     -201.224      -50.495        5.117       94.914      111.219       56.206     9008.685    12369.767     3159.088        3.380        1.227      207.463       51.980        0.063      345.986       23.906      857.805
09/15/2013  20:28:00     -255.704     -104.853        0.269      111.722       74.324       51.782    12481.856     5524.024     2681.383        4.853        1.034      276.367       57.743        0.044      345.997       23.925      857.813
09/15/2013  20:29:00     -227.982      -90.131       13.662      151.175      105.087       61.114    22853.894    11043.331     3734.910        4.895        1.882      245.151       77.034        0.099      345.998       23.927      857.809
09/15/2013  20:30:00     -214.034     -118.015        0.160       94.952       86.777       50.834     9015.943     7530.186     2584.137        3.943        0.957      244.414       49.694        0.041      346.011       23.949      857.816
09/15/2013  20:31:00     -292.201     -194.544       -7.648      147.220      102.691       66.561    21673.658    10545.493     4430.310        7.996        1.832      351.040       71.423        0.041      346.077       24.063      857.806
09/15/2013  20:32:00     -337.537     -195.089      -17.294      128.006      124.866       62.906    16385.609    15591.407     3957.218        9.411        1.797      389.860       68.548        0.031      346.146       24.180      857.783
09/15/2013  20:33:00     -199.514     -123.895        6.899      155.254      112.843       53.728    24103.656    12733.556     2886.719        4.746        1.986      234.852       73.971        0.099      346.044       24.004      857.799
09/15/2013  20:34:00     -249.786     -110.334       -5.578      122.048       81.508       51.223    14895.764     6643.494     2623.771        4.938        1.208      273.069       59.477        0.047      346.106       24.111      857.826
09/15/2013  20:35:00     -325.133     -203.906      -14.707      169.783      107.001       68.667    28826.100    11449.233     4715.126        9.624        2.250      383.783       80.569        0.044      346.082       24.068      857.840
09/15/2013  20:36:00     -153.508      -50.848       22.146      133.327       96.908       56.476    17776.135     9391.212     3189.530        2.849        1.518      161.710       64.031        0.157      346.034       23.988      857.843
09/15/2013  20:37:00     -365.273     -127.540      -14.090      207.581      136.686       74.614    43090.011    18683.190     5567.230       10.860        3.367      386.898       91.992        0.057      346.122       24.138      857.828
09/15/2013  20:38:00     -307.468     -207.877      -10.822      152.221      131.723       69.891    23171.111    17350.990     4884.803        9.163        2.270      371.146       74.074        0.040      346.150       24.186      857.843
09/15/2013  20:39:00     -194.558     -139.667        0.101      152.682       99.596       70.610    23311.822     9919.433     4985.774        4.778        1.911      239.499       79.856        0.111      346.105       24.110      857.852
09/15/2013  20:40:00     -179.363      -45.300        7.977       67.126       65.091       48.586     4505.941     4236.779     2360.600        2.269        0.555      184.995       37.457        0.041      346.070       24.050      857.853
09/15/2013  20:41:00     -188.903     -126.531       -0.151       99.504       71.994       49.650     9901.065     5183.093     2465.126        3.462        0.877      227.365       52.135        0.053      346.048       24.011      857.849
09/15/2013  20:42:00     -176.430     -136.634       -4.520       90.993       93.284       40.035     8279.739     8701.971     1602.805        3.420        0.929      223.151       40.143        0.032      346.046       24.009      857.839
09/15/2013  20:43:00      -99.210      -89.148        1.959       98.107       70.386       39.663     9625.074     4954.233     1573.117        1.697        0.808      133.380       39.759        0.089      345.984       23.903      857.854
09/15/2013  20:44:00     -123.487      -97.210        0.461       85.735       68.685       41.089     7350.440     4717.612     1688.293        1.923        0.688      157.159       42.057        0.072      345.998       23.927      857.871
09/15/2013  20:45:00     -160.555     -122.377        2.874       84.154       75.953       45.660     7081.947     5768.822     2084.817        2.785        0.747      201.876       48.312        0.057      345.948       23.841      857.890
09/15/2013  20:46:00     -205.216     -153.646      -11.130      105.807       74.551       47.131    11195.189     5557.919     2221.332        4.241        0.949      256.360       35.334        0.019      345.959       23.860      857.890
09/15/2013  20:47:00     -201.992      -94.498        3.283       76.617       67.995       39.948     5870.113     4623.371     1595.879        3.091        0.604      223.004       31.636        0.020      345.921       23.794      857.890
09/15/2013  20:48:00     -144.848      -88.352       -2.349       87.872       91.667       45.985     7721.557     8402.881     2114.584        2.351        0.912      169.668       44.428        0.069      345.924       23.800      857.904
09/15/2013  20:49:00     -167.733     -107.312        0.081      119.268       67.107       52.012    14224.794     4503.399     2705.206        3.054        1.072      199.124       55.300        0.077      345.838       23.652      857.934
09/15/2013  20:50:00     -125.327     -100.164       -7.133      106.755       90.212       61.363    11396.572     8138.174     3765.467        2.454        1.165      160.436       55.928        0.122      346.036       23.993      857.898
09/15/2013  20:51:00     -158.519     -110.422      -21.617       67.365       49.629       27.318     4538.074     2463.069      746.288        2.277        0.387      193.187       25.577        0.018      346.142       24.175      857.887
09/15/2013  20:52:00     -148.405      -41.831       11.006      119.362       88.102       45.781    14247.267     7761.911     2095.942        2.400        1.205      154.188       49.290        0.102      345.971       23.882      857.870
09/15/2013  20:53:00     -178.430       -3.114        4.426       76.979       73.866       48.853     5925.742     5456.189     2386.633        2.281        0.688      178.457       42.670        0.057      345.970       23.878      857.878
09/15/2013  20:54:00     -145.008      -75.379        1.823       94.548       63.398       39.888     8939.356     4019.368     1591.018        2.063        0.727      163.430       48.170        0.087      345.931       23.813      857.879
09/15/2013  20:55:00     -170.865      -68.050       -8.219       78.230       55.249       42.446     6119.864     3052.421     1801.694        2.243        0.549      183.918       44.083        0.057      345.948       23.841      857.870
09/15/2013  20:56:00     -212.009      -61.654       -5.746       74.083       69.706       39.196     5488.255     4858.948     1536.328        3.033        0.594      220.792       36.308        0.027      345.846       23.665      857.883
09/15/2013  20:57:00     -280.990      -93.376       -7.065      113.507       76.861       45.440    12883.736     5907.647     2064.815        5.429        1.043      296.099       53.936        0.033      345.805       23.596      857.884
09/15/2013  20:58:00     -196.949      -94.797        8.201      100.495       77.557       48.997    10099.228     6015.109     2400.691        3.318        0.926      218.576       46.941        0.046      345.848       23.668      857.881
09/15/2013  20:59:00      -55.670      -87.914        9.130       84.204       65.433       31.157     7090.314     4281.502      970.739        1.162        0.617      104.058       30.704        0.087      345.897       23.755      857.891
09/15/2013  21:00:00     -201.561      -58.495       -1.605       89.421       56.369       31.735     7996.130     3177.422     1007.129        2.811        0.609      209.877       28.815        0.019      345.872       23.710      857.890
09/15/2013  21:01:00     -205.081      -69.348       -2.869       82.492       47.526       33.108     6805.010     2258.705     1096.131        2.852        0.508      216.489       35.773        0.027      345.833       23.645      857.892
09/15/2013  21:02:00     -272.144     -115.362      -16.145      119.398      118.090       53.657    14255.845    13945.260     2879.057        5.935        1.554      295.586       50.413        0.029      345.933       23.813      857.888
09/15/2013  21:03:00     -169.115     -166.234        7.139      108.906      105.849       54.022    11860.605    11203.942     2918.412        4.113        1.299      237.136       59.065        0.062      345.975       23.888      857.900
09/15/2013  21:04:00     -197.649      -46.681        9.860      155.631       72.860       58.792    24220.985     5308.645     3456.519        3.716        1.649      203.087       77.999        0.148      345.927       23.806      857.914
09/15/2013  21:05:00     -205.994      -55.270        4.000       97.557       89.019       41.893     9517.279     7924.337     1755.044        3.235        0.960      213.280       43.357        0.041      345.926       23.802      857.948
09/15/2013  21:06:00     -186.656      -61.925        2.581      107.612       66.623       39.936    11580.338     4438.559     1594.862        2.814        0.881      196.660       49.214        0.063      345.863       23.696      857.973
09/15/2013  21:07:00     -171.744     -140.608       -6.239      101.012       74.135       51.806    10203.490     5496.006     2683.851        3.384        0.919      221.961       53.170        0.057      345.937       23.823      857.973
09/15/2013  21:08:00     -276.390     -161.924       -2.366      102.434       74.213       54.867    10492.737     5507.607     3010.335        6.081        0.951      320.329       51.731        0.026      346.076       24.059      857.965
09/15/2013  21:09:00     -190.610      -64.910        0.777       83.838       75.790       40.857     7028.762     5744.070     1669.282        2.749        0.722      201.359       38.445        0.036      346.053       24.020      857.931
09/15/2013  21:10:00     -227.621      -40.257      -12.948       74.763       56.612       32.808     5589.580     3204.928     1076.358        3.173        0.494      231.154       30.827        0.018      346.042       24.001      857.911
09/15/2013  21:11:00     -232.703      -85.700        0.757      103.693       78.802       35.891    10752.205     6209.798     1288.150        3.987        0.913      247.982       43.981        0.031      345.956       23.854      857.935
09/15/2013  21:12:00     -202.514      -66.120       -2.631       97.808       90.876       49.407     9566.333     8258.460     2441.088        3.282        1.013      213.034       52.904        0.062      345.754       23.510      857.952
09/15/2013  21:13:00     -196.124      -42.804       -5.864       77.924       70.155       36.288     6072.094     4921.793     1316.831        2.632        0.616      200.741       31.115        0.024      345.655       23.338      857.942
09/15/2013  21:14:00     -145.552       -5.005       -8.860       71.533       60.612       40.043     5117.035     3673.808     1603.440        1.584        0.520      145.638       42.486        0.085      345.586       23.221      857.924
09/15/2013  21:15:00     -105.817      -22.622       -1.531       48.564       42.890       24.579     2358.489     1839.594      604.119        0.826        0.240      108.208       24.933        0.053      345.596       23.238      857.920
09/15/2013  21:16:00     -142.587      -34.953      -10.480       32.120       24.383       18.205     1031.690      594.518      331.428        1.181        0.098      146.809       14.005        0.009      345.734       23.475      857.913
09/15/2013  21:17:00     -137.515      -71.561       -6.073       31.673       44.407       18.048     1003.207     1971.959      325.747        1.368        0.165      155.020       16.549        0.011      345.683       23.389      857.926
09/15/2013  21:18:00     -150.023      -25.821       -0.838       48.820       44.367       28.028     2383.378     1968.437      785.586        1.415        0.257      152.229       22.953        0.023      345.577       23.207      857.933
09/15/2013  21:19:00     -144.494      -10.550        4.847       55.549       53.812       37.225     3085.701     2895.709     1385.673        1.419        0.368      144.879       30.041        0.043      345.565       23.186      857.924
09/15/2013  21:20:00     -152.024      -46.213        5.018       72.800       52.585       33.325     5299.872     2765.192     1110.539        1.722        0.459      158.893       34.411        0.047      345.468       23.017      857.920
09/15/2013  21:21:00     -219.963      -81.418       -3.920       76.678       68.887       43.959     5879.471     4745.436     1932.413        3.379        0.628      234.547       41.685        0.032      345.445       22.976      857.924
09/15/2013  21:22:00     -175.378      -27.393       -7.576       70.909       51.448       30.439     5028.154     2646.913      926.539        2.008        0.430      177.504       27.268        0.024      345.614       23.268      857.934
09/15/2013  21:23:00     -170.396      -69.178       -9.032       48.866       49.947       29.350     2387.858     2494.702      861.451        1.982        0.287      183.904       23.500        0.016      345.586       23.220      857.921
09/15/2013  21:24:00     -133.303      -49.925      -10.506       47.444       42.346       29.007     2250.898     1793.173      841.391        1.263        0.244      142.345       22.042        0.024      345.406       22.912      857.925
09/15/2013  21:25:00     -147.257      -44.572       -4.619       47.186       47.272       30.701     2226.542     2234.654      942.523        1.455        0.270      153.855       23.530        0.023      345.510       23.090      857.918
09/15/2013  21:26:00     -130.557      -15.015       -1.061       56.167       44.896       27.651     3154.728     2015.614      764.599        1.160        0.297      131.417       29.426        0.050      345.312       22.752      857.932
09/15/2013  21:27:00     -171.524      -18.416      -14.449       41.546       36.150       23.469     1726.035     1306.856      550.793        1.678        0.179      172.509       22.927        0.018      345.209       22.575      857.962
09/15/2013  21:28:00     -197.661      -46.439      -18.287       31.462       34.459       21.099      989.830     1187.403      445.188        2.209        0.131      203.043       16.670        0.007      345.175       22.517      857.975
09/15/2013  21:29:00     -197.752      -33.789       -6.620       82.035       56.393       38.535     6729.801     3180.117     1484.977        2.584        0.570      200.617       39.649        0.039      345.208       22.571      857.976
09/15/2013  21:30:00     -120.747        0.499        2.598       66.821       44.335       31.428     4465.112     1965.635      987.708        1.100        0.371      120.748       35.378        0.086      345.216       22.589      857.969
09/15/2013  21:31:00      -87.855       -3.183       -0.578       55.832       27.533       19.784     3117.210      758.082      391.406        0.600        0.213       87.912       18.222        0.043      345.230       22.612      857.964
09/15/2013  21:32:00      -75.428        7.956        0.435       21.814       18.530       12.205      475.842      343.367      148.970        0.336        0.048       75.846        9.377        0.015      345.166       22.501      857.974
09/15/2013  21:33:00     -103.606       12.659       -5.982       23.193       23.095       17.787      537.912      533.358      316.394        0.616        0.069      104.377       10.536        0.010      345.413       22.925      857.982
09/15/2013  21:34:00     -166.078       39.494      -21.391       47.341       58.459       25.348     2241.182     3417.438      642.545        1.795        0.315      170.710       19.911        0.014      345.532       23.127      857.973
09/15/2013  21:35:00     -162.560       -6.662      -17.411       73.581       74.166       32.071     5414.142     5500.548     1028.526        1.936        0.597      162.696       25.730        0.025      345.388       22.881      857.958
09/15/2013  21:36:00     -139.106      -21.140       -7.709       49.782       67.421       27.002     2478.256     4545.549      729.116        1.380        0.388      140.703       28.896        0.042      345.230       22.611      857.951
09/15/2013  21:37:00     -156.497      -43.526       -2.909       51.579       45.554       28.043     2660.404     2075.209      786.417        1.596        0.276      162.437       24.225        0.022      345.205       22.567      857.945
09/15/2013  21:38:00     -170.102       17.840       -7.319       54.044       60.407       25.396     2920.744     3649.033      644.936        1.826        0.361      171.035       29.037        0.029      345.200       22.561      857.920
09/15/2013  21:39:00     -201.667      -89.864      -13.876       71.046       65.418       44.880     5047.562     4279.527     2014.179        3.014        0.567      220.783       38.678        0.031      345.183       22.529      857.912
09/15/2013  21:40:00     -265.269      -29.203      -26.548       64.819       90.409       40.124     4201.533     8173.739     1609.920        4.295        0.699      266.872       35.379        0.018      345.207       22.567      857.919
09/15/2013  21:41:00     -132.437      -57.972       -1.787      110.327       56.320       37.816    12172.117     3171.983     1430.038        1.884        0.839      144.569       39.962        0.076      345.206       22.568      857.903
09/15/2013  21:42:00     -293.533      -56.601      -10.856       97.922       74.619       45.396     9588.724     5568.044     2060.763        5.335        0.861      298.940       46.116        0.024      345.293       22.715      857.908
09/15/2013  21:43:00     -327.989      -90.868      -15.553       90.065       80.969       47.412     8111.624     6555.978     2247.880        6.649        0.846      340.343       34.188        0.010      345.326       22.772      857.924
09/15/2013  21:44:00     -343.529      -88.011       -3.323      138.221       84.419       59.700    19105.167     7126.539     3564.055        7.778        1.490      354.624       64.921        0.034      345.317       22.758      857.938
09/15/2013  21:45:00     -278.027      -55.396      -12.781      102.981       98.836       53.987    10605.018     9768.645     2914.577        5.191        1.164      283.492       53.401        0.035      345.365       22.839      857.943
09/15/2013  21:46:00     -180.848      -39.155        3.124      103.618       88.152       47.734    10736.603     7770.774     2278.572        2.751        1.039      185.038       51.044        0.076      345.261       22.662      857.937
09/15/2013  21:47:00     -260.175      -35.707      -15.297       79.082       61.061       39.927     6253.896     3728.385     1594.126        4.039        0.579      262.614       42.022        0.026      345.248       22.640      857.911
09/15/2013  21:48:00     -250.580       32.320      -19.406       73.901       55.031       33.934     5461.356     3028.426     1151.486        3.692        0.482      252.656       40.054        0.025      345.444       22.975      857.889
09/15/2013  21:49:00     -151.812      -29.712       -7.689       78.494       52.792       35.370     6161.242     2787.008     1251.056        1.709        0.510      154.692       35.884        0.054      345.243       22.632      857.860
09/15/2013  21:50:00     -281.600      -73.052      -13.968      127.459       84.905       50.415    16245.896     7208.873     2541.668        5.541        1.300      290.922       50.782        0.030      345.173       22.511      857.847
09/15/2013  21:51:00     -340.237      -96.593      -23.231       56.309       54.677       38.630     3170.656     2989.531     1492.279        6.664        0.383      353.683       32.151        0.008      345.156       22.482      857.853
09/15/2013  21:52:00     -264.814      -52.777       -8.230       79.735       83.524       45.647     6357.607     6976.254     2083.662        4.420        0.771      270.022       45.510        0.028      345.163       22.493      857.856
09/15/2013  21:53:00     -215.694      -50.496        3.620      117.274      107.879       49.351    13753.118    11637.910     2435.557        3.845        1.391      221.526       58.001        0.069      345.038       22.280      857.850
09/15/2013  21:54:00     -320.183      -24.663      -26.623      110.574       84.142       40.803    12226.562     7079.846     1664.858        6.240        1.049      321.132       44.799        0.019      345.131       22.438      857.842
09/15/2013  21:55:00     -367.336     -135.543      -15.407      134.696       76.964       55.230    18142.983     5923.466     3050.379        9.033        1.356      391.545       45.210        0.013      345.242       22.630      857.828
09/15/2013  21:56:00     -251.724      -69.785       12.670      117.122       76.474       48.976    13717.595     5848.275     2398.694        4.518        1.098      261.219       49.610        0.036      345.145       22.463      857.806
09/15/2013  21:57:00     -240.872      -23.674      -23.373      111.000       86.036       46.623    12320.956     7402.180     2173.679        4.051        1.095      242.032       51.147        0.045      345.148       22.467      857.810
09/15/2013  21:58:00     -270.017       33.599      -12.871      104.000      105.807       57.416    10815.968    11195.177     3296.582        4.975        1.265      272.099       56.798        0.044      345.176       22.516      857.810
09/15/2013  21:59:00     -248.651      -14.156      -22.708      111.641       82.292       53.451    12463.607     6771.965     2857.016        4.231        1.105      249.053       59.802        0.058      345.285       22.702      857.802
09/15/2013  22:00:00     -203.936      -79.608      -10.090      103.256       80.048       39.661    10661.733     6407.757     1572.992        3.333        0.932      218.923       37.128        0.029      345.234       22.617      857.794
09/15/2013  22:01:00     -183.926      -42.498       -3.168      101.471       89.139       36.186    10296.353     7945.680     1309.403        2.759        0.978      188.771       29.189        0.024      345.127       22.434      857.783
09/15/2013  22:02:00     -237.538       18.566      -25.393       82.491       58.074       33.120     6804.749     3372.594     1096.948        3.434        0.564      238.263       37.311        0.025      345.202       22.560      857.761
09/15/2013  22:03:00     -242.085      -31.872      -31.428       60.576       41.679       35.077     3669.501     1737.159     1230.379        3.362        0.332      244.174       24.721        0.010      345.121       22.420      857.772
09/15/2013  22:04:00     -209.947      -73.752       -3.911       81.965       71.211       41.650     6718.251     5070.983     1734.737        3.153        0.676      222.524       39.894        0.032      345.049       22.299      857.766
09/15/2013  22:05:00     -353.745       36.232      -23.553      165.639      100.639       53.479    27436.131    10128.273     2860.011        8.371        2.021      355.596       61.335        0.030      345.229       22.607      857.745
09/15/2013  22:06:00     -330.725      -18.405       -8.201      157.957      125.494       54.324    24950.266    15748.765     2951.046        7.671        2.183      331.236       68.507        0.043      345.077       22.347      857.765
09/15/2013  22:07:00     -250.540      -68.235       -8.468      116.197       83.894       47.355    13501.801     7038.170     2242.526        4.514        1.139      259.666       60.178        0.054      345.185       22.532      857.794
09/15/2013  22:08:00     -230.242      -60.298       -8.009       96.775       75.376       46.382     9365.390     5681.479     2151.304        3.695        0.860      238.006       51.010        0.046      345.278       22.689      857.769
09/15/2013  22:09:00     -188.641      -26.530       -8.696       79.638       57.553       34.883     6342.257     3312.392     1216.798        2.362        0.544      190.497       40.728        0.046      345.127       22.434      857.786
09/15/2013  22:10:00     -137.030      -35.742        6.583       81.666       61.253       44.876     6669.268     3751.948     2013.897        1.626        0.622      141.615       48.206        0.116      345.035       22.276      857.812
09/15/2013  22:11:00     -182.690      -17.009      -15.530      103.365       65.613       42.890    10684.327     4305.037     1839.584        2.536        0.841      183.480       34.681        0.036      345.128       22.435      857.791
09/15/2013  22:12:00     -271.488      -84.620      -19.193       99.935       84.713       49.467     9987.066     7176.321     2447.030        5.042        0.981      284.370       44.498        0.024      345.153       22.478      857.773
09/15/2013  22:13:00     -280.385      -64.201       -6.967      104.043       62.574       51.328    10825.026     3915.454     2634.566        5.008        0.869      287.641       52.806        0.034      345.398       22.896      857.768
09/15/2013  22:14:00     -293.994      -71.395      -11.923      125.144      113.121       60.697    15661.072    12796.306     3684.070        6.190        1.607      302.539       65.478        0.047      345.270       22.678      857.755
09/15/2013  22:15:00     -262.913      -56.588      -20.973      100.425       84.727       48.259    10085.264     7178.625     2328.928        4.618        0.980      268.934       44.367        0.027      345.370       22.847      857.753
09/15/2013  22:16:00     -373.511     -121.075      -21.942      124.650      102.691       72.043    15537.745    10545.373     5190.207        9.296        1.564      392.644       64.005        0.027      345.288       22.708      857.742
09/15/2013  22:17:00     -367.812      -52.275      -12.351      194.386      121.538       73.700    37785.980    14771.587     5431.721        9.807        2.899      371.509       74.827        0.041      345.233       22.613      857.737
09/15/2013  22:18:00     -380.244     -153.304       -7.595      160.654      165.287       80.569    25809.747    27319.753     6491.432       11.387        2.981      409.984       87.399        0.045      345.244       22.632      857.735
09/15/2013  22:19:00     -216.367      -61.075       -0.031       91.210      103.841       52.276     8319.284    10782.949     2732.760        3.619        1.092      224.822       52.153        0.054      345.196       22.551      857.745
09/15/2013  22:20:00     -459.547      -59.992      -24.745      143.461      136.607       63.905    20581.012    18661.343     4083.800       12.935        2.166      463.446       61.161        0.017      345.277       22.688      857.753
09/15/2013  22:21:00     -329.270      -29.207      -32.066      123.428       70.376       59.852    15234.546     4952.720     3582.221        6.703        1.188      330.562       48.766        0.022      345.288       22.707      857.776
09/15/2013  22:22:00     -272.101      -56.247      -27.049      107.605       89.471       44.648    11578.821     8005.093     1993.414        4.975        1.079      277.853       43.931        0.025      345.316       22.755      857.791
09/15/2013  22:23:00     -309.107       -6.043      -22.649      118.490      104.123       57.523    14039.891    10841.595     3308.920        6.214        1.410      309.166       56.226        0.033      345.296       22.720      857.779
09/15/2013  22:24:00     -352.519     -156.359      -14.352      105.517       89.118       49.030    11133.787     7941.948     2403.909        8.520        1.074      385.639       43.314        0.013      345.275       22.684      857.744
09/15/2013  22:25:00     -378.117      -81.445      -18.162      149.069      156.039       69.369    22221.579    24348.240     4812.000       10.065        2.569      386.789       56.210        0.021      345.234       22.615      857.708
09/15/2013  22:26:00     -475.640      -88.610       -3.959      218.000      139.089       82.758    47524.069    19345.709     6848.960       15.389        3.686      483.823       91.286        0.036      345.170       22.507      857.661
09/15/2013  22:27:00     -532.707      -97.644      -22.421      177.945      124.176       90.734    31664.258    15419.643     8232.656       17.455        2.766      541.582       96.615        0.032      345.272       22.680      857.647
09/15/2013  22:28:00     -324.873      -52.646       -1.027      170.449      122.882       65.556    29052.736    15099.991     4297.560        7.837        2.423      329.111       69.920        0.045      345.179       22.521      857.659
09/15/2013  22:29:00     -302.545      -77.251       -0.244      136.694      112.765       58.898    18685.342    12716.005     3468.917        6.618        1.744      312.251       60.450        0.037      345.229       22.608      857.666
09/15/2013  22:30:00     -392.353      -67.102      -17.576      130.299      116.132       64.935    16977.764    13486.642     4216.565        9.671        1.734      398.050       70.179        0.031      345.231       22.610      857.658
09/15/2013  22:31:00     -345.321      -17.682      -21.471      161.656       98.643       63.646    26132.685     9730.421     4050.805        7.996        1.996      345.773       74.899        0.047      345.253       22.648      857.646
09/15/2013  22:32:00     -282.224       -9.532       -3.340       98.497       73.279       47.630     9701.665     5369.742     2268.647        4.854        0.867      282.385       49.566        0.031      345.188       22.538      857.656
09/15/2013  22:33:00     -293.166     -117.865       -8.054      131.961       77.617       48.402    17413.800     6024.390     2342.739        6.284        1.289      315.972       53.453        0.029      345.123       22.424      857.650
09/15/2013  22:34:00     -216.619      -45.931       -7.740      150.303      111.425       57.007    22591.114    12415.520     3249.758        4.367        1.913      221.435       60.558        0.075      345.125       22.432      857.633
09/15/2013  22:35:00     -207.271     -136.924      -13.174      121.239      128.901       60.014    14698.965    16615.343     3601.696        4.839        1.746      248.414       47.990        0.037      345.071       22.337      857.611
09/15/2013  22:36:00     -292.441      -82.781      -18.246      107.767      123.343       52.554    11613.790    15213.614     2761.942        6.114        1.479      303.931       50.683        0.028      345.128       22.431      857.601
09/15/2013  22:37:00     -286.565      -98.288       -9.471       98.692       94.631       53.906     9740.204     8954.967     2905.849        5.673        1.080      302.952       52.567        0.030      345.062       22.321      857.596
09/15/2013  22:38:00     -344.316      -94.784      -18.353      126.879       79.092       48.101    16098.201     6255.497     2313.730        7.627        1.233      357.123       37.281        0.011      345.043       22.287      857.594
09/15/2013  22:39:00     -359.496      -55.283      -22.891      161.613      122.266       68.584    26118.643    14948.961     4703.717        8.929        2.289      363.721       64.365        0.031      345.089       22.368      857.582
09/15/2013  22:40:00     -334.447      -76.341      -19.606      122.138      121.569       57.020    14917.577    14779.024     3251.253        7.550        1.647      343.049       56.300        0.027      345.045       22.291      857.557
09/15/2013  22:41:00     -397.719      -64.246        1.774      171.164      107.251       71.284    29297.219    11502.681     5081.452       10.409        2.294      402.875       81.392        0.041      345.131       22.438      857.551
09/15/2013  22:42:00     -426.603      -56.522      -22.112      134.512       99.762       71.145    18093.561     9952.411     5061.544       10.938        1.655      430.331       68.605        0.025      345.076       22.345      857.526
09/15/2013  22:43:00     -392.575       -5.738      -15.695      136.354      116.084       64.255    18592.289    13475.472     4128.697        9.529        1.810      392.617       57.955        0.022      345.093       22.374      857.541
09/15/2013  22:44:00     -425.587     -107.466      -30.005      146.453      151.152       64.969    21448.411    22847.047     4220.971       12.104        2.426      438.946       64.139        0.021      345.175       22.514      857.547
09/15/2013  22:45:00     -407.370      -55.517       -9.029      160.667      108.634       69.139    25813.938    11801.364     4780.185       10.575        2.120      411.136       73.635        0.032      345.173       22.512      857.557
09/15/2013  22:46:00     -391.839      -93.815      -17.210      166.671      133.177       67.063    27779.296    17736.175     4497.417       10.631        2.501      402.913       75.528        0.035      345.192       22.543      857.537
09/15/2013  22:47:00     -340.285      -37.674      -16.711      151.921      126.322       63.523    23079.939    15957.350     4035.231        8.027        2.154      342.364       70.439        0.042      345.121       22.423      857.540
09/15/2013  22:48:00     -444.212      -94.959      -34.500      171.556      123.934       69.693    29431.319    15359.523     4857.173       12.858        2.482      454.248       74.044        0.027      345.131       22.439      857.536
09/15/2013  22:49:00     -259.431      -95.917        4.537      142.657      103.989       62.526    20351.081    10813.664     3909.476        5.579        1.754      276.595       62.507        0.051      345.042       22.286      857.550
09/15/2013  22:50:00     -268.365     -136.116       -0.187      183.561      131.961       71.199    33694.506    17413.716     5069.295        7.335        2.809      300.911       85.362        0.080      345.115       22.412      857.547
09/15/2013  22:51:00     -229.603      -37.915      -10.470      129.171       62.050       43.342    16685.175     3850.221     1878.534        3.833        1.121      232.713       53.186        0.052      345.265       22.669      857.565
09/15/2013  22:52:00     -165.715        5.027       -7.295       96.749       57.689       43.034     9360.277     3328.054     1851.955        2.104        0.727      165.791       34.415        0.043      345.115       22.413      857.561
09/15/2013  22:53:00     -141.612       -9.508       -9.747       70.436       75.589       48.438     4961.196     5713.761     2346.282        1.663        0.651      141.930       44.125        0.097      345.099       22.387      857.566
09/15/2013  22:54:00     -134.677      -22.572      -15.696       60.773       52.189       35.191     3693.337     2723.728     1238.388        1.327        0.383      136.555       22.503        0.027      345.080       22.355      857.583
09/15/2013  22:55:00     -111.228      -78.151       -4.550      100.435       76.161       43.795    10087.285     5800.462     1918.038        1.815        0.890      135.938       28.085        0.043      344.869       21.994      857.614
09/15/2013  22:56:00      -33.583      -72.637      -21.413      109.735       36.790       42.034    12041.801     1353.480     1766.890        1.101        0.758       80.025       42.772        0.286      344.705       21.713      857.650
09/15/2013  22:57:00       54.467      -97.445        5.923       70.255       96.294       56.930     4935.752     9272.479     3241.003        1.497        0.872      111.634       54.872        0.242      344.669       21.651      857.669
09/15/2013  22:58:00       50.627      -56.172       20.704       73.555       79.561       38.589     5410.363     6330.023     1489.105        0.969        0.661       75.621       33.100        0.192      344.535       21.421      857.667
09/15/2013  22:59:00        3.738       53.520      -18.901       38.027       48.163       23.303     1446.075     2319.678      543.007        0.377        0.215       53.651       15.867        0.087      344.590       21.517      857.702
09/15/2013  23:00:00       59.412        8.128        2.499       44.158       26.184       26.543     1949.894      685.625      704.518        0.347        0.167       59.965       15.778        0.069      344.252       20.940      857.713
09/15/2013  23:01:00       53.883       38.056       26.631       43.431       53.225       32.924     1886.211     2832.848     1083.987        0.543        0.290       65.966       33.221        0.254      343.937       20.401      857.649
09/15/2013  23:02:00       51.946       39.823       21.854       41.639       36.180       26.946     1733.810     1308.990      726.104        0.426        0.188       65.454       18.588        0.081      344.279       20.984      857.660
09/15/2013  23:03:00      121.733       11.333       -0.728       76.455       41.160       32.270     5845.349     1694.185     1041.372        1.176        0.429      122.260       25.360        0.043      344.192       20.837      857.685
09/15/2013  23:04:00       94.146       36.615       66.197       59.368       76.926       52.145     3524.600     5917.685     2719.124        1.337        0.608      101.015       44.061        0.190      343.962       20.444      857.673
09/15/2013  23:05:00       16.771       97.075      109.422       47.138       60.604       42.594     2221.962     3672.870     1814.207        1.469        0.385       98.513       31.747        0.104      344.264       20.961      857.661
09/15/2013  23:06:00       -0.529       47.673       78.339       46.272       54.628       48.789     2141.063     2984.198     2380.412        0.796        0.375       47.676       42.863        0.808      344.097       20.673      857.702
09/15/2013  23:07:00       61.069       37.110       52.060       61.487       43.321       42.203     3780.674     1876.713     1781.056        0.763        0.372       71.461       40.500        0.321      344.432       21.246      857.709
09/15/2013  23:08:00      151.312       48.399       11.641       52.369       47.642       41.020     2742.557     2269.731     1682.623        1.603        0.335      158.864       21.505        0.018      344.582       21.503      857.702
09/15/2013  23:09:00       89.722       60.651       37.731       33.123       36.455       36.260     1097.163     1328.989     1314.822        0.845        0.187      108.299       26.426        0.060      344.055       20.604      857.694
09/15/2013  23:10:00      147.726      107.361       41.852       45.668       22.900       26.928     2085.534      524.389      725.121        1.922        0.167      182.618        8.772        0.002      344.829       21.925      857.670
09/15/2013  23:11:00       83.230       52.136       27.036       41.272       32.613       24.379     1703.382     1063.629      594.334        0.687        0.168       98.211       19.724        0.040      344.914       22.072      857.665
09/15/2013  23:12:00       47.322       50.542        7.958       43.370       32.770       26.926     1880.923     1073.871      724.994        0.427        0.184       69.238       18.648        0.073      345.067       22.334      857.676
09/15/2013  23:13:00       43.200        8.848        2.119       33.791       37.027       24.697     1141.811     1370.995      609.943        0.254        0.156       44.097       21.333        0.234      344.475       21.320      857.679
09/15/2013  23:14:00       24.527       -1.150       -0.264       29.125       15.487       18.196      848.243      239.838      331.102        0.101        0.071       24.554       14.394        0.344      344.080       20.645      857.678
09/15/2013  23:15:00        1.448      -16.537       -1.468        9.023       19.550        9.427       81.415      382.220       88.870        0.042        0.028       16.600        9.437        0.323      344.077       20.638      857.711
09/15/2013  23:16:00        1.343      -80.778       -0.501       25.353       39.657       17.294      642.756     1572.651      299.092        0.452        0.126       80.789       15.835        0.038      344.830       21.927      857.720
09/15/2013  23:17:00       58.384      -75.692        7.103       44.479       65.293       30.752     1978.350     4263.207      945.687        0.819        0.359       95.593       26.839        0.079      344.603       21.540      857.710
09/15/2013  23:18:00      -38.457     -204.895       18.948       36.086       49.248       31.912     1302.173     2425.330     1018.387        2.428        0.237      208.473       10.422        0.002      345.333       22.785      857.706
09/15/2013  23:19:00      -15.983     -132.705       -0.570       45.319       48.927       31.176     2053.843     2393.900      971.959        1.164        0.271      133.664       22.147        0.027      345.375       22.860      857.713
09/15/2013  23:20:00       93.093      -40.978       18.515       52.943       50.074       47.128     2802.951     2507.402     2221.012        0.911        0.377      101.713       42.479        0.174      345.219       22.592      857.699
09/15/2013  23:21:00       51.573       48.592       51.349       54.178       44.310       44.565     2935.217     1963.379     1986.018        0.727        0.344       70.859       36.227        0.261      344.652       21.623      857.679
09/15/2013  23:22:00       47.071       41.343       23.515       28.724       26.075       32.844      825.058      679.922     1078.726        0.353        0.129       62.649       13.679        0.048      344.793       21.864      857.683
09/15/2013  23:23:00       29.259       12.846       17.306       24.560       52.730       24.364      603.174     2780.491      593.594        0.265        0.199       31.955        8.704        0.074      344.830       21.928      857.699
09/15/2013  23:24:00        6.921       28.147        5.669       35.886       26.034       28.471     1287.832      677.788      810.604        0.182        0.139       28.985       16.465        0.323      344.758       21.805      857.688
09/15/2013  23:25:00       36.872       35.886        2.422       40.553       32.041       19.318     1644.585     1026.626      373.199        0.285        0.152       51.453       13.985        0.074      344.262       20.956      857.668
09/15/2013  23:26:00       39.671       25.614       21.416       30.909       34.812       34.520      955.388     1211.879     1191.612        0.302        0.168       47.221       19.076        0.163      344.194       20.841      857.660
09/15/2013  23:27:00       -8.317       57.005       -9.021       99.283       41.888       25.261     9857.184     1754.602      638.139        0.782        0.612       57.608       33.698        0.342      344.594       21.525      857.666
09/15/2013  23:28:00      -96.609       21.352      -11.789       19.203       18.001       11.228      368.759      324.051      126.068        0.537        0.041       98.940        8.518        0.007      344.370       21.140      857.670
09/15/2013  23:29:00      -98.710      -19.241      -19.793       10.237       13.079        7.382      104.795      171.055       54.491        0.542        0.017      100.567        6.436        0.004      344.561       21.469      857.673
09/15/2013  23:30:00      -75.576        1.873      -13.702       20.209       12.781       13.186      408.386      163.356      173.881        0.332        0.037       75.599        9.999        0.017      344.651       21.622      857.653
09/15/2013  23:31:00      -48.170       39.039      -11.547       23.676       23.792       11.324      560.555      566.047      128.240        0.262        0.063       62.003       12.271        0.039      344.542       21.436      857.634
09/15/2013  23:32:00     -122.022       68.110      -21.556       30.635       33.155       18.332      938.492     1099.229      336.072        1.118        0.119      139.744       17.158        0.015      344.927       22.093      857.625
09/15/2013  23:33:00      -43.179        7.557       -0.962       36.295       23.053       12.546     1317.361      531.439      157.399        0.196        0.100       43.835       12.782        0.085      344.720       21.739      857.617
09/15/2013  23:34:00     -120.534       55.014      -18.952       38.154       40.971       22.968     1455.748     1678.630      527.525        1.079        0.183      132.495       14.040        0.011      345.022       22.254      857.629
09/15/2013  23:35:00      -88.721       80.781      -11.157       35.453       36.340       21.247     1256.904     1320.600      451.451        0.877        0.151      119.987       14.887        0.015      345.313       22.755      857.652
09/15/2013  23:36:00      -51.181       33.791       -2.410       23.337       13.117       11.792      544.636      172.056      139.059        0.231        0.043       61.330        8.916        0.021      345.016       22.244      857.675
09/15/2013  23:37:00       75.711       24.524        3.421       51.062       26.689       19.675     2607.339      712.313      387.093        0.503        0.185       79.584       23.185        0.085      344.808       21.889      857.697
09/15/2013  23:38:00       60.674      -15.316        0.885       27.692       26.207       26.839      766.823      686.796      720.310        0.304        0.109       62.577       13.536        0.047      344.047       20.589      857.699
09/15/2013  23:39:00       26.401        2.160       16.355       18.656       17.950       22.824      348.048      322.215      520.934        0.108        0.060       26.489       13.416        0.257      343.868       20.283      857.710
09/15/2013  23:40:00        1.995       22.887       -6.545       16.628       12.298       13.390      276.505      151.240      179.293        0.059        0.030       22.973       12.973        0.319      344.790       21.860      857.710
09/15/2013  23:41:00       -9.933       20.640        0.907        9.841        8.375        5.507       96.839       70.148       30.324        0.036        0.010       22.906        3.789        0.027      344.815       21.902      857.693
09/15/2013  23:42:00      -41.026       37.437       -4.728       20.621       22.067       13.433      425.245      486.934      180.437        0.210        0.055       55.540       14.787        0.071      344.763       21.811      857.677
09/15/2013  23:43:00      -49.551       44.873       -9.171       16.815       20.504       11.931      282.750      420.422      142.337        0.270        0.042       66.850        5.069        0.006      344.852       21.965      857.669
09/15/2013  23:44:00      -44.501       59.787       -3.191       27.269       32.222       14.402      743.619     1038.261      207.423        0.378        0.099       74.530       18.643        0.063      344.975       22.176      857.670
09/15/2013  23:45:00      -32.470       79.443       -4.292       60.287       43.589       32.502     3634.508     1899.986     1056.357        0.699        0.330       85.822       35.323        0.169      344.936       22.111      857.676
09/15/2013  23:46:00      -15.746       80.614        2.691       27.501       33.208       25.914      756.287     1102.784      671.541        0.464        0.127       82.138       25.315        0.095      344.942       22.119      857.675
09/15/2013  23:47:00       49.804       89.304        1.126       33.045       52.356       29.707     1091.956     2741.100      882.530        0.759        0.236      102.253       26.459        0.067      344.875       22.006      857.647
09/15/2013  23:48:00       55.633      169.491      -24.809       48.226       74.259       40.572     2325.789     5514.450     1646.100        2.096        0.474      178.388       41.290        0.054      344.980       22.183      857.634
09/15/2013  23:49:00       74.598       76.661       11.042       58.289       45.912       43.942     3397.654     2107.872     1930.892        0.950        0.372      106.966       25.711        0.058      344.676       21.663      857.611
09/15/2013  23:50:00       55.153       74.906       11.316       46.189       63.804       37.819     2133.409     4070.919     1430.256        0.821        0.382       93.020       35.171        0.143      344.745       21.781      857.626
09/15/2013  23:51:00      105.594       46.999       16.760       80.561       42.633       35.581     6490.001     1817.610     1265.981        1.160        0.479      115.581       12.303        0.011      344.608       21.546      857.629
09/15/2013  23:52:00       73.594       43.075        8.745       53.312       48.469       36.562     2842.195     2349.215     1336.780        0.694        0.326       85.273       25.623        0.090      344.770       21.824      857.637
09/15/2013  23:53:00      108.363       73.230        9.268       54.655       32.413       24.938     2987.144     1050.574      621.928        1.092        0.233      130.786       17.715        0.018      345.258       22.660      857.656
09/15/2013  23:54:00       31.946       64.500       -0.952       28.361       21.552       18.290      804.345      464.495      334.513        0.339        0.080       71.977       14.836        0.042      345.150       22.475      857.677
09/15/2013  23:55:00       19.972       89.788       -3.139       42.341       31.565       24.795     1792.750      996.336      614.782        0.594        0.170       91.982       21.139        0.053      344.934       22.106      857.695
09/15/2013  23:56:00       82.749       -1.451       16.250       27.123       39.767       19.631      735.656     1581.415      385.359        0.491        0.135       82.761       12.353        0.022      344.668       21.651      857.720
09/15/2013  23:57:00      102.554       39.092       12.134       40.774       39.543       27.266     1662.547     1563.648      743.429        0.808        0.198      109.752       20.592        0.035      344.190       20.834      857.712
09/15/2013  23:58:00       99.938       81.394        1.680       45.115       49.486       38.541     2035.402     2448.898     1485.406        1.129        0.298      128.889       21.125        0.027      344.970       22.167      857.712
09/15/2013  23:59:00       68.135       60.414        9.675       39.415       43.043       32.391     1553.526     1852.703     1049.167        0.642        0.223       91.062       26.149        0.082      344.894       22.036      857.712
